[[{"header":{"parameterUnit":"m.s-1","parameterCategory":1,"la1":30.6,"la2":28.766,"lo1":-90.7593,"lo2":-88.6598,"dy":0.0162,"dx":0.0183,"nx":116,"ny":114,"refTime":"2024-03-04T18:00:00:Z","depth":0,"parameterNumber":2,"parameterNumberName":"U-component_of_WINDS"},"data":[0.0,0.0,0.0,0.0,0.0,0.0,0.0,0.0,0.0,0.0,0.0,0.0,0.0,0.0,0.0,0.0,0.0,0.0,0.0,0.0,0.0,0.0,0.0,0.0,0.0,0.0,0.0,0.0,0.0,0.0,0.0,0.0,0.0,0.0,0.0,0.0,0.0,0.0,0.0,0.0,0.0,0.0,0.0,0.0,0.0,0.0,0.0,0.0,0.0,0.0,0.0,0.0,0.0,0.0,0.0,0.0,0.0,0.0,0.0,0.0,0.0,0.0,0.0,0.0,0.0,0.0,0.0,0.0,0.0,0.0,0.0,0.0,0.0,0.0,0.0,0.0,0.0,0.0,0.0,0.0,0.0,0.0,0.0,0.0,0.0,0.0,0.0,0.0,0.0,0.0,0.0,0.0,0.0,0.0,0.0,0.0,0.0,0.0,0.0,0.0,0.0,0.0,0.0,0.0,0.0,0.0,0.0,0.0,0.0,0.0,0.0,0.0,0.0,0.0,0.0,0.0,0.0,0.0,0.0,0.0,0.0,0.0,0.0,0.0,0.0,0.0,0.0,0.0,0.0,0.0,0.0,0.0,0.0,0.0,0.0,0.0,0.0,0.0,0.0,0.0,0.0,0.0,0.0,0.0,0.0,0.0,0.0,0.0,0.0,0.0,0.0,0.0,0.0,0.0,0.0,0.0,0.0,0.0,0.0,0.0,0.0,0.0,0.0,0.0,0.0,0.0,0.0,0.0,0.0,0.0,0.0,0.0,0.0,0.0,0.0,0.0,0.0,0.0,0.0,0.0,0.0,0.0,0.0,0.0,0.0,0.0,0.0,0.0,0.0,0.0,0.0,0.0,0.0,0.0,0.0,0.0,0.0,0.0,0.0,0.0,0.0,0.0,0.0,0.0,0.0,0.0,0.0,0.0,0.0,0.0,0.0,0.0,0.0,0.0,0.0,0.0,0.0,0.0,0.0,0.0,0.0,0.0,0.0,0.0,0.0,0.0,0.0,0.0,0.0,0.0,0.0,0.0,0.0,0.0,0.0,0.0,0.0,0.0,0.0,0.0,0.0,0.0,0.0,0.0,0.0,0.0,0.0,0.0,0.0,0.0,0.0,0.0,0.0,0.0,0.0,0.0,0.0,0.0,0.0,0.0,0.0,0.0,0.0,0.0,0.0,0.0,0.0,0.0,0.0,0.0,0.0,0.0,0.0,0.0,0.0,0.0,0.0,0.0,0.0,0.0,0.0,0.0,0.0,0.0,0.0,0.0,0.0,0.0,0.0,0.0,0.0,0.0,0.0,0.0,0.0,0.0,0.0,0.0,0.0,0.0,0.0,0.0,0.0,0.0,0.0,0.0,0.0,0.0,0.0,0.0,0.0,0.0,0.0,0.0,0.0,0.0,0.0,0.0,0.0,0.0,0.0,0.0,0.0,0.0,0.0,0.0,0.0,0.0,0.0,0.0,0.0,0.0,0.0,0.0,0.0,0.0,0.0,0.0,0.0,0.0,0.0,0.0,0.0,0.0,0.0,0.0,0.0,0.0,0.0,0.0,0.0,0.0,0.0,0.0,0.0,0.0,0.0,0.0,0.0,0.0,0.0,0.0,0.0,0.0,0.0,0.0,0.0,0.0,0.0,0.0,0.0,0.0,0.0,0.0,0.0,0.0,0.0,0.0,0.0,0.0,0.0,0.0,0.0,0.0,0.0,0.0,0.0,0.0,0.0,0.0,0.0,0.0,0.0,0.0,0.0,0.0,0.0,0.0,0.0,0.0,0.0,0.0,0.0,0.0,0.0,0.0,0.0,0.0,0.0,0.0,0.0,0.0,0.0,0.0,0.0,0.0,0.0,0.0,0.0,0.0,0.0,0.0,0.0,0.0,0.0,0.0,0.0,0.0,0.0,0.0,0.0,0.0,0.0,0.0,0.0,0.0,0.0,0.0,0.0,0.0,0.0,0.0,0.0,0.0,0.0,0.0,0.0,0.0,0.0,0.0,0.0,0.0,0.0,0.0,0.0,0.0,0.0,0.0,0.0,0.0,0.0,0.0,0.0,0.0,0.0,0.0,0.0,0.0,0.0,0.0,0.0,0.0,0.0,0.0,0.0,0.0,0.0,0.0,0.0,0.0,0.0,0.0,0.0,0.0,0.0,0.0,0.0,0.0,0.0,0.0,0.0,0.0,0.0,0.0,0.0,0.0,0.0,0.0,0.0,0.0,0.0,0.0,0.0,0.0,0.0,0.0,0.0,0.0,0.0,0.0,0.0,0.0,0.0,0.0,0.0,0.0,0.0,0.0,0.0,0.0,0.0,0.0,0.0,0.0,0.0,0.0,0.0,0.0,0.0,0.0,0.0,0.0,0.0,0.0,0.0,0.0,0.0,0.0,0.0,0.0,0.0,0.0,0.0,0.0,0.0,0.0,0.0,0.0,0.0,0.0,0.0,0.0,0.0,0.0,0.0,0.0,0.0,0.0,0.0,0.0,0.0,0.0,0.0,0.0,0.0,0.0,0.0,0.0,0.0,0.0,0.0,0.0,0.0,0.0,0.0,0.0,0.0,0.0,0.0,0.0,0.0,0.0,0.0,0.0,0.0,0.0,0.0,0.0,0.0,0.0,0.0,0.0,0.0,0.0,0.0,0.0,0.0,0.0,0.0,0.0,0.0,0.0,0.0,0.0,0.0,0.0,0.0,0.0,0.0,0.0,0.0,0.0,0.0,0.0,0.0,0.0,0.0,0.0,0.0,0.0,0.0,0.0,0.0,0.0,0.0,0.0,0.0,0.0,0.0,0.0,0.0,0.0,0.0,0.0,0.0,0.0,0.0,0.0,0.0,0.0,0.0,0.0,0.0,0.0,0.0,0.0,0.0,0.0,0.0,0.0,0.0,0.0,0.0,0.0,0.0,0.0,0.0,0.0,0.0,0.0,0.0,0.0,0.0,0.0,0.0,0.0,0.0,0.0,0.0,0.0,0.0,0.0,0.0,0.0,0.0,0.0,0.0,0.0,0.0,0.0,0.0,0.0,0.0,0.0,0.0,0.0,0.0,0.0,0.0,0.0,0.0,0.0,0.0,0.0,0.0,0.0,0.0,0.0,0.0,0.0,0.0,0.0,0.0,0.0,0.0,0.0,0.0,0.0,0.0,0.0,0.0,0.0,0.0,0.0,0.0,0.0,0.0,0.0,0.0,0.0,0.0,0.0,0.0,0.0,0.0,0.0,0.0,0.0,0.0,0.0,0.0,0.0,0.0,0.0,0.0,0.0,0.0,0.0,0.0,0.0,0.0,0.0,0.0,0.0,0.0,0.0,0.0,0.0,0.0,0.0,0.0,0.0,0.0,0.0,0.0,0.0,0.0,0.0,0.0,0.0,0.0,0.0,0.0,0.0,0.0,0.0,0.0,0.0,0.0,0.0,0.0,0.0,0.0,0.0,0.0,0.0,0.0,0.0,0.0,0.0,0.0,0.0,0.0,0.0,0.0,0.0,0.0,0.0,0.0,0.0,0.0,0.0,0.0,0.0,0.0,0.0,0.0,0.0,0.0,0.0,0.0,0.0,0.0,0.0,0.0,0.0,0.0,0.0,0.0,0.0,0.0,0.0,0.0,0.0,0.0,0.0,0.0,0.0,0.0,0.0,0.0,0.0,0.0,0.0,0.0,0.0,0.0,0.0,0.0,0.0,0.0,0.0,0.0,0.0,0.0,0.0,0.0,0.0,0.0,0.0,0.0,0.0,0.0,0.0,0.0,0.0,0.0,0.0,0.0,0.0,0.0,0.0,0.0,0.0,0.0,0.0,0.0,0.0,0.0,0.0,0.0,0.0,0.0,0.0,0.0,0.0,0.0,0.0,0.0,0.0,0.0,0.0,0.0,0.0,0.0,0.0,0.0,0.0,0.0,0.0,0.0,0.0,0.0,0.0,0.0,0.0,0.0,0.0,0.0,0.0,0.0,0.0,0.0,0.0,0.0,0.0,0.0,0.0,0.0,0.0,0.0,0.0,0.0,0.0,0.0,0.0,0.0,0.0,0.0,0.0,0.0,0.0,0.0,0.0,0.0,0.0,0.0,0.0,0.0,0.0,0.0,0.0,0.0,0.0,0.0,0.0,0.0,0.0,0.0,0.0,0.0,0.0,0.0,0.0,0.0,0.0,0.0,0.0,0.0,0.0,0.0,0.0,0.0,0.0,0.0,0.0,0.0,0.0,0.0,0.0,0.0,0.0,0.0,0.0,0.0,0.0,0.0,0.0,0.0,0.0,0.0,0.0,0.0,0.0,0.0,0.0,0.0,0.0,0.0,0.0,0.0,0.0,0.0,0.0,0.0,0.0,0.0,0.0,0.0,0.0,0.0,0.0,0.0,0.0,0.0,0.0,0.0,0.0,0.0,0.0,0.0,0.0,0.0,0.0,0.0,0.0,0.0,0.0,0.0,0.0,0.0,0.0,0.0,0.0,0.0,0.0,0.0,0.0,0.0,0.0,0.0,0.0,0.0,0.0,0.0,0.0,0.0,0.0,0.0,0.0,0.0,0.0,0.0,0.0,0.0,0.0,0.0,0.0,0.0,0.0,0.0,0.0,0.0,0.0,0.0,0.0,0.0,0.0,0.0,0.0,0.0,0.0,0.0,0.0,0.0,0.0,0.0,0.0,0.0,0.0,0.0,0.0,0.0,0.0,0.0,0.0,0.0,0.0,0.0,0.0,0.0,0.0,0.0,0.0,0.0,0.0,0.0,0.0,0.0,0.0,0.0,0.0,0.0,0.0,0.0,0.0,0.0,0.0,0.0,0.0,0.0,0.0,0.0,0.0,0.0,0.0,0.0,0.0,0.0,0.0,0.0,0.0,0.0,0.0,0.0,0.0,0.0,0.0,0.0,0.0,0.0,0.0,0.0,0.0,0.0,0.0,0.0,0.0,0.0,0.0,0.0,0.0,0.0,0.0,0.0,0.0,0.0,0.0,0.0,0.0,0.0,0.0,0.0,0.0,0.0,0.0,0.0,0.0,0.0,0.0,0.0,0.0,0.0,0.0,0.0,0.0,0.0,0.0,0.0,0.0,0.0,0.0,0.0,0.0,0.0,0.0,0.0,0.0,0.0,0.0,0.0,0.0,0.0,0.0,0.0,0.0,0.0,0.0,0.0,0.0,0.0,0.0,0.0,0.0,0.0,0.0,0.0,0.0,0.0,0.0,0.0,0.0,0.0,0.0,0.0,0.0,0.0,0.0,0.0,0.0,0.0,0.0,0.0,0.0,0.0,0.0,0.0,0.0,0.0,0.0,0.0,0.0,0.0,0.0,0.0,0.0,0.0,0.0,0.0,0.0,0.0,0.0,0.0,0.0,0.0,0.0,0.0,0.0,0.0,0.0,0.0,0.0,0.0,0.0,0.0,0.0,0.0,0.0,0.0,0.0,0.0,0.0,0.0,0.0,0.0,0.0,0.0,0.0,0.0,0.0,0.0,0.0,0.0,0.0,0.0,0.0,0.0,0.0,0.0,0.0,0.0,0.0,0.0,0.0,0.0,0.0,0.0,0.0,0.0,0.0,0.0,0.0,0.0,0.0,0.0,0.0,0.0,0.0,0.0,0.0,0.0,0.0,0.0,0.0,0.0,0.0,0.0,0.0,0.0,0.0,0.0,0.0,0.0,0.0,0.0,0.0,0.0,0.0,0.0,0.0,0.0,0.0,0.0,0.0,0.0,0.0,0.0,0.0,0.0,0.0,0.0,0.0,0.0,0.0,0.0,0.0,0.0,0.0,0.0,0.0,0.0,0.0,0.0,0.0,0.0,0.0,0.0,0.0,0.0,0.0,0.0,0.0,0.0,0.0,0.0,0.0,0.0,0.0,0.0,0.0,0.0,0.0,0.0,0.0,0.0,0.0,0.0,0.0,0.0,0.0,0.0,0.0,0.0,0.0,0.0,0.0,0.0,0.0,0.0,0.0,0.0,0.0,0.0,0.0,0.0,0.0,0.0,0.0,0.0,0.0,0.0,0.0,0.0,0.0,0.0,0.0,0.0,0.0,0.0,0.0,0.0,0.0,0.0,0.0,0.0,0.0,0.0,0.0,0.0,0.0,0.0,0.0,0.0,0.0,0.0,0.0,0.0,0.0,0.0,0.0,-2.3113,-2.306,0.0,0.0,0.0,0.0,0.0,0.0,0.0,0.0,0.0,0.0,0.0,0.0,0.0,0.0,0.0,0.0,0.0,0.0,0.0,0.0,0.0,0.0,0.0,0.0,0.0,0.0,-3.1699,-3.2109,-3.2754,-3.2773,0.0,0.0,0.0,0.0,-3.248,-3.2871,-3.3086,-3.3086,-3.2169,-3.0893,-2.9275,-2.991,-2.9761,-2.9064,0.0,0.0,0.0,0.0,0.0,0.0,0.0,0.0,0.0,0.0,0.0,0.0,0.0,0.0,0.0,0.0,0.0,0.0,0.0,0.0,0.0,0.0,0.0,0.0,0.0,0.0,0.0,0.0,0.0,0.0,0.0,0.0,0.0,0.0,0.0,0.0,0.0,0.0,0.0,0.0,0.0,0.0,0.0,0.0,0.0,0.0,0.0,0.0,0.0,0.0,0.0,0.0,0.0,0.0,0.0,0.0,0.0,0.0,0.0,0.0,0.0,0.0,0.0,0.0,0.0,0.0,0.0,0.0,0.0,0.0,-2.2838,-2.3143,0.0,0.0,0.0,0.0,0.0,0.0,0.0,0.0,0.0,0.0,0.0,0.0,0.0,0.0,0.0,0.0,0.0,0.0,0.0,0.0,0.0,0.0,0.0,-3.3875,-3.2605,-3.1167,-3.1733,-3.2221,-3.232,-3.2918,-3.3184,-3.291,-3.3652,-3.375,-3.3027,-3.3867,-3.4167,-3.3758,-3.1589,-2.9851,-2.8631,-2.7713,-2.6785,-2.5898,-2.6516,0.0,0.0,0.0,0.0,0.0,0.0,0.0,0.0,0.0,0.0,0.0,0.0,0.0,0.0,0.0,0.0,0.0,0.0,0.0,0.0,0.0,0.0,0.0,0.0,0.0,0.0,0.0,0.0,0.0,0.0,0.0,0.0,0.0,0.0,0.0,0.0,0.0,0.0,0.0,0.0,0.0,0.0,0.0,0.0,0.0,0.0,0.0,0.0,0.0,0.0,0.0,0.0,0.0,0.0,0.0,0.0,0.0,0.0,0.0,0.0,0.0,0.0,0.0,-2.0262,-2.0141,-2.0259,-1.9999,-1.9825,-1.9771,-2.2061,-2.2582,-2.1922,-2.2563,0.0,0.0,0.0,0.0,0.0,0.0,0.0,0.0,0.0,0.0,0.0,0.0,0.0,0.0,0.0,0.0,0.0,0.0,0.0,0.0,0.0,-3.3528,-3.2446,-2.9507,-3.1028,-3.1712,-3.0618,-3.2003,-3.3008,-3.332,-3.3809,-3.4023,-3.3906,-3.4766,-3.4308,-3.2548,-2.9385,-2.7575,-2.7049,-2.5456,-2.4382,-2.3777,-2.5607,-2.5802,-2.4619,0.0,0.0,0.0,0.0,0.0,0.0,0.0,0.0,0.0,0.0,0.0,0.0,0.0,0.0,0.0,0.0,0.0,0.0,0.0,0.0,0.0,0.0,0.0,0.0,0.0,0.0,0.0,0.0,0.0,0.0,0.0,0.0,0.0,0.0,0.0,0.0,0.0,0.0,0.0,0.0,0.0,-1.9681,-1.9989,0.0,0.0,0.0,0.0,0.0,0.0,0.0,0.0,0.0,0.0,0.0,0.0,0.0,-2.0872,-2.0842,-2.0704,-2.0482,-2.0433,-2.0153,-2.0073,-2.0187,-2.006,-2.0032,-2.0085,-2.0607,0.0,-1.932,-1.9167,0.0,0.0,0.0,0.0,0.0,0.0,0.0,0.0,0.0,0.0,0.0,0.0,0.0,0.0,0.0,0.0,0.0,0.0,0.0,0.0,0.0,-3.1976,-3.0622,-2.9697,-2.9931,-2.9801,-2.9103,-3.0088,-3.106,-3.1899,-3.2599,-3.3529,-3.4805,-3.4524,-3.3037,-3.0349,-2.8832,-2.7507,-2.6346,-2.5208,-2.4462,-2.4093,-2.4644,-2.4352,-2.3238,-2.2855,0.0,0.0,0.0,0.0,0.0,0.0,0.0,0.0,0.0,0.0,0.0,0.0,0.0,0.0,0.0,0.0,0.0,0.0,0.0,0.0,0.0,0.0,0.0,0.0,0.0,0.0,0.0,0.0,0.0,0.0,0.0,0.0,0.0,0.0,0.0,0.0,0.0,0.0,0.0,-2.0435,-1.9773,-1.9785,-1.9371,-1.9085,0.0,0.0,0.0,0.0,0.0,0.0,0.0,0.0,0.0,-1.8903,-1.8254,-1.7827,-1.7827,-1.7821,-1.7771,-1.7874,-1.898,-1.9595,-1.9777,-1.9681,-1.9681,-1.9673,-1.8444,-1.7472,-1.6993,-1.8625,-1.8914,-1.8406,0.0,0.0,0.0,0.0,-1.8454,-1.864,0.0,0.0,0.0,0.0,0.0,0.0,0.0,0.0,0.0,0.0,0.0,0.0,-3.2426,-3.0139,-2.8647,-2.8926,-2.8659,-2.8191,-2.7664,-2.8388,-2.9228,-3.0218,-3.0937,-3.2214,-3.3984,-3.2985,-3.1326,-2.8937,-2.8487,-2.7509,-2.6052,-2.5545,-2.5104,-2.473,-2.4302,-2.3607,-2.2739,-2.2285,-2.1977,-2.1737,0.0,0.0,0.0,0.0,0.0,0.0,0.0,0.0,0.0,0.0,0.0,0.0,0.0,0.0,0.0,0.0,0.0,0.0,0.0,0.0,0.0,0.0,0.0,0.0,0.0,0.0,0.0,0.0,0.0,0.0,0.0,0.0,0.0,0.0,0.0,0.0,0.0,-1.9796,-1.8819,-1.861,-1.8031,-1.7644,0.0,0.0,0.0,0.0,0.0,0.0,-1.8654,-1.7693,-1.7203,-1.7417,-1.6168,-1.554,-1.5581,-1.5696,-1.5825,-1.6066,-1.8257,-1.9446,-1.9626,-2.0166,-2.044,-2.0238,-1.8426,-1.7164,-1.643,-1.7975,-1.8206,-1.7565,-1.7422,-1.7342,-1.7369,-1.7593,-1.7728,-1.7937,0.0,0.0,0.0,0.0,0.0,0.0,0.0,0.0,0.0,0.0,0.0,-2.8732,-2.9089,-2.8232,-2.7003,-2.5658,-2.7407,-2.7884,-2.6186,-2.7461,-2.8362,-2.8726,-2.9106,-2.9705,-3.0347,-2.9756,-2.9389,-2.9341,-2.7727,-2.672,-2.636,-2.6052,-2.5611,-2.5064,-2.5024,-2.4529,-2.3647,-2.2766,-2.2392,-2.2325,-2.1764,0.0,0.0,0.0,0.0,0.0,0.0,0.0,0.0,0.0,0.0,0.0,0.0,0.0,0.0,0.0,0.0,0.0,0.0,0.0,0.0,0.0,0.0,0.0,0.0,0.0,0.0,0.0,0.0,0.0,0.0,0.0,0.0,0.0,0.0,0.0,0.0,0.0,0.0,-1.5302,-1.6038,0.0,0.0,0.0,0.0,-1.695,-1.7061,-1.6483,-1.4902,-1.5087,-1.5471,-1.5677,-1.5841,-1.59,-1.6049,-1.6056,-1.6137,-1.6286,-1.8629,-1.991,-2.0098,-2.2409,-2.3211,-2.2835,-2.2725,-2.1084,-1.8431,-1.5959,-1.4785,-1.4481,-1.417,-1.4046,-1.4046,-1.406,-1.4067,-1.4323,0.0,0.0,0.0,0.0,0.0,0.0,0.0,0.0,-2.5224,-2.7089,-2.6754,-2.7159,-2.9108,-2.7194,-2.5845,-2.5718,-2.5798,-2.5313,-2.4358,-2.5156,-2.5992,-2.6898,-2.7478,-2.8206,-2.8974,-2.8057,-2.7592,-2.7755,-2.7081,-2.6774,-2.6653,-2.6186,-2.5745,-2.5358,-2.5358,-2.497,-2.4262,-2.338,-2.2886,-2.2632,-2.1936,-2.1561,0.0,0.0,0.0,0.0,0.0,0.0,0.0,0.0,0.0,0.0,0.0,0.0,0.0,0.0,0.0,0.0,0.0,0.0,0.0,0.0,0.0,0.0,0.0,0.0,0.0,0.0,0.0,0.0,0.0,0.0,0.0,0.0,0.0,0.0,0.0,0.0,0.0,-1.5908,-1.5471,0.0,-1.478,-1.5631,-1.5917,-1.5301,-1.5534,-1.5638,-1.5215,-1.5662,-1.6001,-1.6198,-1.6449,-1.6605,-1.6659,-1.6659,-1.7394,-1.888,-2.1183,-2.2998,-2.4519,-2.5307,-2.5666,-2.5399,-2.3692,-2.2329,-2.1209,-1.9777,-1.7474,-1.4713,-1.4502,-1.4421,-1.4421,-1.4421,-1.4482,-1.4647,0.0,0.0,0.0,0.0,0.0,0.0,0.0,0.0,-2.3764,-2.5541,-2.5261,-2.563,-2.771,-2.5808,-2.4592,-2.5192,-2.3924,-2.2878,-2.2416,-2.2647,-2.3266,-2.4219,-2.498,-2.5404,-2.5308,-2.553,-2.5545,-2.5519,-2.6359,-2.6774,-2.6667,-2.6279,-2.5945,-2.5665,-2.5758,-2.5424,-2.4743,-2.4168,-2.3634,-2.3169,-2.2378,-2.2057,-2.1963,0.0,0.0,0.0,0.0,0.0,0.0,0.0,0.0,0.0,0.0,0.0,0.0,0.0,0.0,0.0,0.0,0.0,0.0,0.0,0.0,0.0,0.0,0.0,0.0,0.0,0.0,0.0,0.0,0.0,0.0,0.0,0.0,0.0,0.0,-1.5822,-1.5322,-1.557,-1.513,-1.4618,-1.4326,-1.457,-1.4794,-1.4882,-1.5174,-1.552,-1.5913,-1.6266,-1.6551,-1.6741,-1.6897,-1.7005,-1.7053,-1.7005,-1.8118,-2.0279,-2.2554,-2.4721,-2.6896,-2.7623,-2.7941,-2.7661,-2.5914,-2.4523,-2.3394,-2.2948,-2.0421,-1.6873,-1.6758,-1.6712,-1.6712,-1.6712,-1.6422,-1.5767,0.0,0.0,0.0,0.0,0.0,0.0,0.0,-2.0729,-2.2359,-2.272,-2.3516,-2.4242,-2.4833,-2.3954,-2.3434,-2.3741,-2.1988,-2.0769,-2.0592,-2.0274,-2.0368,-2.0886,-2.1674,-2.1213,-1.926,-2.1925,-2.3237,-2.2992,-2.5439,-2.6414,-2.6228,-2.6228,-2.6069,-2.5803,-2.6095,-2.575,-2.494,-2.494,-2.4449,-2.3683,-2.3126,-2.2873,-2.2847,0.0,0.0,0.0,0.0,0.0,0.0,0.0,0.0,0.0,0.0,0.0,0.0,0.0,0.0,0.0,0.0,0.0,0.0,0.0,0.0,0.0,0.0,0.0,0.0,0.0,0.0,0.0,0.0,0.0,0.0,0.0,0.0,0.0,-1.4988,-1.4216,-1.3763,-1.4075,-1.476,-1.5099,-1.4808,-1.5316,-1.5662,-1.5662,-1.5934,-1.6225,-1.651,-1.668,-1.689,-1.7175,-1.706,-1.7053,-1.7182,-1.7046,-1.8118,-2.0279,-2.2545,-2.4711,-2.6988,-2.9162,-2.99,-2.9393,-2.9381,-2.7712,-2.4985,-2.4963,-2.3324,-2.09,-2.08,-2.0699,-2.0608,-2.0618,-1.934,-1.7317,0.0,0.0,0.0,0.0,0.0,0.0,-2.1424,-2.2784,-2.3866,-2.422,-2.4101,-2.4242,-2.4833,-2.3758,-2.3207,-2.3728,-2.1815,-2.1159,-2.246,-2.1166,-2.0638,-2.1269,-1.9013,-1.8284,-1.9544,-1.8995,-1.9459,-2.0947,-2.1503,-2.175,-2.1684,-2.1603,-2.1461,-2.132,-2.1483,-2.1206,-2.0692,-2.078,-2.1414,-2.2434,-2.2956,-2.3193,-2.3126,0.0,0.0,0.0,0.0,0.0,0.0,0.0,0.0,0.0,0.0,0.0,0.0,0.0,0.0,0.0,0.0,0.0,0.0,0.0,0.0,0.0,0.0,0.0,0.0,0.0,0.0,0.0,0.0,0.0,0.0,0.0,-1.3739,-1.3383,-1.3813,-1.4041,-1.4346,-1.497,-1.5513,-1.5805,-1.5723,-1.6056,-1.6232,-1.613,-1.6402,-1.6605,-1.668,-1.6931,-1.706,-1.7039,-1.71,-1.7107,-1.7039,-1.6998,-1.8118,-2.0279,-2.2307,-2.4493,-2.6638,-2.8696,-2.9441,-2.9115,-2.8922,-2.826,-2.7298,-2.6841,-2.6272,-2.5227,-2.2188,-2.0015,-1.8534,-1.8761,-1.7535,-1.5661,0.0,0.0,0.0,0.0,0.0,0.0,-2.2564,-2.3431,-2.3926,-2.3705,-2.3703,-2.3672,-2.3551,-2.3022,-2.2819,-2.318,-2.0635,-1.9831,-2.1603,-2.0308,-1.9357,-1.8977,-1.7105,-1.636,-1.7057,-1.684,-1.7386,-1.8613,-1.9479,-1.9907,-1.9907,-1.9826,-1.9745,-1.9634,-1.9755,-1.9544,-1.9203,-1.9292,-1.9813,-2.0549,-2.1184,-2.1921,-2.2481,-2.1786,-2.1044,-2.0167,-1.794,-1.8183,-1.9278,-1.7396,0.0,0.0,0.0,0.0,0.0,0.0,0.0,0.0,0.0,0.0,0.0,0.0,0.0,0.0,0.0,0.0,0.0,0.0,0.0,0.0,0.0,0.0,0.0,0.0,-1.3333,-1.3261,-1.3715,-1.4183,-1.476,-1.5506,-1.594,-1.6198,-1.6259,-1.6537,-1.6653,-1.6503,-1.6714,-1.6842,-1.6842,-1.7012,-1.7066,-1.6985,-1.706,-1.7066,-1.6978,-1.6917,-1.8425,-2.15,-2.2636,-2.477,-2.7704,-2.8871,-2.92,-2.8837,-2.8693,-2.8343,-2.7848,-2.7546,-2.6822,-2.5594,0.0,0.0,0.0,0.0,-1.7071,-1.5927,0.0,0.0,0.0,0.0,0.0,0.0,-2.2888,-2.357,-2.3599,-2.2475,-2.3007,-2.3014,-2.181,-2.2015,-2.2245,-2.2311,-1.914,-1.7744,-1.9267,-1.8568,-1.7322,-1.5593,-1.5729,-1.5128,-1.3424,-1.5298,-1.627,-1.627,-1.8237,-1.9215,-1.9215,-1.9235,-1.9235,-1.9215,-1.9215,-1.9089,-1.8795,-1.8746,-1.8671,-1.8473,-1.8424,-1.9593,-2.1147,-2.0405,-1.9127,-1.7497,-1.5182,-1.6496,-1.8812,-1.5237,0.0,0.0,0.0,0.0,0.0,0.0,0.0,0.0,0.0,0.0,0.0,0.0,0.0,0.0,0.0,0.0,0.0,0.0,0.0,0.0,0.0,0.0,0.0,0.0,-1.3315,-1.3865,-1.4312,-1.4631,-1.5072,-1.5771,-1.6137,-1.6388,-1.653,-1.6809,-1.6924,-1.6788,-1.6904,-1.6978,-1.6978,-1.6978,0.0,0.0,0.0,-1.6971,-1.7056,-1.6815,-1.8785,-2.284,-2.2929,-2.5036,-2.8962,-2.9198,-2.8994,-2.8524,-2.85,-2.8065,-2.7377,-2.7377,-2.5788,-2.3348,-2.3136,-2.292,-2.2275,-1.8394,-1.7095,-1.7026,0.0,0.0,0.0,0.0,0.0,0.0,-2.4968,-2.5818,-2.5903,-2.475,-2.449,-2.3841,-2.2313,-2.1458,-2.1203,-2.1683,-1.9451,-1.7906,-1.7672,-1.7799,-1.7312,-1.5785,-1.4563,-1.3839,-1.358,-1.4,-1.416,-1.416,-1.4579,-1.4823,-1.4831,-1.4949,-1.4942,-1.4823,-1.4823,-1.4734,-1.4556,-1.4378,-1.517,-1.6486,-1.6249,-1.7398,-1.9166,-1.8891,-1.8571,-1.799,-1.5882,-1.5649,-1.6148,-1.499,-1.5363,-1.6104,-1.4815,-1.4558,0.0,0.0,0.0,0.0,0.0,0.0,0.0,0.0,0.0,0.0,0.0,0.0,0.0,0.0,0.0,0.0,0.0,0.0,0.0,-1.3186,-1.3777,-1.4326,-1.478,-1.5092,-1.5425,-1.5805,-1.6225,-1.6537,-1.6693,-1.687,-1.6971,-1.6937,-1.6965,-1.6978,-1.6978,-1.6978,-1.7188,-1.7601,-1.7188,-1.7126,-1.7515,-1.6968,-1.7909,-2.0401,-2.1922,0.0,-2.6474,-2.785,-2.827,-2.7956,-2.7751,-2.7449,-2.7099,-2.7099,-2.4889,-2.1235,-1.9436,-1.8811,-1.8689,-1.604,-1.5061,-1.5068,0.0,0.0,0.0,0.0,0.0,0.0,-2.5273,-2.5762,-2.5703,-2.4783,-2.4626,-2.4111,-2.2783,-2.1672,-2.1244,-2.1647,-2.0663,-1.8737,-1.5799,-1.708,-1.6992,-1.4673,-1.3809,-1.3471,-1.3627,-1.3553,-1.3553,-1.3627,-1.3553,-1.3553,-1.3627,-1.362,-1.358,-1.3512,-1.3512,-1.3431,-1.3275,-1.3132,-1.3611,-1.4309,-1.4142,-1.4708,-1.5616,-1.6608,-1.6365,-1.5383,-1.4384,-1.4719,-1.5503,-1.4168,-1.5091,-1.6348,-1.3877,-1.373,-1.4285,0.0,0.0,0.0,0.0,0.0,0.0,0.0,0.0,0.0,0.0,0.0,0.0,0.0,0.0,-1.1843,-1.221,0.0,-1.3173,-1.3844,-1.4211,-1.4563,-1.5011,-1.5337,-1.5608,-1.5825,-1.6246,-1.6578,-1.6734,-1.689,-1.6978,-1.6978,-1.6978,-1.6978,-1.6978,-1.7293,-1.7496,-1.7811,-1.7811,-1.7837,-1.7989,-1.7394,-1.8587,-2.1513,-2.2199,-2.4072,-2.7227,-2.7902,-2.8065,-2.7799,-2.7534,-2.7268,-2.6936,-2.5913,-2.4365,-2.2293,-1.9888,-1.7887,-1.6054,-1.484,-1.4407,-1.4394,0.0,0.0,0.0,0.0,0.0,0.0,0.0,-2.493,-2.4794,-2.4244,-2.4227,-2.3878,-2.2961,-2.2002,-2.1504,-2.161,-2.1471,-1.9453,-1.4806,-1.6749,-1.6632,-1.3494,-1.341,-1.3492,-1.3587,-1.3464,-1.3458,-1.3587,-1.3492,-1.3505,-1.3627,-1.3081,-1.2772,-1.2765,-1.2293,-1.2288,-1.2507,-1.2537,-1.2529,-1.2684,-1.2657,-1.2556,-1.2567,-1.4189,-1.3891,-1.2725,-1.2698,-1.3848,-1.5027,-1.3269,-1.4742,-1.6802,-1.3344,-1.3221,-1.4221,-1.3695,-1.3641,0.0,0.0,0.0,0.0,0.0,0.0,0.0,0.0,-1.1253,-1.1423,-1.1728,-1.2054,-1.2467,-1.3098,-1.3315,-1.3648,-1.4428,-1.4577,-1.4746,-1.5167,-1.5466,-1.5689,-1.5839,-1.6246,-1.6578,-1.6734,-1.689,-1.6978,-1.6978,-1.6978,-1.6978,-1.6978,-1.7496,-1.7811,-1.7915,-1.8327,-1.8552,-1.8564,-1.7924,-1.946,-2.3296,-2.2719,-2.457,-2.8536,-2.8258,-2.798,-2.7715,-2.7461,-2.7196,-2.6773,-2.5241,-2.4343,-2.3726,-2.1781,-1.8821,-1.5519,-1.5395,-1.5344,-1.5344,0.0,0.0,0.0,0.0,0.0,0.0,0.0,0.0,-2.4419,-2.4376,-2.3581,-2.2886,-2.2487,-2.1895,-2.136,-2.1011,-2.0907,-1.9524,-1.6537,-1.734,-1.6492,-1.3336,-1.3458,-1.3546,-1.3431,-1.341,-1.341,-1.3424,-1.3546,-1.3614,-1.3543,-1.1565,-1.0625,-1.053,-0.8405,-0.8488,-1.0188,-1.0067,-1.1016,-1.2515,-1.2393,-1.225,-1.2169,-1.2174,-1.2395,-1.2712,-1.2576,-1.269,-1.2852,-1.2613,-1.2748,-1.2934,-1.245,-1.2333,-1.2335,-1.1803,-1.1664,-1.1503,-1.134,-1.1342,-1.1375,-1.1398,-1.1468,-1.1552,0.0,-1.1952,-1.2047,-1.2338,-1.2745,-1.3119,-1.3336,-1.381,-1.4292,-1.4658,-1.4828,-1.5031,-1.5343,-1.5533,-1.5689,-1.5839,-1.6246,-1.6578,-1.6734,-1.689,-1.6978,-1.6978,-1.6978,-1.6978,-1.6978,-1.7496,-1.802,-1.8536,-1.8536,-1.87,-1.8893,-1.8368,-1.9798,-2.318,-2.3053,-2.4884,-2.8246,-2.798,-2.7715,-2.7449,-2.7184,-2.693,-2.6611,-2.6659,-2.5238,-2.3128,-2.3112,-2.1578,-1.9292,-1.9273,-1.9264,-1.9003,0.0,0.0,0.0,0.0,0.0,0.0,0.0,0.0,0.0,-2.4094,-2.3648,-2.3438,-2.356,-2.2157,-2.0899,-2.0089,-2.0111,-1.8987,-1.6117,-1.7038,-1.6223,-1.3054,-1.3125,-1.3214,-1.3146,-1.3146,-1.2608,-1.1441,-1.1417,-1.0821,-0.9697,-0.8711,-0.8186,-0.8182,-0.7113,-0.7734,-0.9575,-0.9484,-1.0589,-1.2244,-1.2182,-1.2067,-1.1911,-1.1762,-1.1809,-1.1965,-1.2074,-1.2169,0.0,-1.2244,-1.2203,-1.2155,-1.2155,-1.2054,-1.1857,-1.1497,-1.1463,-1.1491,-1.1192,-1.1043,-1.1029,-1.124,-1.1423,-1.1667,-1.2094,-1.2325,-1.2508,-1.2725,-1.3193,-1.3607,-1.3763,-1.4068,-1.4394,-1.4692,-1.4794,-1.497,-1.5357,-1.5466,-1.5594,-1.5825,-1.6096,-1.6361,-1.6592,-1.6836,-1.6978,-1.6978,-1.6978,-1.6978,-1.6978,-1.7496,-1.802,-1.8536,-1.8864,-1.9109,-1.9479,-1.8769,-1.9734,-2.2092,-2.2955,-2.4663,-2.711,-2.8075,-2.8081,-2.7536,-2.7166,-2.6966,-2.687,-2.6979,-2.6288,-2.5117,-2.5071,-2.4303,-2.3011,-2.0791,-1.9873,-1.9786,0.0,0.0,0.0,0.0,0.0,0.0,0.0,0.0,0.0,0.0,-2.4283,-2.4108,-2.4245,-2.244,-2.0999,-2.0417,-2.001,-1.8856,-1.6498,-1.6766,-1.5875,-1.3223,-1.2982,-1.2881,-1.2834,-1.2874,-1.1955,-0.99,-0.9817,-0.8742,-0.6855,-0.6145,-0.5803,-0.5821,-0.5703,-0.6727,-0.8512,-0.8997,-1.0317,-1.1993,-1.1959,-1.185,-1.1687,-1.1457,-1.158,-1.1858,-1.1633,-1.166,-1.1762,-1.1803,-1.1889,-1.183,-1.1911,-1.1864,-1.1714,-1.1416,-1.1423,-1.1484,-1.1314,-1.1219,-1.1219,-1.1457,-1.1735,-1.2047,-1.24,-1.2671,-1.2908,-1.3105,-1.3519,-1.3899,-1.4095,-1.4224,-1.4394,-1.4692,-1.474,-1.4882,-1.5289,-1.5818,-1.6195,-1.6465,-1.66,-1.6793,-1.7005,-1.6996,-1.6937,-1.6978,-1.6978,-1.6978,-1.6978,-1.7496,-1.7999,-1.8261,-1.8876,-1.9324,-1.9517,-1.9039,-1.9676,-2.1293,-2.2375,-2.3755,-2.5428,-2.7229,-2.7834,-2.7649,-2.7377,-2.7033,-2.681,-2.6894,-2.6641,-2.6182,-2.6061,-2.5796,-2.5139,-2.2331,-2.1424,-2.1429,0.0,0.0,0.0,0.0,0.0,0.0,0.0,0.0,0.0,0.0,0.0,0.0,0.0,-2.2611,-2.2042,-2.2646,-2.0968,-1.9498,-1.8551,-1.6882,-1.5413,-1.422,-1.3257,-1.2664,-1.2522,-1.2664,-1.1717,-0.9625,-0.9625,-0.8581,-0.6691,-0.4544,-0.3531,-0.3485,-0.3171,-0.4153,-0.6244,-0.808,-1.0031,-1.1823,-1.1687,-1.1538,-1.1355,-1.0914,-1.1659,-1.2856,-1.1454,-1.0907,-1.1002,-1.1145,-1.1261,-1.124,-1.1538,-1.1633,-1.1565,-1.126,-1.0968,-1.0785,-1.0853,-1.1063,-1.1267,-1.1708,-1.2047,-1.2393,-1.284,-1.3057,-1.3247,-1.3546,-1.3736,-1.3933,-1.4238,-1.4299,-1.4394,-1.4692,-1.474,-1.4841,-1.5147,-1.6767,-1.7944,-1.8128,-1.816,-1.82,-1.8542,-1.7408,-1.6822,-1.6971,-1.6978,-1.6978,-1.6978,-1.7496,-1.7739,-1.7583,-1.8609,-1.9065,-1.873,-1.9056,-1.9953,-2.1293,-2.1188,-2.1839,-2.3127,-2.4826,-2.6367,-2.7739,-2.7649,-2.7173,-2.6266,-2.6544,-2.595,-2.5035,-2.5361,-2.5132,-2.4614,-2.4795,-2.5203,-2.5338,0.0,0.0,0.0,0.0,0.0,0.0,0.0,0.0,0.0,0.0,0.0,0.0,0.0,0.0,0.0,0.0,-2.225,-2.0802,-1.8933,-1.8298,-1.7363,-1.5913,-1.542,-1.5119,-1.5058,-1.4156,-1.2662,-1.059,-0.9435,-0.7862,-0.5843,-0.5205,-0.4852,-0.4871,-0.4754,-0.5823,-0.773,-0.8261,-0.9649,-1.1375,-1.1233,-1.1693,-1.2515,-1.2227,-1.305,-1.4145,0.0,-1.3508,-1.3439,-1.2548,-1.2253,-1.218,-1.1168,-1.0941,-1.1002,-1.09,-1.0867,-1.09,-1.105,-1.1341,-1.1714,-1.2162,-1.2508,-1.2827,-1.3173,-1.337,-1.3444,-1.3349,-1.3363,-1.337,-1.3275,-1.3417,-1.362,-1.3817,-1.4265,-1.4692,-1.4997,-1.5772,-1.6248,-1.6198,-1.6568,-1.6722,-1.6645,-1.6457,-1.6558,-1.6809,-1.6924,-1.6978,-1.6978,-1.7188,-1.7322,-1.7576,-1.7785,-1.8184,-1.8551,-1.8576,-1.8826,-1.9482,-2.0597,-2.2035,-2.3722,-2.5297,-2.6265,-2.6809,-2.7271,-2.7179,-2.667,-2.6221,-2.5784,-2.5228,-2.5397,-2.5216,-2.4914,-2.5011,-2.5071,-2.5155,0.0,0.0,0.0,0.0,0.0,0.0,0.0,0.0,0.0,0.0,0.0,0.0,0.0,0.0,0.0,0.0,0.0,-2.2649,-2.0793,-1.9938,-1.8997,-1.7697,-1.6668,-1.6136,-1.612,-1.4767,-1.3106,-1.1158,-1.0023,-0.8554,-0.676,-0.6817,-0.6966,-0.7202,-0.7902,-0.8992,-1.0309,-1.0835,-1.1779,-1.3038,-1.261,-1.312,-1.4009,-1.367,-1.4433,0.0,-1.5615,-1.5991,-1.6254,-1.418,-1.3169,-1.2634,-1.1618,-1.0962,-1.0636,-1.0636,-1.0826,-1.107,-1.1274,-1.1653,-1.2101,-1.2556,-1.2854,-1.3098,-1.3342,-1.3437,-1.3397,-1.3301,-1.3639,-1.3663,-1.2998,-1.3383,-1.3648,-1.3282,-1.3736,-1.4278,-1.474,-1.5519,-1.6147,-1.6278,-1.6661,-1.6977,-1.7032,-1.6666,-1.6495,-1.6639,-1.6863,-1.6958,-1.6904,-1.6897,-1.7037,-1.7181,-1.7182,-1.735,-1.778,-1.7943,-1.8168,-1.8441,-1.9523,-2.1111,-2.2954,-2.3876,-2.48,-2.5713,-2.6169,-2.6309,-2.6228,-2.5713,-2.5385,-2.5144,-2.5144,-2.4987,-2.477,-2.4866,-2.4782,-2.4602,0.0,0.0,0.0,0.0,0.0,0.0,0.0,0.0,0.0,0.0,0.0,0.0,0.0,0.0,0.0,0.0,0.0,0.0,-2.4141,-2.2053,-2.0441,-1.9564,-1.7407,-1.6087,-1.5912,-1.478,-1.3377,-1.1728,-1.1606,-1.0904,-0.9577,-0.9655,-0.9933,-1.0573,-1.2467,-1.3467,-1.3882,-1.5329,-1.6175,-1.6382,-1.5555,-1.5499,-1.5738,-1.5145,-1.5931,-1.7302,-1.7174,-1.8098,-1.8933,-1.5855,-1.3772,-1.2578,-1.2586,-1.1644,-1.0507,-1.0521,-1.0839,-1.1253,-1.1565,-1.1979,-1.2427,-1.2861,-1.3078,-1.322,-1.3349,-1.335,-1.3355,-1.3488,-1.4439,-1.4794,-1.3355,-1.4082,-1.4465,-1.3193,-1.3234,-1.3715,-1.4441,-1.6077,-1.74,-1.7962,-1.822,-1.8667,-1.9287,-1.7712,-1.6545,-1.649,-1.6802,-1.6904,-1.6754,-1.6748,-1.6673,-1.6503,-1.6727,-1.6786,-1.6622,-1.7267,-1.7773,-1.8176,-1.8176,-1.9091,-2.0908,-2.0793,-2.2121,-2.4395,-2.4323,-2.4539,-2.4855,-2.4843,-2.4771,-2.4625,-2.4625,-2.4468,-2.4287,-2.454,-2.4299,-2.3868,0.0,0.0,0.0,0.0,0.0,0.0,0.0,0.0,0.0,0.0,0.0,0.0,0.0,0.0,0.0,0.0,0.0,0.0,-2.6989,-2.5865,-2.4519,-2.2811,-2.187,-2.0994,-2.0175,-1.8767,-1.7871,-1.7428,-1.6111,-1.5273,-1.4919,-1.5387,-1.5703,-1.5885,-1.7022,-1.7575,-1.7633,-1.7139,-1.7026,-1.6923,-1.5515,-1.5678,-1.6814,-1.6552,-1.7421,-1.881,-1.879,-1.9068,-1.8894,-1.5742,-1.2996,-1.0926,-1.1034,-1.086,-1.0704,-1.0928,-1.1233,-1.1592,-1.2006,-1.2447,-1.284,-1.3064,-1.3234,-1.3295,-1.3112,-1.415,-1.4987,-1.4494,-1.5562,-1.591,-1.4003,-1.4212,-1.4358,-1.3026,-1.36,-1.4414,-1.4936,-1.5769,-1.6245,-1.6173,-1.6576,-1.6803,-1.6796,-1.675,-1.6664,-1.6497,-1.67,-1.6788,-1.6754,-1.6748,-1.6578,-1.6205,-1.6316,-1.6293,-1.6287,-1.675,-1.7195,-1.7616,-1.7616,-1.7824,-1.8241,-1.9641,-2.0331,-2.041,-2.1336,-2.2364,-2.3355,-2.2676,-2.3349,-2.4625,-2.4625,-2.4589,-2.454,-2.4601,-2.4299,-2.382,0.0,0.0,0.0,0.0,0.0,0.0,0.0,0.0,0.0,0.0,0.0,0.0,0.0,0.0,0.0,0.0,0.0,0.0,0.0,-2.8482,-2.7353,-2.5721,-2.4506,-2.3588,-2.3008,-2.1652,-2.0999,-2.1096,-1.9674,-1.9184,-1.9611,-1.9485,-1.9679,-2.009,-2.0616,-2.0858,-2.0914,-2.0161,-1.9883,0.0,0.0,-1.7927,-1.8739,-1.8089,-1.8397,-1.9185,-1.9377,-1.855,-1.7102,-1.5335,-1.3278,-1.1258,-1.0781,-1.0738,-1.0975,-1.1274,-1.1626,-1.1999,-1.2379,-1.2766,-1.3091,-1.3234,-1.3288,-1.3363,-1.3785,-1.4509,-1.5253,-1.5444,-1.6629,-1.6828,-1.4218,-1.4727,-1.4838,-1.2832,-1.3376,-1.4272,-1.4991,-1.5364,-1.5622,-1.5784,-1.6265,-1.6701,-1.6627,-1.6926,-1.708,-1.7113,-1.6906,-1.6795,-1.6659,-1.6653,-1.6476,-1.6096,-1.5954,-1.5897,-1.6067,-1.6256,-1.6587,-1.7055,-1.7055,-1.7064,-1.6896,-1.7911,-1.8258,-1.8235,-1.8818,-1.9823,-2.1087,-2.136,-2.2273,-2.3686,-2.421,-2.4528,-2.4613,-2.4492,-2.419,-2.3784,0.0,0.0,0.0,0.0,0.0,0.0,0.0,0.0,0.0,0.0,0.0,0.0,0.0,0.0,0.0,0.0,0.0,0.0,0.0,0.0,-2.9503,-2.8155,-2.6277,-2.5143,-2.4872,-2.3837,-2.3398,-2.3643,-2.2546,-2.2454,-2.3311,-2.2275,-2.2247,-2.3131,-2.3282,-2.3445,-2.3623,-2.3298,-2.3255,-2.3272,-2.1402,-2.0813,-2.0918,0.0,-1.9133,-1.9118,-1.9256,-1.7504,-1.5094,-1.5042,-1.3878,-1.2243,-1.1146,-1.0995,-1.1314,-1.1619,-1.2013,-1.2413,-1.2712,-1.299,-1.3227,-1.3342,-1.3254,-1.3493,-1.4584,-1.4728,-1.5055,-1.6438,-1.7818,-1.7857,-1.4772,-1.5663,-1.5934,-1.3137,-1.3276,-1.406,-1.4967,-1.5153,-1.5493,-1.6171,-1.6661,-1.7097,-1.7409,-1.7437,-1.7397,-1.7663,-1.7259,-1.6822,-1.6537,-1.6483,-1.632,-1.6001,-1.5723,-1.5643,-1.5845,-1.5845,-1.6025,-1.6587,-1.6565,-1.6469,-1.6398,-1.6062,-1.6256,-1.6935,-1.6631,-1.7227,-1.8597,-1.9997,-2.1107,-2.1959,-2.3127,-2.3657,-2.3868,-2.3821,-2.3653,-2.352,0.0,0.0,0.0,0.0,0.0,0.0,0.0,0.0,0.0,0.0,-3.1862,-3.1716,0.0,0.0,0.0,0.0,0.0,0.0,0.0,0.0,0.0,-2.9349,-2.886,-2.7862,-2.6232,-2.5961,-2.5859,-2.5946,-2.4807,-2.4331,-2.4489,-2.3751,-2.3483,-2.3682,-2.4771,-2.5093,-2.4749,-2.4173,-2.3752,-2.3405,-2.2133,-2.1671,-2.1592,-2.0599,0.0,0.0,-1.9273,-1.7948,-1.6439,-1.5361,-1.3328,-1.1189,-1.1098,-1.1375,-1.1775,-1.2081,-1.24,-1.2718,-1.3017,-1.3227,-1.3336,-1.3241,-1.3105,-1.3282,-1.4101,-1.5407,-1.6649,-1.7487,-1.9071,-1.965,-1.7354,-1.7694,-1.7534,-1.5004,-1.5262,-1.5613,-1.5355,-1.5466,-1.5655,-1.59,-1.6141,-1.6332,-1.6633,-1.666,-1.6728,-1.6878,-1.6788,-1.6714,-1.653,-1.6293,-1.5967,-1.554,-1.5357,-1.5329,-1.5281,-1.5275,-1.5556,-1.6032,-1.5896,-1.5838,-1.5672,-1.5355,-1.4856,-1.4386,-1.433,-1.524,-1.6701,-1.7162,-1.8277,-1.9803,-1.9977,-2.0026,-2.0146,-2.1517,-2.1845,-2.1878,0.0,0.0,0.0,0.0,0.0,0.0,0.0,-3.5511,-3.5492,-3.6041,-3.4998,-3.4111,-3.3825,-3.2882,-3.2952,0.0,0.0,0.0,0.0,0.0,0.0,0.0,-3.0913,-2.9923,-2.8983,-2.8466,-2.8211,-2.8211,0.0,-2.5802,-2.5956,-2.4496,-2.3906,-2.4141,-2.4766,-2.4941,-2.4699,-2.4373,-2.4141,-2.3895,-2.2909,-2.2449,-2.2367,0.0,0.0,0.0,-1.9125,-1.7831,-1.6529,-1.6003,-1.4547,-1.2818,-1.1761,-1.1653,-1.2026,-1.2406,-1.2678,-1.2895,-1.3112,-1.3288,-1.3363,-1.3214,-1.2942,-1.3211,-1.4851,-1.5713,-1.6333,-1.7268,-1.8933,-1.936,-1.6636,-1.6765,-1.6626,-1.4809,-1.4422,-1.443,-1.4653,-1.4977,-1.5337,-1.5798,-1.6056,-1.6286,-1.6503,-1.6592,-1.6639,-1.6632,-1.6564,-1.649,-1.6415,-1.6056,-1.575,-1.554,-1.5303,-1.5181,-1.5181,-1.5181,-1.5275,-1.5556,-1.5403,-1.5209,-1.4972,-1.475,-1.4263,-1.3736,-1.381,-1.4223,-1.4994,-1.6095,-1.7111,-1.8202,-1.9751,-1.9854,-1.9333,-2.1856,-2.2059,-2.1464,0.0,0.0,0.0,0.0,0.0,0.0,0.0,-3.6806,-3.6985,-3.8422,-3.7666,-3.6306,-3.4517,-3.3261,-3.2981,0.0,0.0,0.0,0.0,0.0,0.0,0.0,0.0,0.0,-3.1204,0.0,0.0,-2.9443,-2.7464,0.0,0.0,0.0,0.0,0.0,-2.4238,-2.4238,-2.4141,-2.4238,-2.4219,0.0,0.0,-2.3297,-2.3244,0.0,0.0,0.0,0.0,-1.8154,-1.7098,-1.6611,-1.5928,-1.4945,-1.2856,-1.2352,-1.2515,-1.2852,-1.292,-1.2942,-1.3085,-1.3261,-1.3356,-1.3173,-1.3023,-1.3378,-1.521,-1.5795,-1.5981,-1.6388,-1.7919,-1.8304,-1.5335,-1.5269,-1.53,-1.4123,-1.3378,-1.3202,-1.3957,-1.4326,-1.4835,-1.5615,-1.5954,-1.6185,-1.6361,-1.649,-1.651,-1.6388,-1.6246,-1.6178,-1.6212,-1.5818,-1.5588,-1.5588,-1.5296,-1.5153,-1.5181,-1.5181,-1.5167,-1.5133,-1.4957,-1.4733,-1.4462,-1.4251,-1.396,-1.3634,-1.3749,-1.381,-1.3923,-1.5368,-1.6299,-1.7065,-1.9365,-1.9667,-1.9188,-2.212,-2.2282,-2.1399,0.0,0.0,0.0,0.0,0.0,0.0,0.0,-3.6537,-3.7165,-3.908,-3.796,-3.6937,-3.672,-3.5293,-3.4259,0.0,0.0,0.0,0.0,0.0,0.0,0.0,0.0,0.0,0.0,0.0,0.0,-2.8267,-2.7075,0.0,0.0,0.0,0.0,0.0,0.0,-2.3633,-2.3237,-2.3672,0.0,0.0,0.0,0.0,0.0,0.0,0.0,0.0,0.0,-1.9999,-1.9704,-1.7212,-1.6366,-1.6111,-1.4788,-1.4026,-1.3712,-1.3674,-1.3251,-1.2786,-1.2942,-1.3186,-1.3336,-1.3051,-1.3637,-1.4167,-1.3841,-1.5505,-1.668,-1.516,-1.6101,-1.6703,-1.4927,-1.4862,-1.4838,-1.3949,-1.3842,-1.3897,-1.3803,-1.3899,-1.4251,-1.514,-1.5391,-1.5608,-1.5886,-1.5927,-1.5934,-1.592,-1.5778,-1.5757,-1.5886,-1.5601,-1.5432,-1.5432,-1.5147,-1.5052,-1.5181,-1.5181,-1.512,-1.4984,-1.4692,-1.4468,-1.4306,-1.3885,-1.3668,-1.3627,-1.3641,-1.3722,-1.3838,-1.4009,-1.5034,-1.6544,-1.6344,-1.7159,-1.8532,-2.0352,-2.0978,-2.109,0.0,0.0,0.0,0.0,0.0,0.0,-3.7404,-3.6985,-3.7345,-3.9709,-3.9083,-3.845,-3.845,-3.7003,-3.5285,-3.3361,0.0,0.0,0.0,0.0,0.0,0.0,0.0,0.0,0.0,0.0,-3.0343,-2.8519,-2.7154,0.0,0.0,0.0,0.0,0.0,0.0,-2.3437,-2.3535,-2.3711,0.0,0.0,0.0,0.0,0.0,0.0,0.0,0.0,0.0,0.0,-1.9464,-1.7659,-1.6967,-1.6778,-1.6315,-1.5564,-1.4655,-1.3924,-1.4415,-1.5042,-1.4516,-1.5345,-1.6282,-1.6023,-1.5809,-1.5748,-1.6333,-1.6829,-1.6736,-1.4978,-1.5902,-1.6197,-1.3646,-1.3232,-1.3277,-1.315,-1.2433,-1.2058,-1.2422,-1.2657,-1.3207,-1.4373,-1.4652,-1.4997,-1.5662,-1.5723,-1.5723,-1.5723,-1.5669,-1.5662,-1.5723,-1.5438,-1.5276,-1.5276,-1.5079,-1.4997,-1.5052,-1.5059,-1.5025,-1.4964,-1.457,-1.4306,-1.415,-1.4143,-1.4084,-1.4006,-1.5187,-1.5809,-1.5964,-1.6828,-1.7571,-1.8211,-1.8928,-1.8928,-1.8727,-2.1408,-2.1771,-2.1333,0.0,0.0,0.0,0.0,0.0,-3.6028,-3.7584,-3.7225,-3.7554,-3.9828,-3.946,-3.9179,-3.9642,-3.7901,-3.5877,-3.3796,-3.2742,0.0,0.0,0.0,0.0,0.0,0.0,0.0,0.0,0.0,-3.0687,-2.8827,-2.7245,-2.6143,0.0,0.0,-2.3101,-2.3101,0.0,0.0,0.0,0.0,0.0,0.0,0.0,0.0,0.0,0.0,0.0,0.0,0.0,0.0,0.0,0.0,0.0,-1.7095,-1.7063,-1.6542,-1.5716,-1.4544,-1.5201,-1.6218,-1.5711,-1.6742,-1.7938,-1.7867,-1.7456,-1.7137,-1.7573,-1.739,-1.65,-1.4351,-1.4767,-1.4767,-1.1976,-1.1495,-1.1598,-1.183,-1.1082,-1.069,-1.1443,-1.1769,-1.2366,-1.3532,-1.377,-1.419,-1.5086,-1.5377,-1.552,-1.5567,-1.5527,-1.552,-1.5567,-1.5282,-1.516,-1.5248,-1.5025,-1.4923,-1.497,-1.497,-1.4923,-1.4828,-1.4428,-1.415,-1.4,-1.4145,-1.4433,-1.4886,-1.6192,-1.7255,-1.798,-1.8903,-1.9445,-1.9864,-2.0813,-2.0684,-2.0185,-2.2356,-2.263,-2.2007,0.0,0.0,0.0,0.0,0.0,0.0,-3.6417,-3.7015,-3.7883,-3.9224,-3.8583,-3.8631,-4.0196,-3.7754,-3.5985,-3.5956,-3.3029,0.0,0.0,0.0,0.0,0.0,0.0,0.0,0.0,0.0,-3.1378,-2.891,-2.7286,-2.6164,-2.5546,-2.3871,-2.3101,-2.312,0.0,0.0,0.0,0.0,0.0,0.0,0.0,0.0,0.0,0.0,0.0,0.0,0.0,0.0,0.0,0.0,0.0,0.0,0.0,-1.6914,-1.6964,-1.5943,-1.5432,-1.5356,-1.598,-1.6758,-1.7458,-1.7545,-1.8013,-1.8052,-1.643,-1.6498,-1.6019,-1.2853,-1.2217,-1.1736,-1.0119,-0.9822,-0.9869,-1.0025,-1.0181,-1.0541,-1.1287,-1.1525,-1.1904,-1.2657,-1.2745,-1.3098,-1.4,-1.4753,-1.5248,-1.5404,-1.5269,-1.5255,-1.5404,-1.5133,-1.5106,-1.5398,-1.4977,-1.4814,-1.497,-1.497,-1.4814,-1.4516,-1.4217,-1.3994,-1.3745,-1.3539,-1.4541,-1.6565,-1.6172,-1.7343,-1.9396,-1.8875,-1.9612,-2.1039,-2.0558,-2.148,-2.3019,-2.2754,-2.2995,-2.3339,0.0,0.0,0.0,0.0,0.0,0.0,0.0,-3.486,-3.5352,-3.6045,-3.6035,-3.6251,-3.7016,-3.5487,-3.4562,-3.4983,-3.3275,0.0,0.0,0.0,0.0,0.0,0.0,0.0,0.0,0.0,-3.0894,-2.9374,-2.8563,-2.755,-2.6469,-2.5339,-2.4537,-2.3958,-2.3848,-2.3945,0.0,0.0,0.0,0.0,0.0,0.0,-2.5693,0.0,0.0,0.0,0.0,0.0,0.0,0.0,0.0,0.0,0.0,0.0,0.0,-1.6497,-1.7126,-1.7878,-1.7554,-1.8605,-1.9784,-2.0039,-1.9864,-1.9435,-1.8932,-1.8717,-1.7681,-1.449,-1.3825,-1.2988,-1.0301,-0.9822,-0.9903,-1.0168,-1.0249,-1.0432,-1.0873,-1.124,-1.1775,-1.263,-1.3634,-1.4414,-1.4794,-1.5045,-1.5201,-1.5248,-1.5208,-1.5201,-1.5255,-1.5072,-1.5011,-1.5106,-1.4869,-1.476,-1.4814,-1.4706,-1.4557,-1.4367,-1.4061,-1.3838,-1.3688,-1.5059,-1.6016,-1.6828,-1.9033,-2.0538,-2.1474,-2.1978,-2.2453,-2.2912,-2.2574,-2.2733,-2.3133,-2.3164,-2.3188,-2.3188,0.0,0.0,0.0,0.0,0.0,0.0,0.0,-3.3571,-3.3945,-3.4187,-3.4046,-3.4371,-3.5485,-3.3843,-3.332,-3.4768,-3.3156,0.0,0.0,0.0,0.0,0.0,0.0,0.0,-3.1204,-3.1404,-3.1112,-3.0264,-2.9786,-2.8899,-2.7597,-2.6636,-2.553,-2.4414,-2.4316,-2.4414,0.0,0.0,0.0,0.0,0.0,0.0,-2.4196,0.0,0.0,0.0,0.0,0.0,0.0,0.0,0.0,0.0,0.0,0.0,0.0,0.0,-1.7702,-1.8603,-1.8529,-1.9463,-2.0585,-2.0965,-2.0088,-1.9187,-1.915,-1.7829,-1.6116,-1.4015,-1.3173,-1.2157,-1.0179,-0.9822,-0.9883,-1.0073,-1.0202,-1.0365,-1.0602,-1.1118,-1.1769,-1.2549,-1.377,-1.4577,-1.4665,-1.4984,-1.516,-1.5106,-1.5106,-1.5079,-1.5018,-1.4875,-1.4801,-1.4801,-1.476,-1.4713,-1.4652,-1.4557,-1.4764,-1.5162,-1.4901,-1.5116,-1.5615,-1.684,-1.7892,-1.8779,-2.0737,-2.2153,0.0,-2.3436,-2.3575,-2.3381,-2.3212,-2.3043,-2.2988,-2.2983,-2.3157,-2.3487,0.0,0.0,0.0,0.0,0.0,0.0,0.0,-3.3018,-3.3413,-3.334,-3.2627,-3.2905,-3.4947,-3.2751,-3.2193,-3.4849,0.0,0.0,0.0,0.0,0.0,0.0,0.0,0.0,-3.1172,-3.166,-3.1759,-3.1461,-3.0998,-3.0141,-2.888,-2.782,-2.6326,-2.457,-2.4941,-2.5117,-2.5137,-2.5431,-2.4786,-2.3683,-2.3583,-2.2818,0.0,0.0,0.0,0.0,0.0,0.0,0.0,0.0,0.0,0.0,0.0,0.0,0.0,0.0,0.0,0.0,0.0,-1.9501,-1.9954,-2.0381,-1.9072,-1.7575,-1.7357,-1.4751,0.0,-1.2039,-1.0898,-0.993,-0.9815,-0.9822,-0.9822,-0.9836,-1.0086,-1.0331,-1.0487,-1.1192,-1.1911,-1.2494,-1.3349,-1.3878,-1.3858,-1.4645,-1.5092,-1.4964,-1.4957,-1.4889,-1.4733,-1.459,-1.4502,-1.4482,-1.4618,-1.4624,-1.4482,-1.4558,-1.5278,-1.6685,-1.6694,-1.7449,-1.8827,-1.8793,-1.9917,-2.1867,-2.1523,-2.2362,-2.398,-2.3563,-2.3104,-2.2733,-2.2733,-2.2733,-2.2697,-2.2479,-2.3071,-2.3897,0.0,0.0,0.0,0.0,0.0,0.0,0.0,0.0,0.0,0.0,-3.1104,-3.136,-3.1177,-3.0522,-3.0547,0.0,0.0,0.0,0.0,0.0,0.0,0.0,0.0,0.0,-3.0736,-3.0863,-3.1301,-3.2014,-3.2336,-3.1536,-2.9684,-2.9566,-2.8206,-2.5918,-2.5684,-2.5586,-2.547,-2.4167,-2.3657,-2.3583,-2.2567,-2.1996,0.0,0.0,0.0,0.0,-2.0487,-1.9886,0.0,0.0,0.0,0.0,0.0,0.0,0.0,0.0,-1.7528,-1.7756,-1.8473,0.0,-1.8324,-1.7799,-1.7197,-1.6516,0.0,-1.4476,-1.3556,-1.2362,-1.1776,-1.1157,-1.0037,-0.9822,-0.9863,-0.9916,-1.0154,-1.0371,-1.0629,-1.1708,-1.2651,-1.3132,-1.3878,-1.4265,-1.4041,-1.4516,-1.4828,-1.4794,-1.4794,-1.4726,-1.457,-1.4529,-1.4407,-1.4183,-1.4211,-1.4211,-1.4177,-1.5436,-1.612,-1.6321,-1.7614,-1.8404,-1.8692,-2.0028,-2.0899,-2.1453,-2.2407,-2.3107,-2.3496,-2.3084,-2.2766,-2.2733,-2.2733,-2.2733,-2.2745,-2.3184,-2.3374,-2.3414,0.0,0.0,0.0,0.0,0.0,0.0,0.0,0.0,0.0,0.0,0.0,0.0,0.0,0.0,0.0,0.0,0.0,0.0,0.0,0.0,0.0,0.0,0.0,-3.0306,-3.0608,-3.1085,-3.1763,-3.2616,-3.342,-3.2527,-3.0088,-3.0476,-2.8983,-2.6074,-2.5791,-2.5693,-2.5625,-2.4676,-2.3699,-2.2717,-2.1996,0.0,0.0,0.0,0.0,0.0,-1.8968,-1.8655,0.0,-1.7832,-1.7582,-1.7555,0.0,0.0,0.0,0.0,-1.7582,-1.7569,-1.7367,-1.7148,-1.6942,-1.6672,-1.5451,-1.4134,-1.348,-1.275,-1.1972,-1.1188,-1.1009,-1.0733,-0.9923,-0.9876,-0.9889,-0.997,-1.029,-1.0656,-1.1158,-1.1918,-1.2691,-1.3417,-1.398,-1.4353,-1.4475,-1.4706,-1.4787,-1.4645,-1.4577,-1.4414,-1.4122,-1.4041,-1.3899,-1.3668,-1.3593,-1.3695,-1.3966,-1.567,-1.68,-1.7443,-1.9186,-2.0447,-2.1221,-2.2014,-2.2429,-2.2601,-2.3135,-2.3381,-2.3237,-2.2826,-2.2661,-2.2552,-2.2552,-2.2552,-2.2564,-2.3088,-2.3353,-2.3543,0.0,0.0,0.0,0.0,0.0,0.0,0.0,0.0,0.0,0.0,0.0,0.0,0.0,0.0,0.0,0.0,0.0,0.0,0.0,0.0,0.0,0.0,-3.0783,-3.0809,-3.0984,-3.1788,-3.2591,-3.3319,-3.4248,-3.3366,-3.0872,-3.116,-2.9354,-2.5888,-2.5888,-2.581,-2.5693,-2.5479,-2.3949,-2.1693,-2.144,0.0,0.0,0.0,0.0,0.0,0.0,0.0,0.0,-1.7582,-1.7582,-1.7582,-1.7582,0.0,0.0,0.0,0.0,0.0,-1.6229,-1.5803,-1.5678,-1.5739,-1.3729,-1.1744,-1.1628,-1.0583,-0.9612,-0.9612,-0.9707,-0.9795,-0.9815,-0.9883,-0.9997,-1.0017,-1.05,-1.1097,-1.1891,-1.2176,-1.263,-1.3526,-1.3933,-1.4312,-1.4753,-1.4821,-1.4726,-1.4462,-1.4292,-1.4021,-1.3614,-1.3451,-1.3295,-1.3146,-1.3024,-1.3214,-1.3736,-1.5755,-1.7455,-1.8808,-2.0868,-2.269,-2.4166,-2.3868,-2.388,-2.4142,-2.3623,-2.3237,-2.3036,-2.2782,-2.2515,-2.2211,-2.2247,-2.2358,-2.2394,-2.2794,-2.3329,-2.3895,0.0,0.0,0.0,0.0,0.0,0.0,0.0,0.0,0.0,0.0,0.0,0.0,0.0,0.0,0.0,0.0,0.0,0.0,0.0,0.0,0.0,-3.1964,-3.1512,-3.1712,-3.2692,-3.239,-3.2943,-3.4474,-3.465,-3.4391,-3.3714,-3.2632,-3.022,-2.6816,-2.6816,-2.6376,-2.5645,-2.451,-2.3117,-2.1592,-2.0385,0.0,0.0,0.0,0.0,0.0,0.0,0.0,0.0,-1.7582,-1.7582,-1.7582,-1.7582,0.0,0.0,0.0,0.0,0.0,-1.6229,-1.5345,-1.4323,-1.2655,-1.2029,-1.1461,-1.0128,-0.9686,-0.9612,-0.9612,-0.9625,-0.968,-0.9795,-0.9883,-1.0031,-1.0222,-1.0833,-1.164,-1.2644,-1.3132,-1.3451,-1.3607,-1.4109,-1.4333,-1.4041,-1.4136,-1.419,-1.4143,-1.3885,-1.3648,-1.3444,-1.3288,-1.3146,-1.2996,-1.2969,-1.3064,-1.3275,-1.6512,-1.8279,-1.8673,-2.1945,-2.3579,-2.382,-2.3784,-2.3784,-2.3796,-2.3333,-2.3036,-2.277,-2.2503,-2.2162,-2.1957,-2.2174,-2.2479,-2.2712,-2.3154,-2.3542,-2.3895,0.0,0.0,0.0,0.0,0.0,0.0,0.0,0.0,0.0,0.0,0.0,0.0,0.0,0.0,0.0,0.0,0.0,0.0,0.0,0.0,-3.2444,-3.3075,-3.2893,-3.2842,-3.3111,-3.3093,-3.3947,-3.5604,-3.5604,-3.5369,-3.4865,-3.1955,-2.9216,-2.666,-2.6426,-2.6064,-2.5674,-2.4822,-2.3386,-2.161,0.0,0.0,0.0,0.0,0.0,0.0,0.0,0.0,0.0,0.0,-1.7582,-1.7582,-1.7582,0.0,0.0,0.0,0.0,0.0,-1.5078,-1.4214,-1.3382,-1.0988,-1.0799,-1.1064,-1.041,-1.0156,-1.0066,-0.9985,-0.9971,-0.9964,-0.9944,-1.0202,-1.0595,-1.1151,-1.1599,-1.2074,-1.2637,-1.2963,-1.3261,-1.3593,-1.3939,-1.4163,-1.4197,-1.4122,-1.4007,-1.3844,-1.3553,-1.3281,-1.3051,-1.2969,-1.2868,-1.2718,-1.2793,-1.2908,-1.3057,-1.6656,-1.8499,-1.8626,-2.2131,-2.3925,-2.4045,-2.3913,-2.376,-2.3804,-2.3128,-2.2834,-2.2717,-2.2534,-2.2423,-2.2545,-2.2818,-2.2769,-2.2645,-2.2875,-2.3391,-2.4066,0.0,0.0,0.0,0.0,0.0,0.0,0.0,0.0,0.0,0.0,0.0,0.0,0.0,0.0,0.0,0.0,0.0,0.0,0.0,-3.1078,-3.2031,-3.2959,-3.3081,-3.3301,-3.3671,-3.3612,-3.4558,-3.6606,-3.6248,-3.5868,-3.5439,-3.1962,-2.9216,-2.7192,-2.6379,-2.5869,-2.5674,-2.5371,-2.3852,-2.1644,0.0,0.0,0.0,0.0,0.0,0.0,0.0,0.0,0.0,0.0,0.0,0.0,0.0,0.0,0.0,-1.7582,-1.7582,-1.7041,-1.4502,-1.3782,-1.3125,-1.0663,-1.0318,-1.0566,-1.0819,-1.0688,-1.048,-1.0446,-1.0439,-1.0378,-1.0188,-1.0493,-1.1056,-1.1918,-1.225,-1.2494,-1.2773,-1.2976,-1.3281,-1.3777,-1.3905,-1.4068,-1.438,-1.4109,-1.3804,-1.3539,-1.3207,-1.2915,-1.2691,-1.2644,-1.2576,-1.2454,-1.263,-1.2958,-1.3589,-1.6773,-1.8499,-1.8626,-2.2131,-2.3832,-2.4045,-2.376,-2.3719,-2.3623,-2.3101,-2.2765,-2.267,-2.2607,-2.2702,-2.2955,-2.3098,-2.2974,-2.2699,-2.2701,-2.3327,-2.4115,0.0,0.0,0.0,0.0,0.0,0.0,0.0,0.0,0.0,0.0,0.0,0.0,0.0,0.0,0.0,0.0,0.0,0.0,0.0,-2.969,-3.016,-3.0253,-3.0703,-3.2323,-3.5261,-3.3542,-3.4074,-3.7136,-3.5744,-3.5387,-3.5938,-3.436,-3.2229,-2.9551,-2.7752,-2.6484,-2.5693,-2.5654,-2.4128,-2.166,-2.1313,0.0,0.0,0.0,0.0,0.0,0.0,0.0,0.0,0.0,0.0,0.0,0.0,0.0,-1.7582,-1.7582,-1.7582,-1.7252,-1.5689,-1.4844,-1.4051,-1.2507,-1.0858,-0.9862,-1.0429,-1.0493,-1.0568,-1.0846,-1.0833,-1.0812,-1.0514,-1.0717,-1.1179,-1.1938,-1.242,-1.2942,-1.3648,-1.4,-1.4251,-1.4428,-1.434,-1.4224,-1.4116,-1.3709,-1.3383,-1.322,-1.28,-1.2542,-1.2522,-1.2393,-1.2318,-1.2305,-1.2583,-1.3584,-1.54,-1.7412,-1.8499,-1.8626,-2.2131,-2.3652,-2.3435,-2.3411,-2.3345,-2.3157,-2.316,-2.288,-2.2472,-2.2825,-2.2806,-2.265,-2.2675,-2.2891,-2.3151,-2.3125,-2.3424,-2.3834,0.0,0.0,0.0,0.0,0.0,0.0,0.0,0.0,0.0,0.0,0.0,0.0,0.0,0.0,0.0,0.0,0.0,0.0,0.0,-2.8074,-2.9183,-3.0513,-3.0737,-3.1692,-3.3494,-3.2722,-3.3365,-3.5455,-3.5258,-3.4555,-3.3365,-3.255,-3.0726,-2.8025,-2.7069,-2.6289,-2.5674,-2.5449,-2.4414,-2.2815,-2.1408,-1.9912,0.0,0.0,0.0,0.0,0.0,0.0,0.0,0.0,-1.7582,-1.7582,-1.7582,-1.7582,-1.7582,-1.7582,-1.7582,-1.7252,-1.5796,-1.5539,-1.5295,-1.3819,-1.3135,-1.2543,-1.1519,-1.1193,-1.1172,-1.1097,-1.1301,-1.1375,-1.0982,-1.1307,-1.1762,-1.2142,-1.2732,-1.3281,-1.3654,-1.3885,-1.4034,-1.4089,-1.3966,-1.3824,-1.3668,-1.3336,-1.3024,-1.2773,-1.2515,-1.2706,-1.3567,-1.2696,-1.3086,-1.5127,-1.446,-1.4975,-1.6798,-1.8858,-1.9802,-1.9761,-2.2465,-2.3787,-2.3769,-2.3769,-2.368,-2.3541,-2.3417,-2.3239,-2.3177,-2.3323,-2.3372,-2.3327,-2.2917,-2.3098,-2.3514,-2.285,-2.2977,-2.3541,0.0,0.0,0.0,0.0,0.0,0.0,0.0,0.0,0.0,0.0,0.0,0.0,0.0,0.0,0.0,0.0,0.0,0.0,-2.5612,-2.6542,-2.7833,-2.959,-2.9833,-3.0299,-3.1223,-3.1343,-3.2302,-3.4196,-3.492,-3.4372,-3.2642,-3.1614,-3.0098,-2.8233,-2.7078,-2.6426,-2.6064,-2.5664,-2.4819,-2.3579,-2.2073,-2.0622,0.0,0.0,0.0,0.0,0.0,0.0,0.0,0.0,-1.7582,-1.7582,-1.7582,-1.7582,-1.7582,-1.7582,-1.7649,-1.7516,-1.6476,-1.6253,-1.61,-1.5272,-1.5001,-1.4472,-1.2772,-1.2337,-1.2187,-1.1865,-1.1753,-1.1674,-1.1362,-1.1606,-1.1932,-1.2176,-1.284,-1.3363,-1.3471,-1.3654,-1.3756,-1.3709,-1.3986,-1.3998,-1.3357,-1.3465,-1.3483,-1.3132,-1.3007,-1.3506,-1.4914,-1.404,-1.4564,-1.6889,-1.6103,-1.6563,-1.8386,-1.9928,-2.0797,-2.1123,-2.2804,-2.3634,-2.3609,-2.3523,-2.3504,-2.3503,-2.3385,-2.3374,-2.3484,-2.3537,-2.3541,-2.3487,-2.3249,-2.3249,-2.3434,-2.2743,-2.2786,-2.322,0.0,0.0,0.0,0.0,0.0,0.0,0.0,0.0,0.0,0.0,0.0,0.0,0.0,0.0,0.0,0.0,0.0,0.0,-2.4487,-2.5234,-2.6113,-2.6973,-2.7474,-2.81,-2.8906,-2.9355,-3.0949,-3.3779,-3.4741,-3.5019,-3.4504,-3.2169,-3.1106,-3.0937,-2.8233,-2.7012,-2.6973,-2.6562,-2.5351,-2.3696,-2.3414,-2.1844,-1.9553,0.0,0.0,0.0,0.0,0.0,0.0,0.0,-1.7582,-1.7582,-1.7582,-1.7582,-1.7582,-1.7582,-1.7796,-1.7995,-1.7995,-1.7182,-1.6428,-1.6891,-1.6078,-1.4968,-1.399,-1.3819,-1.3658,-1.3184,-1.2331,-1.1619,-1.1619,-1.1497,-1.1538,-1.1986,-1.2678,-1.3166,-1.3166,-1.3431,-1.3566,-1.341,-1.4712,-1.495,-1.321,-1.415,-1.4786,-1.4533,-1.4277,-1.48,-1.6309,-1.6381,-1.6538,-1.6819,-1.7086,-1.816,-2.0222,-2.0315,-2.1179,-2.2721,-2.3013,-2.3028,-2.2757,-2.2497,-2.2666,-2.3019,-2.3171,-2.3197,-2.3184,-2.3236,-2.3153,-2.2995,-2.3527,-2.3394,-2.2928,-2.2928,-2.2928,-2.2968,0.0,0.0,0.0,0.0,0.0,0.0,0.0,0.0,0.0,0.0,0.0,0.0,0.0,0.0,0.0,0.0,0.0,0.0,-2.7473,-2.7338,-2.7564,-2.8234,-2.8389,-2.849,-2.8457,-2.9199,-3.0135,-3.1253,-3.1574,-3.1309,-3.0629,-3.1266,-3.0574,-2.8745,-2.927,-2.8411,-2.6562,-2.6445,-2.5885,-2.5001,-2.3969,-2.2969,-2.1792,0.0,0.0,0.0,0.0,0.0,0.0,0.0,0.0,0.0,-1.7582,-1.7582,-1.7582,-1.7582,-1.7649,-1.7769,-1.7929,-1.8066,-1.7944,-1.7066,-1.696,-1.6518,-1.4361,-1.3993,-1.3823,-1.2745,-1.2039,-1.1619,-1.1619,-1.166,-1.1714,-1.1742,-1.2284,-1.2739,-1.2847,-1.303,-1.3098,-1.2949,-1.4207,-1.4812,-1.4099,-1.5311,-1.6046,-1.5848,-1.5732,-1.6324,-1.7743,-1.6803,-1.7318,-1.9712,-1.8849,-1.9187,-2.1079,-2.1324,-2.1707,-2.219,-2.2337,-2.2532,-2.2926,-2.3143,-2.3469,-2.3832,-2.3898,-2.3931,-2.3891,-2.3457,-2.3394,-2.3474,-2.3233,-2.3153,-2.3166,-2.2939,-2.2928,-2.2968,0.0,0.0,0.0,0.0,0.0,0.0,0.0,0.0,0.0,0.0,-3.296,-3.2246,0.0,0.0,0.0,0.0,0.0,0.0,0.0,-2.8454,-2.8652,-2.9596,-2.907,-2.8707,-2.8516,-2.9043,-2.9434,-2.9687,-3.0019,-2.9766,-2.8926,-3.0273,-3.0051,-2.8491,-2.9621,-2.946,-2.8237,-2.8056,-2.7512,-2.6689,-2.5898,-2.4651,-2.3059,0.0,0.0,0.0,0.0,0.0,0.0,0.0,0.0,0.0,-1.7582,-1.7582,-1.7609,-1.7729,-1.7407,-1.7089,-1.7426,-1.7399,-1.7126,-1.6497,-1.6757,-1.6688,-1.4684,-1.3891,-1.3351,-1.2498,-1.1979,-1.1701,-1.1701,-1.2228,-1.2598,-1.2568,-1.3506,-1.4015,-1.3447,-1.3516,-1.3559,-1.3392,-1.4654,-1.552,-1.5325,-1.6618,-1.7392,-1.7253,-1.7235,-1.7845,-1.9262,-1.8401,-1.8931,-2.1052,-2.019,-2.0318,-2.1474,-2.1679,-2.1834,-2.1864,-2.1936,-2.2185,-2.2737,-2.295,-2.3437,-2.4035,-2.4035,-2.3901,-2.3647,-2.342,-2.3354,-2.338,-2.314,-2.3086,-2.3113,-2.2926,-2.2928,-2.2886,0.0,0.0,-3.1673,-3.3485,0.0,0.0,0.0,0.0,0.0,0.0,-3.4036,-3.3921,0.0,0.0,0.0,0.0,0.0,0.0,0.0,0.0,-2.9716,-3.1021,-2.9796,-2.9096,-2.9046,-2.905,-2.8996,-2.8867,-2.9687,-2.9668,-2.8867,-2.9502,-2.9718,-2.9567,-2.9718,-3.0158,-3.0724,-3.0245,-2.9358,-2.8286,-2.8244,-2.6477,-2.3696,-2.2004,0.0,0.0,0.0,0.0,0.0,0.0,0.0,0.0,-1.7528,-1.7542,-1.7609,-1.7862,-1.7144,-1.6337,-1.6681,-1.5867,-1.5054,-1.5366,-1.56,-1.5491,-1.4726,-1.3514,-1.2582,-1.2498,-1.2236,-1.2049,-1.2195,-1.3282,-1.4143,-1.4244,-1.5653,-1.6202,-1.4703,-1.4612,-1.4661,-1.4473,-1.592,-1.6946,-1.679,-1.8135,-1.8938,-1.8784,-1.8671,-1.9181,-2.0596,-2.0665,-2.0774,-2.1086,-2.1098,-2.1207,-2.1437,-2.1478,-2.1542,-2.1562,-2.168,-2.1984,-2.234,-2.234,-2.2875,-2.3728,-2.3728,-2.342,-2.2926,-2.318,-2.3113,-2.2886,-2.318,-2.3113,-2.2928,-2.2928,-2.2928,-2.2928,0.0,0.0,-3.0649,-3.2289,0.0,0.0,0.0,0.0,0.0,0.0,0.0,0.0,0.0,0.0,0.0,0.0,0.0,0.0,0.0,0.0,-3.1748,-3.2301,-3.1811,-3.1062,-3.0004,-3.0355,-2.9863,-2.8437,-2.8945,-2.8926,-2.8437,-3.0418,-3.0492,-2.9137,-3.0642,-3.0411,-2.886,-2.8443,-2.7887,-2.7291,-2.6953,-2.6212,-2.5042,-2.3051,-2.1473,0.0,0.0,0.0,0.0,0.0,0.0,0.0,-1.7219,-1.73,-1.7353,-1.7595,-1.7621,-1.7427,-1.6596,-1.6389,-1.5959,-1.4116,-1.3292,-1.2874,-1.2798,-1.2783,-1.3009,-1.3762,-1.3753,-1.4002,-1.5154,-1.5569,-1.5655,-1.5701,-1.6127,-1.6348,-1.6012,-1.604,-1.6094,-1.5958,-1.7303,-1.8174,-1.8007,-1.9363,-2.025,-2.025,-2.0203,-2.0388,-2.0665,-2.0665,-2.0759,-2.075,-2.082,-2.0816,-2.0946,-2.0953,-2.1145,-2.1456,-2.1473,-2.1831,-2.2377,-2.2377,-2.2777,-2.342,-2.342,-2.334,-2.3207,-2.3033,-2.2926,-2.2941,-2.2939,-2.2926,-2.2928,-2.2928,-2.2928,-2.2928,0.0,0.0,0.0,0.0,0.0,0.0,0.0,0.0,0.0,0.0,0.0,0.0,0.0,-3.5415,0.0,0.0,-3.4986,-3.4848,-3.4733,-3.3892,-3.3169,-3.2721,-3.3115,-3.2655,-3.1286,-3.0872,-3.0212,-2.925,-2.8818,-2.8613,-2.8613,-3.0063,-3.0309,-2.9607,-3.0585,-3.0634,-2.9857,-2.9432,-2.8917,-2.8289,-2.8066,-2.7182,-2.5829,-2.3955,-2.2547,-2.1254,-1.8986,0.0,0.0,0.0,0.0,0.0,0.0,0.0,-1.7021,-1.7448,-1.7158,-1.652,-1.5816,-1.5326,-1.4785,-1.4117,-1.4354,-1.4815,-1.484,-1.507,-1.5566,-1.6846,-1.5595,-1.4665,-1.6016,-1.6915,-1.7409,-1.7198,-1.791,-1.8201,-1.7278,-1.7238,-1.7339,-1.7439,-1.8227,-1.9093,-1.9959,-2.0723,-2.122,-2.122,-2.0958,-2.0747,-2.0747,-2.05,-2.0352,-2.0472,-2.0556,-2.0681,-2.0997,-2.1074,-2.127,-2.1658,-2.1516,-2.1727,-2.2231,-2.2659,-2.2953,-2.3113,-2.326,-2.3247,-2.3086,-2.2926,-2.2928,-2.2928,-2.2928,-2.2928,-2.2928,-2.2928,-2.2928,-2.2928,0.0,0.0,0.0,0.0,0.0,0.0,0.0,0.0,0.0,0.0,0.0,0.0,0.0,-3.6927,-3.6997,0.0,0.0,0.0,-3.5305,-3.5042,-3.447,-3.3368,-3.4246,-3.4068,-3.2682,-3.1593,-3.0773,-3.0307,-2.9197,-2.875,-2.9043,-2.9394,-2.9785,-3.0195,-3.0117,-3.0538,-3.1236,-3.0752,-3.0109,-2.9455,-2.9372,-2.8218,-2.6326,-2.4796,-2.359,-2.2422,-1.994,-1.8684,-1.806,-1.7058,0.0,0.0,0.0,0.0,-1.674,-1.7275,-1.6594,-1.5514,-1.5081,-1.4205,-1.3669,-1.4846,-1.6401,-1.7757,-1.7798,-1.7879,-1.8299,-1.9796,-1.7549,-1.5717,-1.6836,-1.839,-1.9379,-1.9041,-2.0081,-2.0323,-1.8788,-1.855,-1.8607,-1.9005,-1.9266,-2.0027,-2.1622,-2.176,-2.1816,-2.1696,-2.1207,-2.0854,-2.0816,-2.0337,-2.0179,-2.0398,-2.0459,-2.0759,-2.1196,-2.1363,-2.1554,-2.187,-2.17,-2.1777,-2.2084,-2.2886,-2.31,-2.2873,-2.314,-2.3073,-2.2792,-2.2914,-2.2901,-2.2792,-2.2914,-2.2928,-2.2928,-2.2928,-2.2928,-2.2928,0.0,0.0,0.0,0.0,0.0,0.0,0.0,0.0,0.0,0.0,-3.5139,-3.6048,-3.597,-3.7811,-3.8775,-3.8126,-3.7746,-3.751,-3.7396,0.0,0.0,-3.5843,-3.6008,-3.5523,-3.4141,-3.392,-3.2705,-3.0307,-3.012,-2.9835,-2.9492,-2.9607,-2.9785,-3.0176,-2.9824,-2.9721,-2.9846,-2.9036,-2.8568,-2.8483,-2.8107,-2.757,-2.6785,-2.5838,-2.4522,-2.3123,-2.2328,-2.0551,-1.8581,-1.8434,-1.7471,0.0,0.0,0.0,-1.6393,-1.6727,-1.7027,-1.6959,-1.5693,-1.5154,-1.5218,-1.6114,-1.693,-1.7489,-1.7757,-1.8089,-1.8659,-1.9878,-1.9437,-1.9298,-2.078,-2.1276,-2.1415,-2.1346,-2.1258,-2.1137,-2.0866,-2.0655,-2.0605,-2.0909,-2.0959,-2.122,-2.1747,-2.176,-2.1658,-2.1416,-2.1298,-2.1104,-2.093,-2.0826,-2.0747,-2.0784,-2.0813,-2.1025,-2.1368,-2.1356,-2.1477,-2.167,-2.1844,-2.2084,-2.2378,-2.2752,-2.2899,-2.2928,-2.2968,-2.2752,-2.2498,-2.2752,-2.2712,-2.2498,-2.2766,-2.2928,-2.2928,-2.2928,-2.2928,-2.2928,0.0,0.0,0.0,0.0,0.0,0.0,0.0,0.0,0.0,0.0,0.0,-3.5806,-3.6351,-3.7666,-3.8465,-3.8417,-3.8595,-3.8435,-3.7843,-3.6838,-3.6305,-3.6305,-3.6376,-3.6121,-3.5523,-3.4775,-3.3403,-3.1418,-3.0669,-2.9946,-2.9199,-2.9199,-2.9707,-3.0547,-2.9883,-2.9626,-2.9567,-2.8652,-2.8301,-2.8281,-2.8086,-2.7721,-2.7196,-2.6906,-2.6032,-2.4783,-2.3926,-2.261,-2.103,-1.9555,-1.8469,-1.752,-1.672,0.0,0.0,0.0,-1.6647,-1.678,-1.6459,-1.6527,-1.7077,-1.8281,-1.9408,-2.0279,-2.0614,-2.0825,-2.1044,-2.154,-2.0837,-2.0491,-2.1622,-2.1966,-2.1984,-2.1556,-2.1437,-2.126,-2.0908,-2.078,-2.0808,-2.1134,-2.1275,-2.1497,-2.1882,-2.1895,-2.1843,-2.1725,-2.1369,-2.1082,-2.0966,-2.0617,-2.0539,-2.0691,-2.0682,-2.1072,-2.1648,-2.1752,-2.1881,-2.2117,-2.2217,-2.2205,-2.2191,-2.2485,-2.2699,-2.2914,-2.2686,-2.2539,-2.2418,-2.2392,-2.2298,-2.2205,-2.2498,-2.2619,-2.2632,-2.2806,-2.2928,-2.2928,0.0,0.0,0.0,0.0,0.0,0.0,0.0,0.0,0.0,0.0,0.0,-3.5344,-3.6514,0.0,0.0,0.0,-3.911,-3.9003,-3.8045,-3.692,-3.6384,-3.6516,-3.6453,-3.6405,-3.6405,-3.5427,-3.4068,-3.228,-3.1265,-3.0139,-2.8926,-2.8926,-2.9512,-3.0527,-2.9863,-2.9685,-2.9668,-2.8809,-2.8457,-2.8437,-2.8223,-2.7832,-2.7317,-2.7349,-2.6811,-2.5908,-2.5208,-2.4349,-2.3198,-2.1393,-2.0232,-1.9281,-1.7983,-1.7197,0.0,0.0,0.0,-1.6457,-1.7081,-1.7551,-1.8304,-1.9928,-2.1215,-2.2243,-2.2768,-2.2889,-2.2902,-2.2914,-2.1902,-2.1152,-2.1371,-2.1645,-2.1624,-2.1007,-2.1262,-2.132,-2.0709,-2.067,-2.0735,-2.0993,-2.1306,-2.1569,-2.1977,-2.1991,-2.1951,-2.1884,-2.141,-2.1136,-2.1057,-2.0592,-2.0451,-2.0786,-2.0847,-2.1221,-2.2054,-2.211,-2.2216,-2.2504,-2.2257,-2.2124,-2.1991,-2.2205,-2.2432,-2.2632,-2.2405,-2.2271,-2.2191,-2.2044,-2.1937,-2.1897,-2.2191,-2.2311,-2.2338,-2.2645,-2.2752,-2.2766,0.0,0.0,0.0,0.0,0.0,0.0,0.0,0.0,0.0,0.0,0.0,-3.4486,-3.6062,-3.7147,-3.8219,-3.9241,-3.9409,-3.9143,-3.8611,-3.7137,-3.6542,-3.7051,-3.6611,0.0,-3.6405,-3.631,-3.4993,-3.228,-3.223,-3.1059,-2.8926,-2.8926,-2.918,-2.9704,-2.959,-2.9785,-3.0117,-2.9258,-2.8887,-2.8809,-2.8027,-2.7422,-2.6973,-2.6602,-2.6152,-2.5801,-2.6181,-2.5409,-2.426,-2.4587,-2.3391,-2.1661,-2.1114,-1.9667,-1.8103,0.0,0.0,0.0,-1.7343,-1.7782,-1.8435,-2.0245,-2.0978,-2.156,-2.2642,-2.2902,-2.293,-2.2874,-2.2564,-2.196,-2.073,-2.0391,-2.0238,-2.0026,-2.0901,-2.147,-2.1112,-2.1072,-2.1072,-2.1072,-2.139,-2.1683,-2.1964,-2.1991,-2.1871,-2.1655,-2.1563,-2.143,-2.1086,-2.1059,-2.1172,-2.1502,-2.1551,-2.1892,-2.253,-2.2259,-2.2216,-2.2504,-2.1919,-2.1802,-2.1991,-2.2004,-2.2017,-2.2031,-2.2017,-2.1857,-2.1681,-2.1884,-2.1817,-2.1668,-2.1897,-2.2004,-2.2044,-2.2338,-2.2445,-2.2485,0.0,0.0,0.0,0.0,0.0,0.0,0.0,0.0,0.0,0.0,0.0,0.0,0.0,-3.5561,-3.62,-3.7252,-3.7367,-3.743,-3.7618,-3.6814,-3.6525,-3.7103,-3.6636,-3.6405,-3.6405,-3.5571,-3.4215,-3.228,-3.1418,-3.0151,-2.8516,-2.8516,-2.875,-2.916,-2.9453,-2.9492,-2.9355,-2.9043,-2.8769,-2.8496,-2.8184,-2.7741,-2.7306,-2.7513,-2.7373,-2.7092,-2.7673,-2.7422,-2.6653,-2.5882,-2.4891,-2.3615,-2.2114,-2.0982,-1.9845,-1.8176,-1.7446,-1.7232,-1.7337,-1.7389,-1.7889,-1.9464,-2.0369,-2.1081,-2.1902,-2.1857,-2.2018,-2.3051,-2.1574,-2.0166,-2.0701,-2.1114,-2.0971,-1.9813,-2.0759,-2.1443,-2.1149,-2.1109,-2.1109,-2.1109,-2.1203,-2.1309,-2.1416,-2.1416,-2.144,-2.1588,-2.1397,-2.1407,-2.174,-2.1551,-2.1551,-2.1929,-2.1915,-2.216,-2.2588,-2.2659,-2.2765,-2.2863,-2.2637,-2.2363,-2.2035,-2.2035,-2.1862,-2.1416,-2.1416,-2.147,-2.1614,-2.1713,-2.1683,-2.1615,-2.1913,-2.2035,-2.2089,-2.2311,-2.2418,-2.2458,0.0,0.0,0.0,0.0,0.0,-3.1461,-3.2365,-3.2667,-3.2993,-3.3545,0.0,0.0,0.0,0.0,-3.5289,-3.6132,-3.5894,-3.5926,-3.6552,-3.6075,-3.6022,-3.6548,-3.6451,-3.6405,-3.6405,-3.5351,-3.3952,-3.228,-3.1215,-2.987,-2.8281,-2.8144,-2.8301,-2.8711,-2.9004,-2.9141,-2.9121,-2.8984,-2.8769,-2.8476,-2.8203,-2.7917,-2.772,-2.8015,-2.8022,-2.8038,-2.8529,-2.8549,-2.8167,-2.7338,-2.6536,-2.5643,-2.4047,-2.2586,-2.11,-1.9098,-1.8412,-1.8194,-1.7548,-1.7414,-1.7715,-1.8741,-1.9496,-2.025,-2.1231,-2.0985,-2.1046,-2.2835,-2.108,-1.961,-2.0676,-2.1463,-2.1552,-1.9973,-2.0863,-2.1679,-2.1379,-2.1357,-2.1384,-2.1289,-2.1357,-2.1425,-2.1425,-2.133,-2.1339,-2.1575,-2.1388,-2.1464,-2.1888,-2.1797,-2.1915,-2.223,-2.2355,-2.2543,-2.2793,-2.2884,-2.2921,-2.2935,-2.275,-2.2479,-2.2107,-2.2107,-2.1869,-2.1425,-2.1425,-2.147,-2.1582,-2.1633,-2.1677,-2.1817,-2.2024,-2.2043,-2.1984,-2.2322,-2.2338,-2.2325,0.0,-3.1797,-3.1955,-3.143,-3.1755,-3.2289,-3.2907,-3.3502,-3.4053,-3.456,0.0,0.0,0.0,0.0,0.0,-3.6068,-3.5224,-3.4899,-3.541,-3.4996,-3.4906,-3.5458,-3.6031,-3.638,-3.638,-3.5784,-3.4437,-3.2381,-3.1761,-3.0376,-2.8335,-2.7924,-2.7943,-2.8281,-2.8281,-2.873,-2.9548,-2.9082,-2.8926,-2.8848,-2.8027,-2.793,-2.8242,-2.7851,-2.8002,-2.8354,-2.8621,-2.8694,-2.8747,-2.9046,-2.8517,-2.7663,-2.7003,-2.4651,-2.1831,-2.0572,-1.9886,-1.9347,0.0,0.0,0.0,-1.8119,-1.8342,-1.9016,-2.0729,-2.0279,-2.0089,-2.2079,-2.1432,-2.045,-2.0592,-2.1397,-2.1727,-2.0436,-2.1272,-2.2006,-2.1774,-2.1922,-2.2006,-2.176,-2.1922,-2.2104,-2.2104,-2.1762,-2.1581,-2.1628,-2.1581,-2.1581,-2.1642,-2.1936,-2.2292,-2.2591,-2.2918,-2.3106,-2.3076,-2.2779,-2.2591,-2.2577,-2.2278,-2.209,-2.209,-2.2104,-2.2104,-2.2104,-2.2104,-2.1915,-2.1614,-2.1614,-2.179,-2.2104,-2.2104,-2.1929,-2.1696,-2.2285,-2.232,-2.215,-3.07,-3.0772,-3.0563,-2.9555,-2.9517,-2.9887,-3.072,-3.1822,-3.2793,0.0,0.0,0.0,-3.4921,-3.4583,-3.4408,-3.453,-3.4272,-3.4175,-3.4328,-3.4578,-3.4801,-3.4906,-3.5433,-3.578,-3.578,-3.5085,-3.4437,-3.3822,-3.1693,-3.0336,-2.9702,-2.8356,-2.7787,-2.7885,-2.7885,-2.8022,-2.8276,-2.8711,-2.8926,-2.8906,-2.8672,-2.8457,-2.832,-2.8496,-2.8564,-2.8621,-2.8674,-2.8945,-2.9218,-2.9146,-2.8655,-2.7963,-2.685,-2.5674,-2.4326,-2.2463,-2.1837,-2.1468,-2.0272,0.0,0.0,0.0,0.0,0.0,-1.9654,-1.8635,-1.8576,-2.1664,-2.0522,-1.9763,-2.2298,-2.282,-2.2731,-2.2341,-2.2167,-2.2076,-2.1992,-2.2062,-2.2076,-2.1992,-2.2062,-2.202,-2.1734,-2.1636,-2.1619,-2.1697,-2.1638,-2.1826,-2.2317,-2.262,-2.2754,-2.2584,-2.2926,-2.2886,-2.2447,-2.253,-2.253,-2.2326,-2.2407,-2.2324,-2.2091,-2.2381,-2.2355,-2.2104,-2.2104,-2.2167,-2.2292,-2.2292,-2.2355,-2.248,-2.248,-2.256,-2.2688,-2.2823,-2.2772,-2.2833,-3.0395,-3.0585,-3.0423,-2.9375,-2.9192,-2.9505,-3.0488,-3.1312,-3.1993,0.0,0.0,0.0,-3.4986,-3.4374,-3.372,-3.3207,-3.2941,-3.2625,-3.228,-3.2783,-3.3191,-3.336,-3.4408,-3.5057,-3.5057,-3.4893,-3.4703,-3.4385,-3.2551,-3.1084,-3.0034,-2.8829,-2.793,-2.7383,-2.674,-2.6555,-2.6763,-2.746,-2.809,-2.8652,-2.8652,-2.873,-2.8848,-2.9101,-2.9251,-2.9337,-2.9288,-2.9441,-2.9615,-2.9406,-2.8906,-2.8239,-2.7289,-2.6379,-2.5431,-2.4239,-2.3654,0.0,0.0,0.0,-2.1295,-2.0291,0.0,0.0,-1.9862,-1.8387,-1.8006,-2.1152,-2.0234,-1.9715,-2.25,-2.2857,-2.2769,-2.2886,-2.2529,-2.2338,-2.2529,-2.2543,-2.2543,-2.2543,-2.2366,-2.221,-2.2025,-2.1783,-2.1732,-2.1929,-2.1732,-2.1922,-2.2547,-2.293,-2.3018,-2.2828,-2.3018,-2.293,-2.2579,-2.274,-2.274,-2.2564,-2.274,-2.2704,-2.2519,-2.2707,-2.2668,-2.2543,-2.2543,-2.2606,-2.2793,-2.2793,-2.2793,-2.2793,-2.2793,-2.2846,-2.2935,-2.3134,-2.314,-2.3098,0.0,-3.0723,-3.0855,-2.9853,-2.9683,-3.0013,-3.0982,-3.1241,-3.1495,0.0,-3.3449,-3.4655,-3.5307,-3.4424,-3.335,-3.2263,-3.1584,-3.0833,-3.0043,-3.0603,-3.1072,-3.1404,-3.3105,-3.4095,-3.4095,-3.4771,-3.4843,-3.419,-3.3499,-3.1977,-2.977,-2.9095,-2.8156,-2.7039,-2.5637,-2.5195,-2.5415,-2.5865,-2.6879,-2.8067,-2.8286,-2.8828,-2.9512,-2.9551,-2.9805,-3.0135,-2.9948,-2.9921,-2.9897,-2.9594,-2.908,-2.8488,-2.7974,-2.7013,-2.5986,-2.5898,-2.5312,0.0,0.0,0.0,0.0,-2.1788,-2.06,0.0,-2.0779,-1.909,-1.8076,-2.0614,-2.0169,-1.9848,-2.1595,-2.1934,-2.2051,-2.2238,-2.243,-2.2635,-2.3062,-2.3106,-2.3106,-2.3106,-2.2813,-2.2608,-2.2579,-2.2037,-2.1803,-2.2052,-2.1876,-2.2023,-2.2637,-2.2945,-2.3091,-2.3062,-2.3091,-2.3076,-2.3003,-2.3047,-2.3047,-2.3003,-2.3047,-2.3062,-2.3062,-2.3091,-2.3106,-2.3106,-2.3106,-2.3106,-2.3106,-2.3106,-2.3106,-2.3106,-2.3106,-2.2947,-2.2797,-2.3336,-2.3369,-2.3168,-2.8812,-2.9869,-3.0245,-2.7973,-2.7613,-2.7914,-2.8798,-2.958,-3.0338,-3.1137,-3.3106,-3.4435,-3.4583,-3.374,-3.2997,-3.2766,-3.1645,-3.0708,-3.0041,-3.0868,-3.1225,-3.0886,-3.1626,-3.2044,-3.2044,-3.2636,-3.2841,-3.2705,-3.1534,-3.0696,-3.0108,-2.8268,-2.7444,-2.7519,-2.684,-2.6102,-2.5415,-2.5865,-2.6264,-2.6681,-2.8144,-2.8906,-2.9082,-2.9434,-2.9685,-2.9629,-2.9254,-2.9388,-2.962,-2.9079,-2.8933,-2.8878,-2.8229,-2.8021,-2.777,-2.6976,-2.6791,-2.6734,-2.6234,-2.5902,-2.5355,-2.4025,-2.3241,0.0,-2.1725,-1.9589,-1.8352,-2.0285,-1.8914,-1.7884,-1.9724,-2.0217,-2.0402,-2.0401,-2.126,-2.2144,-2.297,-2.3106,-2.3106,-2.3106,-2.2813,-2.2535,-2.2286,-2.192,-2.1613,-2.1423,-2.1832,-2.2359,-2.2974,-2.3076,-2.2988,-2.2725,-2.2974,-2.2871,-2.2374,-2.2593,-2.2593,-2.2374,-2.2608,-2.271,-2.2725,-2.2988,-2.3106,-2.3106,-2.3106,-2.3106,-2.3106,-2.3106,-2.3106,-2.3106,-2.3106,-2.3204,-2.3417,-2.3875,-2.3919,-2.3861,-2.8305,-2.8924,-2.9098,-2.7606,0.0,-2.7637,-2.8476,-2.8807,-2.9221,-2.989,-3.1383,-3.2605,-3.3254,-3.2501,-3.1662,-3.1019,0.0,0.0,-2.8537,-2.8977,-2.9333,-2.9513,-3.0405,-3.0918,-3.0918,-3.1816,-3.228,-3.228,-3.1453,-3.0686,-2.9971,-2.8644,-2.7652,-2.7031,-2.6484,-2.5811,-2.5092,-2.4961,-2.5371,-2.6173,-2.7102,-2.8038,-2.8945,-2.916,-2.9238,-2.9219,-2.9004,-2.898,-2.9124,-2.909,-2.8959,-2.89,-2.866,-2.8441,-2.8169,-2.7693,-2.7475,-2.7348,-2.7063,-2.6855,-2.6489,-2.5585,-2.4656,0.0,0.0,-2.1393,-2.0265,-2.1258,-2.0457,-1.9821,-2.0671,-2.0581,-2.0431,-2.0593,-2.0959,-2.1319,-2.1477,-2.2425,-2.3047,-2.2886,-2.2593,-2.2345,-2.2198,-2.1745,-2.1379,-2.1218,-2.2096,-2.2652,-2.2652,-2.2945,-2.3032,-2.2871,-2.3018,-2.2959,-2.2652,-2.2784,-2.2784,-2.2652,-2.2798,-2.2871,-2.2871,-2.3032,-2.3106,-2.3106,-2.3106,-2.3106,-2.3106,-2.3106,-2.3106,-2.3106,-2.3106,-2.3208,-2.3398,-2.372,-2.3912,-2.4035,-2.7751,-2.8223,-2.833,-2.7799,0.0,0.0,0.0,0.0,-2.7914,-2.7893,-2.8906,-3.0089,-3.1323,-3.0762,-3.0008,-2.9295,0.0,0.0,-2.7239,-2.7187,-2.7441,-2.8144,-2.9315,-2.987,-2.9787,-3.0936,-3.152,-3.152,-3.1199,-3.0471,-2.9424,-2.8968,-2.8015,-2.6727,-2.6076,-2.5483,-2.4967,-2.4124,-2.4633,-2.6099,-2.5735,-2.6847,-2.8809,-2.8887,-2.8926,-2.8926,-2.8926,-2.876,-2.868,-2.909,-2.9025,-2.8727,-2.892,-2.868,-2.8277,-2.8172,-2.7934,-2.7606,-2.7297,-2.7207,-2.7051,-2.6719,-2.5661,-2.4661,0.0,0.0,0.0,-2.2481,-2.2212,-2.1962,-2.1929,-2.135,-2.0945,-2.1112,-2.1143,-2.0891,-2.0361,-2.1993,-2.296,-2.2166,-2.2095,-2.2067,-2.1934,-2.1626,-2.1531,-2.1825,-2.2931,-2.3505,-2.3155,-2.3397,-2.3527,-2.3527,-2.3293,-2.3106,-2.3106,-2.3106,-2.3106,-2.3106,-2.3106,-2.3106,-2.3106,-2.3106,-2.3106,-2.3106,-2.3106,-2.3106,-2.3106,-2.3106,-2.3106,-2.3106,-2.3106,-2.3106,-2.3164,-2.3545,-2.3852,-2.4079,-2.6487,-2.8166,-2.9125,-2.7897,0.0,0.0,0.0,0.0,-2.5863,-2.4556,-2.6004,-2.7557,-2.8476,-2.8281,-2.8645,-3.0015,-2.7955,-2.6988,-2.8066,-2.7793,-2.7637,-2.7787,-2.8245,-2.837,-2.7996,-2.8509,-2.8741,-2.8741,-2.8701,-2.8628,-2.8469,-2.8035,-2.7911,-2.8066,-2.7333,-2.6611,-2.5865,-2.4178,-2.4524,-2.6031,-2.4401,-2.5588,-2.8398,-2.8769,-2.8926,-2.8926,-2.8926,-2.8652,-2.8408,-2.868,-2.8714,-2.8727,-2.8727,-2.8847,-2.8893,-2.8436,-2.8396,-2.8483,-2.8251,-2.7871,-2.763,-2.7591,-2.6832,-2.6168,-2.6109,0.0,-2.3178,-2.3178,0.0,-2.0992,-2.0943,0.0,0.0,-2.072,-2.1573,-2.2078,-2.165,-2.2827,-2.2847,-2.0472,-2.1133,-2.1569,-2.0989,-2.1688,-2.267,-2.3933,-2.4894,-2.5737,-2.6596,-2.5726,-2.5224,-2.5224,-2.3837,-2.3106,-2.3106,-2.3106,-2.3106,-2.3106,-2.3106,-2.3106,-2.3106,-2.3106,-2.3106,-2.3106,-2.3106,-2.3106,-2.3106,-2.3106,-2.3106,-2.3106,-2.3106,-2.3106,-2.3179,-2.3793,-2.4057,-2.4108,-2.6309,-2.7361,-2.8064,-2.7774,0.0,0.0,0.0,0.0,-2.4855,-2.3911,-2.4721,-2.574,-2.6842,-2.6987,-2.7469,-2.8697,-2.7784,-2.7363,-2.7891,-2.7806,0.0,-2.8027,-2.8203,-2.8203,-2.8027,-2.8203,-2.8301,-2.8301,-2.8047,-2.8047,-2.8281,-2.7871,-2.7891,-2.8281,-2.7999,-2.7707,-2.7398,-2.5986,-2.6208,-2.7419,-2.5774,-2.6423,-2.8301,-2.8315,-2.8447,-2.8555,-2.8555,-2.8437,-2.8301,-2.8408,-2.8461,-2.8514,-2.8674,-2.8602,-2.8548,-2.8542,-2.8443,-2.8338,-2.8329,-2.834,-2.8281,-2.7845,-2.7578,-2.7363,-2.6855,-2.5921,-2.5009,-2.4762,0.0,0.0,0.0,0.0,0.0,0.0,-2.2299,-2.228,-2.1578,-2.2719,-2.3174,-2.2039,-2.1831,-2.1911,-2.2168,-2.3983,-2.5252,-2.5515,-2.5965,-2.6443,-2.6933,-2.6451,-2.5913,-2.5497,-2.4605,-2.3748,-2.3106,-2.3106,-2.3106,-2.3106,-2.3914,-2.3837,-2.3106,-2.3914,-2.3852,-2.312,-2.331,-2.3398,-2.3413,-2.3588,-2.3686,-2.3651,-2.3461,-2.3281,-2.3135,-2.3413,-2.3764,-2.4115,-2.5569,-2.6388,-2.7109,-2.7441,-2.6705,0.0,0.0,-2.3966,-2.289,-2.262,-2.2959,-2.3641,-2.4825,-2.5289,-2.5957,-2.7099,-2.6943,-2.6902,-2.7182,-2.698,-2.7103,-2.7626,-2.773,-2.791,-2.8125,-2.8242,-2.8301,-2.8301,-2.7598,-2.7385,-2.7672,-2.6974,-2.6993,-2.7672,-2.7168,-2.7302,-2.7731,-2.6062,-2.6132,-2.7269,-2.6289,-2.6911,-2.8451,-2.8164,-2.8121,-2.8301,-2.8301,-2.8223,-2.8125,-2.8125,-2.8125,-2.8158,-2.8199,-2.8127,-2.8009,-2.8206,-2.8127,-2.8028,-2.808,-2.8437,-2.8594,-2.7988,-2.7988,-2.7949,-2.7344,-2.6875,-2.6465,-2.6152,-2.582,0.0,0.0,0.0,-2.3846,-2.3625,0.0,-2.2968,-2.2035,-2.3103,-2.3616,-2.284,-2.2359,-2.2448,-2.3308,-2.5345,-2.6527,-2.6389,-2.6902,-2.7345,-2.7679,-2.7393,-2.7027,-2.6466,-2.5359,-2.4401,-2.3578,-2.3606,-2.3666,-2.3666,-2.501,-2.5133,-2.4209,-2.529,-2.5322,-2.4471,-2.4889,-2.5091,-2.517,-2.5419,-2.5515,-2.5471,-2.5281,-2.4937,-2.4533,-2.3717,-2.3676,-2.4101,-2.375,-2.5535,0.0,-2.7031,-2.6517,-2.5096,-2.2209,-2.0231,-1.9223,-1.9492,-2.0082,-2.0895,-2.1991,-2.2601,-2.3695,-2.5679,-2.5059,-2.4923,-2.5869,-2.5178,-2.5061,-2.5933,-2.6354,-2.6902,-2.7695,-2.8086,-2.8301,-2.8301,-2.6844,-2.6173,-2.6155,-2.4637,-2.4748,-2.61,-2.4322,-2.4544,-2.5972,-2.2996,-2.2815,-2.4503,-2.4519,-2.6376,-2.9007,-2.8505,-2.8281,-2.8301,-2.8301,-2.8027,-2.7748,-2.7748,-2.7748,-2.7669,-2.7187,-2.7344,-2.765,-2.7168,-2.7344,-2.7728,-2.7728,-2.7988,-2.8301,-2.8281,-2.7988,-2.7728,-2.7708,-2.7305,-2.6992,-2.6973,-2.6973,-2.6836,-2.6406,-2.6278,-2.6005,-2.5148,-2.505,0.0,0.0,-2.4477,-2.4125,-2.1542,-2.2012,-2.2919,-2.3786,-2.4611,-2.5484,-2.6405,-2.7917,-2.9125,-2.9858,-2.9301,-2.8896,-2.8878,-2.6217,-2.4799,-2.4755,-2.4942,-2.501,-2.5071,-2.6355,-2.69,-2.69,-2.732,-2.7658,-2.7983,-2.8428,-2.8834,-2.9146,-2.9146,-2.9146,-2.9146,-2.9146,-2.8835,-2.8044,-2.5116,-2.4071,-2.4174,-2.2588,-2.3462,-2.4105,-2.3911,-2.3101,-2.1939,-2.009,-1.8376,-1.8038,-2.0091,-1.9737,-2.0388,-2.3293,-2.4209,-2.5058,-2.6275,-2.6143,-2.5999,-2.6116,-2.541,-2.5161,-2.545,-2.5155,-2.5611,-2.6892,-2.6877,-2.733,-2.8301,-2.7799,-2.7565,-2.7565,-2.7006,-2.721,-2.7891,-2.5989,-2.5836,-2.678,-2.4944,-2.4515,-2.5061,-2.4986,-2.5357,-2.6144,-2.7969,-2.8711,-2.8672,-2.8398,-2.8203,-2.8086,-2.8086,-2.8086,-2.8047,-2.791,-2.7773,-2.7748,-2.7832,-2.7773,-2.7787,-2.8008,-2.8594,-2.9004,-2.8437,-2.8613,-2.8843,-2.8203,-2.7754,-2.7441,-2.7441,-2.7226,-2.6973,-2.6836,-2.6797,-2.6621,0.0,-2.5937,-2.5742,0.0,-2.5332,-2.515,-2.4287,-2.5164,-2.5577,-2.493,-2.6954,-2.8465,-2.8765,-2.9198,-2.9828,-3.0673,-2.9908,-2.9333,-2.9026,-2.8257,-2.7294,-2.6109,-2.6499,-2.6581,-2.6355,-2.7667,-2.7988,-2.7442,-2.8664,-2.8982,-2.8632,-2.9189,-2.9555,-2.9636,-2.9821,-2.9913,-2.9933,-2.9744,-2.9493,-2.9233,-2.7986,-2.7344,-2.7015,-2.1338,-2.119,-2.1346,-2.2441,-2.1603,-2.0457,-1.9253,-1.8193,-1.8331,-2.0495,-2.0148,-2.0713,-2.3458,-2.4269,-2.4899,-2.5515,-2.5619,-2.5439,-2.498,-2.4499,-2.4338,-2.4416,-2.4227,-2.4778,-2.6022,-2.5765,-2.6097,-2.7066,-2.6791,-2.6717,-2.6717,-2.6717,-2.7137,-2.7836,-2.5617,-2.5302,-2.6294,-2.4666,-2.4029,-2.4154,-2.4606,-2.4799,-2.4903,-2.678,-2.7641,-2.7927,-2.811,-2.815,-2.8066,-2.8066,-2.8066,-2.8047,-2.7891,-2.7754,-2.7748,-2.7812,-2.7754,-2.7806,-2.8184,-2.8809,-2.9238,-2.8848,-2.916,-2.9375,-2.8672,-2.8301,-2.8217,-2.8461,-2.7976,-2.7611,-2.8134,-2.7577,-2.6984,0.0,0.0,-2.6055,0.0,-2.5605,-2.5566,-2.5674,-2.6379,-2.6543,-2.5749,-2.7439,-2.8778,-2.9249,-2.9328,-2.9731,-3.0663,-3.0233,-2.9889,-2.9754,-2.9414,-2.8786,-2.7813,-2.8194,-2.8211,-2.7847,-2.9186,-2.9513,-2.8962,-3.0193,-3.0581,-3.0278,-3.0872,-3.1321,-3.1596,-3.1734,-3.198,-3.2074,-3.1866,-3.1683,-3.1385,-3.0002,-2.9277,-2.8835,-1.9991,-1.898,-1.9136,-2.2432,-2.1868,-2.0638,-1.9523,-1.9301,-1.9573,-2.0731,-2.0951,-2.1485,-2.2538,-2.3007,-2.3343,-2.363,-2.3615,-2.3359,-2.274,-2.262,-2.2681,-2.2956,-2.3469,-2.4213,-2.5116,-2.4855,-2.4725,-2.4782,-2.4116,-2.3822,-2.3933,-2.3933,-2.471,-2.6009,-2.3276,-2.3106,-2.4547,-2.2209,-2.141,-2.1869,-2.3378,-2.4497,-2.5255,-2.491,-2.5207,-2.61,-2.7349,-2.7762,-2.7695,-2.7748,-2.7695,-2.7617,-2.7207,-2.7363,-2.7617,-2.7207,-2.7383,-2.7812,-2.8223,-2.8652,-2.9082,-2.9473,-2.959,-2.9492,-2.9043,-2.8945,-2.9192,-2.9957,-2.9218,-2.8849,-3.0209,-2.8668,-2.7212,0.0,0.0,-2.5693,-2.5693,-2.5371,-2.5254,-2.5635,-2.5693,-2.582,-2.6042,-2.6159,-2.6697,-2.7924,-2.8408,-2.9065,-3.0053,-3.0252,-3.0559,-3.1042,-2.9829,-2.937,-2.9699,-2.9957,-2.9886,-2.9512,-3.0855,-3.1388,-3.1384,-3.18,-3.2353,-3.2962,-3.3411,-3.4101,-3.4795,-3.4837,-3.5024,-3.5397,-3.5418,-3.5169,-3.4472,-3.1202,-2.9999,-2.9687,-1.8906,-1.8998,-1.9293,-2.023,-1.971,-1.9125,-1.9042,-1.7566,-1.7649,-2.1052,-2.0206,-2.0438,-2.3393,-2.4261,-2.4546,-2.4334,-2.4145,-2.3925,-2.3708,-2.3004,-2.2639,-2.269,-2.2413,-2.2901,-2.4172,-2.3478,-2.3623,-2.4782,-2.4116,-2.4378,-2.548,-2.548,0.0,-2.6009,-2.4428,-2.3639,-2.3357,-2.2103,-2.1779,-2.2086,-2.2233,-2.2184,-2.1987,-2.2558,-2.2999,-2.3715,-2.5821,-2.7093,-2.7859,-2.8072,-2.8019,-2.7839,-2.7955,-2.7921,-2.7839,-2.7935,-2.8262,-2.8613,-2.873,-2.9297,-2.9824,-2.9629,-2.9805,-2.9922,-2.9512,-2.9394,-2.9567,-3.0054,-3.0145,-3.0023,-2.9869,-2.9549,-2.8818,-2.7381,-2.6339,-2.5693,-2.5693,-2.5596,-2.5557,-2.5674,-2.5868,-2.5965,-2.582,-2.6652,-2.7411,-2.7945,-2.8118,-2.8731,-3.0032,-2.9711,-2.9791,-3.0538,-3.1261,-3.1415,-3.0878,-3.1351,-3.1346,-3.084,-3.0976,-3.1329,-3.182,-3.2175,-3.2751,-3.3432,-3.4202,-3.4385,-3.436,-3.4983,-3.5128,-3.4962,-3.5293,-3.5355,-3.5088,-3.3901,-3.2969,-3.2188,-1.8677,-1.9158,-1.9559,-1.9559,-1.9502,-1.9496,-1.9537,-1.7645,-1.7553,-2.1238,-2.0258,-2.0296,-2.3307,-2.4254,-2.4679,-2.4569,-2.4145,-2.386,-2.3876,-2.3218,-2.2711,-2.2393,-2.2338,-2.262,-2.3306,-2.2692,-2.263,-2.324,-2.3225,-2.3521,-2.4139,0.0,0.0,0.0,-2.3861,-2.3121,-2.2705,-2.2018,-2.169,-2.175,-2.1582,-2.1166,0.0,-2.106,-2.1646,-2.2483,-2.3991,-2.5625,-2.7085,-2.7135,-2.7349,-2.7691,-2.7853,-2.7799,-2.7745,-2.8014,-2.7898,-2.7893,-2.8936,-2.9159,-2.9317,-3.0003,-3.0332,-3.0391,-2.9941,-2.9844,-3.0017,-3.064,-3.0732,-3.0807,-3.1259,-3.0485,-2.911,-2.7063,-2.6484,-2.6122,-2.5732,-2.5898,-2.5957,-2.5713,-2.582,-2.5868,-2.5693,-2.6572,-2.7329,-2.7778,-2.7847,-2.8388,-2.9686,-2.9707,-3.0191,-3.1305,-3.2123,-3.2585,-3.2767,-3.2601,-3.2302,-3.1856,-3.1505,-3.1486,-3.1701,-3.1877,-3.2311,-3.2847,-3.3651,-3.3935,-3.3935,-3.4777,-3.5107,-3.5066,-3.5314,-3.5479,-3.5582,-3.5495,-3.4923,-3.4073,-1.9025,-1.9479,-1.984,-1.9813,-2.028,-2.069,-2.0652,-1.9005,-1.8774,-2.1633,-2.102,-2.1049,-2.3119,-2.3916,-2.4369,-2.4488,-2.3925,-2.3592,-2.3609,-2.3315,-2.2864,-2.2266,-2.2773,-2.2974,-2.2696,-2.2346,-2.199,-2.1481,-2.1965,-2.2088,0.0,0.0,0.0,0.0,-2.2433,-2.2094,-2.2285,-2.1889,-2.1526,-2.1184,-2.1184,-2.1032,-2.0711,-2.0409,-2.1115,-2.2242,-2.2498,-2.4049,-2.5989,-2.5765,-2.6391,-2.7314,-2.7206,-2.7189,-2.7208,-2.7314,-2.67,-2.6443,-2.8501,-2.8333,-2.81,-3.0064,-3.0606,-3.0587,-3.0236,-3.0234,-3.0525,-3.1286,-3.1146,-3.1476,-3.3051,-3.1248,-2.8852,-2.6996,-2.6996,-2.6957,-2.6271,-2.6447,-2.6506,-2.6084,-2.5986,0.0,-2.5771,-2.6198,-2.6754,-2.7431,-2.7403,-2.7938,-2.9125,-2.9901,-3.0958,-3.2377,-3.2566,-3.3218,-3.4417,-3.3479,-3.2806,-3.2451,-3.2097,-3.1722,-3.1404,-3.1344,-3.1498,-3.1808,-3.2603,-3.3128,-3.3534,-3.4368,-3.4923,-3.5211,-3.5211,-3.5396,-3.5725,-3.6156,-3.5993,-3.5335,-1.9599,-1.992,-2.008,-1.984,-2.028,-2.1166,-2.2468,-2.0929,-2.0631,-2.3308,-2.3201,-2.3354,-2.4626,-2.5297,-2.5129,-2.3907,-2.3662,-2.3618,-2.3612,-2.3262,-2.3029,-2.2908,-2.3014,-2.3076,-2.3018,-2.2461,-2.2462,-2.3093,-2.1464,-2.164,0.0,-2.242,-2.1968,0.0,-2.1972,-2.1774,-2.1455,-2.1646,-2.1518,-2.1215,-2.1215,-2.1135,-2.1134,-2.1074,-2.1976,-2.3303,-2.3095,-2.4183,-2.5743,-2.5954,-2.6462,-2.6935,-2.6136,-2.5894,-2.5754,-2.4812,-2.4986,-2.5628,-2.6036,-2.6446,-2.7018,-2.8407,-2.8975,-2.9418,-3.0064,-3.0488,-3.0898,-3.1387,-3.1919,-3.2256,-3.1959,-3.0794,-2.958,-2.8549,-2.8289,-2.8344,-2.8565,-2.8344,-2.8021,-2.7736,-2.7571,-2.7212,-2.6358,-2.6231,-2.6324,-2.6645,-2.65,-2.7028,-2.8619,-2.9085,-3.0056,-3.186,-3.2881,-3.3388,-3.3356,-3.344,-3.3091,-3.2431,-3.186,-3.1702,-3.186,-3.1503,-3.1498,-3.1828,-3.2692,-3.2873,-3.2712,-3.3942,-3.4327,-3.4084,-3.4084,-3.433,-3.4677,-3.5355,-3.5849,-3.6114,-1.996,-2.0134,-2.0524,-2.1708,-2.2086,-2.2841,-2.4739,-2.5012,-2.5258,-2.5915,-2.4767,-2.4529,-2.6525,-2.6321,-2.5689,-2.4889,-2.4059,-2.3602,-2.3588,-2.3296,-2.3106,-2.3106,-2.3106,-2.3106,-2.3106,-2.3501,-2.3657,-2.3492,-2.3129,-2.2833,-2.2645,-2.1926,-2.1202,-2.0486,-2.0743,-2.0725,-2.0482,-2.0998,-2.1088,-2.0959,-2.1131,-2.1329,-2.1509,-2.2195,-2.3033,-2.3915,-2.4239,-2.5038,-2.5926,-2.5774,-2.5937,-2.6038,-2.5383,-2.477,-2.4182,-2.372,-2.365,-2.3943,-2.5094,-2.531,-2.5658,-2.7232,-2.8241,-2.8983,-2.9229,-3.0121,-3.0879,-3.0897,-3.1702,-3.2177,-3.1564,-3.0296,-2.9254,-2.8913,-2.8759,-2.8727,-2.8727,-2.8727,-2.8516,-2.7976,-2.7843,-2.7416,-2.6495,-2.629,-2.6349,-2.6643,-2.6326,-2.6832,-2.8462,-2.9054,-3.0249,-3.2225,-3.3239,-3.3991,-3.4529,-3.4093,-3.3595,-3.3115,-3.2376,-3.1939,-3.1742,-3.1545,-3.1486,-3.1721,-3.2774,-3.3094,-3.2954,-3.3999,-3.4302,-3.4101,-3.4101,-3.4225,-3.4451,-3.515,-3.5603,-3.589,-2.0315,-2.0496,-2.1251,-2.3574,-2.4009,-2.479,-2.6935,-2.8588,-2.9375,-2.8674,-2.7105,-2.6759,-2.8702,-2.7564,-2.6449,-2.5867,-2.4564,-2.3661,-2.3598,-2.3377,-2.3168,-2.3106,-2.3106,-2.3106,-2.3106,-2.4394,-2.483,-2.4193,-2.5019,-2.4351,-2.2302,-2.1843,-2.0873,-1.9475,-1.9707,-1.9907,-2.0136,-2.0585,-2.0859,-2.1061,-2.1598,-2.2009,-2.2452,-2.37,-2.4556,-2.5117,-2.5896,-2.6551,-2.6951,-2.6448,-2.5865,-2.5285,-2.4799,-2.3818,-2.2843,-2.2692,-2.2287,-2.2273,-2.4029,-2.413,-2.4115,-2.5968,-2.7237,-2.7935,-2.7924,-2.8938,-2.9785,-2.953,-3.0206,-3.0734,-3.0449,-2.9383,-2.8586,-2.8816,-2.8904,-2.8991,-2.9031,-2.9183,-2.8972,-2.8251,-2.8015,-2.7604,-2.6789,-2.6534,-2.6645,-2.7072,-2.6547,-2.6913,-2.8428,-2.9172,-3.0512,-3.2463,-3.3235,-3.4143,-3.5288,-3.4569,-3.4064,-3.3779,-3.2955,-3.2256,-3.1777,-3.1699,-3.166,-3.1699,-3.2767,-3.3203,-3.3384,-3.3871,-3.4033,-3.4033,-3.4033,-3.4095,-3.424,-3.4881,-3.5232,-3.5479,-2.0951,-2.1341,-2.2195,-2.4263,-2.5122,-2.6276,-2.8699,-2.9368,-2.9953,-3.0994,-3.1934,-3.2064,-3.1126,-2.983,-2.8032,-2.5588,-2.4546,-2.3929,-2.3586,-2.3556,-2.3417,-2.3106,-2.3106,-2.3106,-2.3106,-2.4394,-2.5533,-2.6489,-2.5778,-2.51,-2.4551,-2.256,-2.0916,-1.9764,-1.9822,-2.025,-2.1087,-2.1145,-2.1509,-2.2141,-2.3371,-2.4063,-2.4499,-2.5711,-2.6977,-2.8104,-2.8182,-2.8783,-2.9498,-2.9066,-2.7264,-2.5103,-2.4324,-2.3378,-2.2236,-2.0629,-2.0676,-2.1332,-2.1541,-2.1921,-2.2688,-2.4255,-2.4797,-2.5109,-2.5884,-2.6288,-2.647,-2.6409,-2.6756,-2.7074,-2.6961,-2.7392,-2.7903,-2.8605,-2.8954,-2.9718,-3.1257,-3.0826,-3.0214,-2.9857,-2.9144,-2.8417,-2.765,-2.7019,-2.7012,-2.7926,-2.7211,-2.7252,-2.8428,-2.8963,-2.9992,-3.1651,-3.2588,-3.3179,-3.3302,-3.3984,-3.4183,-3.3779,-3.3085,-3.2737,-3.2656,-3.2285,-3.2109,-3.2129,-3.2659,-3.307,-3.3403,-3.3051,-3.2976,-3.2976,-3.2976,-3.3161,-3.3448,-3.3908,-3.461,-3.5418,-2.1929,-2.2124,-2.2865,-2.4945,-2.5327,-2.5991,-2.8,-2.9873,-3.112,-3.1446,-3.1856,-3.2177,-3.2338,-3.0218,-2.8295,-2.7021,-2.5359,-2.4239,-2.3914,-2.3728,-2.3542,-2.3417,-2.323,-2.3106,-2.3106,-2.5178,-2.6335,-2.654,-2.7434,-2.7264,-2.5951,-2.5289,-2.391,-2.2067,-2.151,-2.136,-2.1534,-2.2526,-2.3073,-2.3464,-2.4956,-2.5712,-2.6101,-2.6636,-2.7245,-2.7864,-2.7426,-2.7407,-2.747,-2.7439,-2.6513,-2.5317,-2.4556,-2.2979,-2.135,-2.0592,-2.0799,-2.1236,-2.1418,-2.1922,-2.2575,-2.3145,-2.4063,-2.4769,-2.4949,-2.5672,-2.6175,-2.6006,-2.5525,-2.5306,-2.6078,-2.5753,-2.605,-2.8192,-2.8597,-2.9295,-3.0995,-3.0989,-3.0517,-2.9872,-2.9498,-2.8854,-2.7806,-2.7682,-2.7799,-2.8105,-2.7462,-2.7563,-2.881,-2.9525,-3.0309,-3.1252,-3.2659,-3.3393,-3.3497,-3.4082,-3.4218,-3.3851,-3.3344,-3.2979,-3.2793,-3.2617,-3.2676,-3.293,-3.3105,-3.3262,-3.3418,-3.3242,-3.3164,-3.3164,-3.3164,-3.3227,-3.3371,-3.38,-3.4298,-3.4859,-2.2638,-2.2772,-2.3435,-2.5465,-2.558,-2.5991,-2.7537,-2.9476,-3.0615,-3.0373,-3.017,-3.0684,-3.2395,-3.0296,-2.8331,-2.733,-2.5635,-2.4425,-2.3991,-2.379,-2.3666,-2.3479,-2.323,-2.3106,-2.3106,-2.5301,-2.6325,-2.6116,-2.7846,-2.8031,-2.6775,-2.6801,-2.5965,-2.4428,-2.3756,-2.342,-2.3334,-2.4461,-2.4923,-2.5054,-2.6609,-2.7293,-2.7516,-2.792,-2.8027,-2.7967,-2.7491,-2.6969,-2.6542,-2.6634,-2.6248,-2.5615,-2.4694,-2.3154,-2.1744,-2.1627,-2.1844,-2.2089,-2.232,-2.2474,-2.2577,-2.2706,-2.3436,-2.4108,-2.3941,-2.449,-2.5029,-2.4763,-2.3923,-2.3574,-2.4655,-2.404,-2.4314,-2.7073,-2.7836,-2.8674,-3.0232,-3.0781,-3.0662,-2.9724,-2.9564,-2.9133,-2.8178,-2.8256,-2.8422,-2.8522,-2.8141,-2.8408,-2.9474,-3.0052,-3.062,-3.1114,-3.2409,-3.3256,-3.3456,-3.4017,-3.411,-3.3922,-3.35,-3.3237,-3.2988,-3.2988,-3.3144,-3.3418,-3.3418,-3.3418,-3.3418,-3.3418,-3.3418,-3.3418,-3.3418,-3.3418,-3.3418,-3.3796,-3.411,-3.4423,-2.2957,-2.3078,-2.3755,-2.5849,-2.6168,-2.6679,-2.8072,-2.7933,-2.7631,-2.7631,-2.7305,-2.817,-3.0993,-3.0102,-2.8251,-2.5565,-2.4881,-2.4301,-2.3666,-2.3929,-2.379,-2.3106,-2.3106,-2.3106,-2.3106,-2.4456,-2.524,-2.5513,-2.6116,-2.6641,-2.6959,-2.6325,-2.6209,-2.6456,-2.6456,-2.6626,-2.6953,-2.6953,-2.6942,-2.7065,-2.8367,-2.8781,-2.8818,-3.0081,-2.9967,-2.9201,-2.9144,-2.8649,-2.7966,-2.7984,-2.7142,-2.5879,-2.4553,-2.407,-2.4007,-2.3654,-2.3769,-2.4049,-2.4049,-2.331,-2.2569,-2.2897,-2.2722,-2.2418,-2.2418,-2.2258,-2.1963,-2.1746,-2.1373,-2.1362,-2.2041,-2.2104,-2.288,-2.5141,-2.6686,-2.8044,-2.9283,-3.0504,-3.0892,-2.9724,-2.9455,-2.9253,-2.8906,-2.875,-2.8923,-2.9548,-2.9635,-2.9902,-3.0419,-3.0515,-3.075,-3.1285,-3.1761,-3.2276,-3.2713,-3.3505,-3.3922,-3.3922,-3.3544,-3.3418,-3.3418,-3.3418,-3.3418,-3.3418,-3.3418,-3.3418,-3.3418,-3.3418,-3.3418,-3.3418,-3.3418,-3.3418,-3.3418,-3.3796,-3.411,-3.4423,-2.3673,-2.3796,-2.3946,-2.434,-2.4815,-2.5096,-2.5072,-2.5929,-2.6419,-2.6175,-2.6633,-2.7004,-2.7073,-2.691,-2.6453,-2.5582,-2.4717,-2.4177,-2.3914,-2.3852,-2.3666,-2.3417,-2.323,-2.3106,-2.3106,-2.4394,-2.5133,-2.524,-2.6014,-2.7129,-2.851,-2.7378,-2.7643,-2.9023,-2.8206,-2.763,-2.7414,-2.8305,-2.8496,-2.8367,-2.9387,-3.0006,-3.0213,-2.9278,-2.8464,-2.774,-2.6848,-2.5854,-2.5057,-2.5237,-2.5246,-2.5187,-2.5727,-2.5501,-2.5011,-2.473,-2.5331,-2.582,-2.4772,-2.4314,-2.4035,-2.3233,-2.2869,-2.2808,-2.3012,-2.2539,-2.1844,-2.1349,-2.1176,-2.1235,-2.1677,-2.1915,-2.2697,-2.4595,-2.5477,-2.6627,-2.8745,-2.9587,-3.0025,-3.0002,-3.0165,-3.0023,-2.945,-2.9623,-2.9757,-2.9869,-3.0175,-3.037,-3.0283,-3.0977,-3.1416,-3.1466,-3.2374,-3.2828,-3.2782,-3.327,-3.3544,-3.3544,-3.3418,-3.3418,-3.3418,-3.3418,-3.3418,-3.3418,-3.3418,-3.3418,-3.3418,-3.3418,-3.3418,-3.3418,-3.3418,-3.3544,-3.3733,-3.3859,-3.4235,-3.4735,-2.3881,-2.3896,-2.3837,-2.3632,-2.3837,-2.3925,-2.3632,-2.4348,-2.4824,-2.4609,-2.5137,-2.5256,-2.4456,-2.4517,-2.4641,-2.4641,-2.4224,-2.4038,-2.4471,-2.3914,-2.379,-2.4162,-2.3479,-2.3106,-2.3106,-2.3899,-2.4332,-2.4332,-2.5484,-2.6925,-2.8575,-2.8458,-2.9367,-3.1033,-3.0334,-2.9688,-2.9157,-2.9982,-2.9965,-2.9444,-3.0064,-3.0373,-3.0229,-2.905,-2.8142,-2.7381,-2.6144,-2.5537,-2.5299,-2.5266,-2.5789,-2.6674,-2.7723,-2.8044,-2.7942,-2.7539,-2.7853,-2.808,-2.6942,-2.5948,-2.4935,-2.4015,-2.3431,-2.3211,-2.339,-2.2859,-2.2236,-2.176,-2.157,-2.1614,-2.1915,-2.2167,-2.2711,-2.4003,-2.4828,-2.5863,-2.7392,-2.8342,-2.8861,-2.8795,-2.916,-2.916,-2.8609,-2.9219,-2.9699,-2.9776,-3.0065,-3.0218,-3.0136,-3.0567,-3.0936,-3.1207,-3.1413,-3.1502,-3.1418,-3.1724,-3.211,-3.2638,-3.3165,-3.3418,-3.3418,-3.3418,-3.3418,-3.3418,-3.3418,-3.3418,-3.3418,-3.3418,-3.3481,-3.3607,-3.3607,-3.3796,-3.411,-3.4235,-3.4548,-3.4922,-2.3618,-2.3559,-2.3574,-2.3588,-2.3369,-2.3281,-2.3618,-2.3384,-2.3179,-2.3179,-2.3135,-2.3106,-2.3106,-2.3168,-2.323,-2.323,-2.3542,-2.4162,-2.5133,-2.4348,-2.427,-2.5194,-2.3976,-2.323,-2.323,-2.3168,-2.3106,-2.3043,-2.4671,-2.6122,-2.7529,-2.9375,-3.0975,-3.2305,-3.2555,-3.2326,-3.1787,-3.1747,-3.1162,-3.0252,-3.0421,-2.9948,-2.9132,-2.9375,-2.886,-2.7936,-2.6806,-2.7195,-2.8101,-2.7526,-2.8371,-2.9696,-3.0303,-3.1294,-3.2148,-3.1462,-3.0955,-3.0572,-3.0231,-2.7992,-2.5704,-2.5313,-2.4446,-2.3623,-2.3462,-2.3252,-2.2972,-2.2636,-2.2342,-2.2195,-2.2557,-2.2606,-2.2832,-2.3452,-2.4669,-2.5485,-2.5485,-2.6901,-2.7566,-2.6593,-2.6996,-2.722,-2.6935,-2.7977,-2.8901,-2.921,-2.9265,-2.9446,-2.989,-2.9337,-2.9465,-3.0546,-2.9357,-2.8806,-2.9182,-2.9182,-2.99,-3.1322,-3.2702,-3.3418,-3.3418,-3.3418,-3.3418,-3.3418,-3.3418,-3.3418,-3.3418,-3.3418,-3.3607,-3.3922,-3.3922,-3.411,-3.4485,-3.4797,-3.4922,-3.4984,-2.3237,-2.3223,-2.331,-2.3559,-2.3735,-2.3969,-2.4291,-2.4057,-2.3852,-2.3852,-2.3413,-2.3106,-2.3106,-2.4023,-2.4641,-2.4641,-2.4702,-2.5256,-2.6476,-2.6355,-2.6294,-2.6537,-2.5317,-2.4641,-2.4641,-2.3604,-2.2981,-2.2731,-2.4131,-2.5591,-2.7151,-2.8842,-3.0451,-3.1903,-3.2248,-3.2018,-3.1421,-3.1311,-3.0977,-3.0441,-2.9901,-2.9573,-2.9375,-2.9155,-2.8473,-2.7688,-2.768,-2.7751,-2.7891,-2.8328,-2.9137,-3.0285,-3.1826,-3.2688,-3.2949,-3.1899,-3.1957,-3.2037,-3.077,-2.9628,-2.8583,-2.7467,-2.628,-2.4994,-2.3445,-2.3266,-2.3224,-2.2692,-2.2524,-2.2525,-2.2586,-2.2606,-2.276,-2.3145,-2.3536,-2.4082,-2.5075,-2.572,-2.6411,-2.7139,-2.7547,-2.7781,-2.7685,-2.7968,-2.7964,-2.7462,-2.7626,-2.7895,-2.8105,-2.7186,-2.7557,-2.9483,-2.9241,-2.9097,-2.9182,-2.9182,-2.99,-3.1322,-3.2702,-3.3418,-3.3418,-3.3418,-3.3418,-3.3418,-3.3418,-3.3544,-3.3796,-3.3796,-3.3985,-3.4298,-3.4298,-3.4485,-3.4797,-3.4859,-3.5046,-3.5294,-2.4764,-2.4394,-2.419,-2.4614,-2.4223,-2.3818,-2.3605,-2.3229,-2.2948,-2.2883,-2.2462,-2.2418,-2.3043,-2.4132,-2.5016,-2.5666,-2.5891,-2.652,-2.7787,-2.7306,-2.7177,-2.7599,-2.6388,-2.5583,-2.5359,-2.4859,-2.453,-2.4379,-2.4379,-2.5546,-2.7727,-2.8724,-2.9946,-3.1334,-3.16,-3.108,-2.9948,-2.998,-2.9709,-2.9215,-2.9046,-2.8973,-2.889,-2.8799,-2.8757,-2.8757,-2.8692,-2.9769,-3.1298,-3.1684,-3.2747,-3.418,-3.5402,-3.5349,-3.4758,-3.4144,-3.3713,-3.3166,-3.192,-3.0897,-2.9761,-2.8535,-2.7234,-2.5986,-2.493,-2.4357,-2.3851,-2.3221,-2.3092,-2.2992,-2.2851,-2.2856,-2.2918,-2.3043,-2.2981,-2.3168,-2.4023,-2.4331,-2.4735,-2.5611,-2.6103,-2.6392,-2.6456,-2.6986,-2.7142,-2.6668,-2.6668,-2.6892,-2.7231,-2.6744,-2.7117,-2.846,-2.8345,-2.8345,-2.8477,-2.9639,-3.0549,-3.1322,-3.2702,-3.3418,-3.3418,-3.3418,-3.3481,-3.3607,-3.3607,-3.3796,-3.411,-3.411,-3.436,-3.461,-3.461,-3.4859,-3.5108,-3.5108,-3.5232,-3.5459,-2.6779,-2.6111,-2.5525,-2.585,-2.4626,-2.3336,-2.2512,-2.2003,-2.159,-2.1461,-2.1424,-2.1902,-2.3293,-2.4253,-2.5332,-2.6626,-2.7235,-2.7913,-2.8932,-2.7967,-2.7706,-2.8434,-2.7293,-2.6358,-2.599,-2.6234,-2.6355,-2.6315,-2.5208,-2.5973,-2.8421,-2.8806,-2.96,-3.0633,-3.0837,-2.9996,-2.8521,-2.8634,-2.8388,-2.7935,-2.8339,-2.8449,-2.843,-2.8811,-2.9558,-3.0384,-3.0005,-3.2295,-3.5512,-3.5569,-3.677,-3.8321,-3.8918,-3.7879,-3.65,-3.6354,-3.5248,-3.3886,-3.3179,-3.1837,-3.0426,-2.9295,-2.7912,-2.6824,-2.6744,-2.5565,-2.4349,-2.3852,-2.3662,-2.3515,-2.3237,-2.3135,-2.3091,-2.2985,-2.2827,-2.2716,-2.2923,-2.3102,-2.3299,-2.3662,-2.4203,-2.4583,-2.4642,-2.5621,-2.6315,-2.6252,-2.6098,-2.631,-2.7052,-2.7247,-2.7622,-2.8147,-2.78,-2.7734,-2.8081,-3.0354,-3.1433,-3.1433,-3.2892,-3.3544,-3.3544,-3.3544,-3.3733,-3.3985,-3.3985,-3.4173,-3.4485,-3.4485,-3.4673,-3.4984,-3.4984,-3.517,-3.5418,-3.5418,-3.5418,-3.55,-2.6779,-2.684,-2.6472,-2.5721,-2.4562,-2.3457,-2.2525,-2.2098,-2.1884,-2.1818,-2.2376,-2.3293,-2.4641,-2.5879,-2.7099,-2.8414,-2.9375,-2.9774,-2.9523,-2.9295,-2.9276,-2.9387,-2.8105,-2.7383,-2.7311,-2.641,-2.5863,-2.5572,-2.679,-2.7607,-2.8086,-2.9135,-2.9872,-3.0252,-3.0181,-2.9852,-2.9327,-2.8822,-2.8964,-2.9396,-2.8668,-2.8641,-2.9238,-3.0156,-3.0946,-3.1548,-3.2369,-3.3919,-3.5642,-3.6466,-3.6924,-3.73,-3.824,-3.7327,-3.5874,-3.546,-3.4444,-3.3472,-3.3331,-3.2898,-3.2195,-3.1043,-2.9555,-2.8031,-2.6939,-2.5382,-2.4203,-2.4379,-2.3984,-2.3574,-2.353,-2.3296,-2.2956,-2.2447,-2.2744,-2.2831,-2.2371,-2.3034,-2.3642,-2.3969,-2.4335,-2.4686,-2.5017,-2.5181,-2.5331,-2.5312,-2.5508,-2.6253,-2.7539,-2.7883,-2.8721,-3.0254,-2.993,-2.9735,-2.98,-3.135,-3.2117,-3.22,-3.3568,-3.4235,-3.4235,-3.4235,-3.4298,-3.4298,-3.4298,-3.4485,-3.4797,-3.4797,-3.5046,-3.5294,-3.5294,-3.5356,-3.5418,-3.5418,-3.5418,-3.55,-2.7667,-2.6944,-2.6088,-2.6513,-2.4945,-2.3346,-2.2539,-2.2005,-2.1753,-2.1872,-2.2582,-2.3559,-2.4949,-2.6472,-2.7665,-2.8256,-2.9025,-2.9317,-2.9104,-2.9277,-2.9466,-2.959,-2.9205,-2.905,-2.9215,-2.8069,-2.7597,-2.775,-2.7908,-2.8462,-2.9294,-2.983,-3.0026,-2.9844,-2.9836,-2.9211,-2.8256,-2.7585,-2.8033,-2.9108,-2.803,-2.8579,-3.0172,-3.099,-3.1999,-3.313,-3.4571,-3.6204,-3.7895,-3.864,-3.9074,-3.9358,-3.9785,-3.8547,-3.6796,-3.5992,-3.4571,-3.3309,-3.3364,-3.3389,-3.332,-3.2974,-3.156,-2.9915,-2.8439,-2.684,-2.5449,-2.4546,-2.4071,-2.3866,-2.3866,-2.3442,-2.3058,-2.2962,-2.287,-2.2812,-2.273,-2.3189,-2.3717,-2.4057,-2.4591,-2.4958,-2.5105,-2.5119,-2.5122,-2.5128,-2.5248,-2.611,-2.7862,-2.8837,-3.0234,-3.2136,-3.1817,-3.1881,-3.2473,-3.3107,-3.3422,-3.3442,-3.409,-3.4423,-3.4423,-3.4423,-3.4485,-3.4673,-3.4673,-3.4859,-3.517,-3.517,-3.5232,-3.5418,-3.5418,-3.5418,-3.5418,-3.5418,-3.5418,-3.5521,-2.8151,-2.7003,-2.5908,-2.6705,-2.4978,-2.3121,-2.2085,-2.1846,-2.1832,-2.1881,-2.2976,-2.4194,-2.5493,-2.6952,-2.7953,-2.8264,-2.8628,-2.8861,-2.8918,-2.8992,-2.9165,-2.9366,-2.9833,-3.0339,-3.0821,-2.9839,-2.9573,-3.0002,-2.9053,-2.9057,-2.9962,-2.9867,-2.9546,-2.9159,-2.9063,-2.8498,-2.753,-2.6616,-2.7266,-2.8896,-2.764,-2.8605,-3.0835,-3.165,-3.2819,-3.4194,-3.6054,-3.78,-3.9384,-4.022,-4.0489,-4.05,-4.0579,-3.9062,-3.7074,-3.5918,-3.4373,-3.3084,-3.3397,-3.3763,-3.4077,-3.443,-3.3105,-3.1277,-2.9669,-2.7927,-2.6174,-2.447,-2.4027,-2.3998,-2.4071,-2.3676,-2.3398,-2.3446,-2.3203,-2.2995,-2.3112,-2.3522,-2.3927,-2.4203,-2.4767,-2.5119,-2.5119,-2.5187,-2.5219,-2.53,-2.5417,-2.6509,-2.8819,-2.9956,-3.1544,-3.3819,-3.3631,-3.3839,-3.461,-3.461,-3.461,-3.461,-3.461,-3.461,-3.461,-3.461,-3.4797,-3.5046,-3.5046,-3.517,-3.5418,-3.5418,-3.5418,-3.5418,-3.5418,-3.5418,-3.5418,-3.5418,-3.5418,-3.5542,-2.7316,-2.7439,-2.68,-2.5089,-2.397,-2.2665,-2.0825,-2.1777,-2.2438,-2.1795,-2.4147,-2.6238,-2.7134,-2.7677,-2.8486,-2.963,-2.9552,-2.9533,-2.9768,-2.8981,-2.8551,-2.8653,-2.956,-3.0567,-3.1497,-3.1198,-3.0894,-3.0605,-3.0372,-2.9667,-2.8641,-2.8219,-2.7919,-2.771,-2.7343,-2.7771,-2.8671,-2.6942,-2.7635,-2.9777,-2.8249,-2.8956,-3.1059,-3.233,-3.3202,-3.4073,-3.6279,-3.7469,-3.8287,-3.9932,-3.9438,-3.8176,-3.8306,-3.708,-3.5298,-3.3781,-3.2975,-3.2742,-3.3602,-3.4169,-3.4655,-3.521,-3.3515,-3.1271,-2.9679,-2.7206,-2.5031,-2.4292,-2.3837,-2.372,-2.4027,-2.4042,-2.386,-2.3263,-2.3629,-2.3781,-2.3156,-2.392,-2.454,-2.454,-2.4914,-2.5119,-2.5119,-2.539,-2.5727,-2.5965,-2.6352,-2.7916,-3.0882,-3.1139,-3.2435,-3.517,-3.5232,-3.5232,-3.5356,-3.5356,-3.5356,-3.5356,-3.5356,-3.5356,-3.5356,-3.5356,-3.5356,-3.5356,-3.5356,-3.5356,-3.5418,-3.5418,-3.5418,-3.5418,-3.5418,-3.5418,-3.5418,-3.5418,-3.5418,-3.55,-2.5493,-2.5061,-2.4409,-2.4286,-2.4011,-2.3563,-2.3064,-2.403,-2.4776,-2.4703,-2.6227,-2.7391,-2.7712,-2.8491,-2.9194,-2.9863,-2.9871,-3.0021,-3.0319,-3.0234,-2.9962,-2.9682,-3.0348,-3.0946,-3.1349,-3.1545,-3.1213,-3.0393,-2.9774,-2.9235,-2.876,-2.7765,-2.7417,-2.7614,-2.7724,-2.8371,-2.93,-2.8234,-2.8953,-3.0715,-2.9239,-2.9872,-3.1866,-3.2809,-3.3606,-3.4406,-3.5964,-3.7121,-3.7974,-3.8668,-3.8437,-3.7902,-3.7694,-3.6407,-3.4644,-3.3069,-3.2212,-3.2038,-3.3161,-3.4133,-3.499,-3.5444,-3.4799,-3.3285,-3.0528,-2.8893,-2.7259,-2.4889,-2.4291,-2.4291,-2.4627,-2.4349,-2.4101,-2.4058,-2.4065,-2.4042,-2.3781,-2.4225,-2.4569,-2.4569,-2.4929,-2.5119,-2.5119,-2.539,-2.5651,-2.5774,-2.6342,-2.7982,-3.0829,-3.2763,-3.432,-3.5356,-3.5418,-3.5418,-3.5418,-3.5418,-3.5418,-3.5418,-3.5418,-3.5418,-3.5418,-3.5418,-3.5418,-3.5418,-3.5418,-3.5418,-3.5418,-3.5418,-3.5418,-3.5418,-3.5418,-3.5418,-3.5418,-3.5418,-3.5418,-3.55,-2.3411,-2.2657,-2.2062,-2.2577,-2.3073,-2.3515,-2.4059,-2.5454,-2.6451,-2.6466,-2.7531,-2.8247,-2.8122,-2.9071,-2.9774,-2.9952,-3.0268,-3.0573,-3.0736,-3.1142,-3.1167,-3.0862,-3.1248,-3.1567,-3.1713,-3.1844,-3.1534,-3.0744,-2.9909,-2.9116,-2.8265,-2.7426,-2.7078,-2.7222,-2.7548,-2.8401,-2.9534,-2.8935,-2.9564,-3.0856,-2.9737,-3.0393,-3.2035,-3.2594,-3.3239,-3.3966,-3.5113,-3.61,-3.6911,-3.7233,-3.7126,-3.6741,-3.6192,-3.471,-3.3153,-3.2745,-3.1966,-3.1471,-3.2552,-3.3765,-3.4889,-3.5533,-3.5531,-3.4615,-3.1759,-3.0175,-2.8544,-2.5801,-2.4877,-2.4642,-2.4929,-2.4627,-2.4466,-2.4686,-2.454,-2.4393,-2.4393,-2.4583,-2.4797,-2.4797,-2.4987,-2.5119,-2.5119,-2.539,-2.5636,-2.5743,-2.6326,-2.7982,-3.0774,-3.3786,-3.5418,-3.5418,-3.5418,-3.5418,-3.5418,-3.5418,-3.5418,-3.5418,-3.5418,-3.5418,-3.5418,-3.5418,-3.5418,-3.5418,-3.5418,-3.5418,-3.5418,-3.5418,-3.5418,-3.5418,-3.5418,-3.5418,-3.5418,-3.5418,-3.5521,-3.5687,-2.129,-2.0709,-2.0309,-1.9584,-2.0886,-2.2243,-2.2995,-2.559,-2.7251,-2.6542,-2.7932,-2.8828,-2.8443,-2.942,-3.0083,-3.0083,-3.0762,-3.1233,-3.1233,-3.1497,-3.1777,-3.1998,-3.2015,-3.2265,-3.2889,-3.223,-3.1926,-3.1926,-3.1222,-2.9549,-2.7021,-2.7021,-2.6756,-2.638,-2.638,-2.7575,-2.9553,-2.8687,-2.9028,-3.0177,-2.9636,-3.0177,-3.1325,-3.1672,-3.2018,-3.242,-3.3572,-3.419,-3.4636,-3.5827,-3.5443,-3.4371,-3.3387,-3.171,-3.0475,-3.2752,-3.2189,-3.1093,-3.1822,-3.3016,-3.4354,-3.5413,-3.548,-3.4876,-3.3269,-3.0698,-2.8243,-2.698,-2.5612,-2.4635,-2.4635,-2.4899,-2.5119,-2.5119,-2.5119,-2.5119,-2.5119,-2.5119,-2.5119,-2.5119,-2.5119,-2.5119,-2.5119,-2.5457,-2.5794,-2.6078,-2.6532,-2.8081,-3.113,-3.3882,-3.5418,-3.5418,-3.5418,-3.5418,-3.5418,-3.5418,-3.5418,-3.5418,-3.5418,-3.5418,-3.5418,-3.5418,-3.5418,-3.5418,-3.5418,-3.5418,-3.5418,-3.5418,-3.5418,-3.5418,-3.5418,-3.5418,-3.5418,-3.5418,-3.5707,-3.6121,-2.068,-2.0884,-2.0808,-1.9431,-2.1929,-2.4161,-2.4394,-2.6803,-2.8451,-2.8277,-2.8883,-2.9405,-2.9591,-3.0114,-3.0679,-3.1165,-3.1688,-3.2176,-3.2715,-3.2859,-3.2339,-3.1129,-3.1774,-3.2217,-3.2428,-3.1896,-3.1641,-3.1641,-3.0214,-2.8768,-2.732,-2.6414,-2.587,-2.5772,-2.6722,-2.7864,-2.9058,-2.9792,-3.0335,-3.0684,-3.0509,-3.0801,-3.1325,-3.1383,-3.1672,-3.2018,-3.2342,-3.3042,-3.3866,-3.4181,-3.4626,-3.488,-3.3977,-3.2737,-3.1812,-3.2358,-3.2115,-3.1759,-3.1819,-3.2974,-3.4331,-3.5307,-3.584,-3.564,-3.3955,-3.2695,-3.1027,-2.798,-2.6964,-2.6331,-2.5174,-2.5061,-2.5119,-2.5119,-2.5119,-2.5119,-2.5119,-2.5119,-2.5457,-2.6368,-2.6501,-2.6886,-2.7883,-2.8328,-2.8608,-2.8674,-2.9965,-3.1083,-3.2046,-3.3713,-3.4673,-3.4673,-3.4673,-3.4673,-3.4673,-3.4922,-3.517,-3.5418,-3.517,-3.517,-3.5418,-3.5418,-3.5418,-3.5418,-3.5418,-3.5418,-3.5418,-3.5418,-3.5418,-3.5418,-3.5418,-3.5418,-3.5418,-3.5418,-3.5707,-3.6121,-2.036,-2.0309,-2.0373,-1.9903,-2.2208,-2.4594,-2.5607,-2.7624,-2.903,-2.9195,-2.9513,-2.992,-3.027,-3.0884,-3.1459,-3.1911,-3.244,-3.2894,-3.3335,-3.3418,-3.265,-3.1038,-3.1508,-3.1679,-3.1356,-3.1653,-3.1699,-3.1523,-3.046,-2.9347,-2.8289,-2.6934,-2.6349,-2.6496,-2.7356,-2.8097,-2.8897,-3.0466,-3.0937,-3.0625,-3.082,-3.0897,-3.0894,-3.0894,-3.0948,-3.1094,-3.1094,-3.1742,-3.2544,-3.2544,-3.3364,-3.4438,-3.4721,-3.386,-3.284,-3.3378,-3.2782,-3.1944,-3.2267,-3.2901,-3.3774,-3.4724,-3.5661,-3.6095,-3.4922,-3.3948,-3.2543,-2.9977,-2.8492,-2.727,-2.61,-2.5457,-2.5119,-2.5119,-2.551,-2.5712,-2.5187,-2.6048,-2.6886,-2.727,-2.78,-2.8526,-2.9492,-2.9817,-2.9947,-3.003,-3.1469,-3.2384,-3.2384,-3.365,-3.4423,-3.4423,-3.4423,-3.4423,-3.4423,-3.4667,-3.4855,-3.4984,-3.5105,-3.5168,-3.517,-3.5542,-3.5604,-3.5438,-3.5625,-3.5583,-3.5438,-3.5625,-3.5583,-3.5418,-3.5418,-3.5418,-3.5438,-3.5625,-3.5976,-3.6411,-2.0258,-1.9649,-1.9725,-2.0813,-2.2304,-2.4178,-2.6641,-2.8217,-2.9218,-2.9586,-2.9981,-3.041,-3.0822,-3.1756,-3.2378,-3.2416,-3.3015,-3.3418,-3.3418,-3.3292,-3.2556,-3.1194,-3.113,-3.072,-2.9886,-3.129,-3.1849,-3.1442,-3.1483,-3.0847,-2.9641,-2.8342,-2.7809,-2.7933,-2.8123,-2.835,-2.8828,-3.0575,-3.0918,-3.0293,-3.0684,-3.0566,-3.0195,-3.027,-3.0184,-3.0127,-3.0238,-3.063,-3.118,-3.122,-3.2023,-3.3343,-3.5504,-3.4964,-3.3799,-3.5363,-3.399,-3.215,-3.2868,-3.2998,-3.3055,-3.3834,-3.5179,-3.6239,-3.5972,-3.4674,-3.332,-3.2499,-3.0042,-2.785,-2.7403,-2.6301,-2.5457,-2.5457,-2.6501,-2.6886,-2.5712,-2.77,-2.9036,-2.8147,-2.9233,-3.023,-3.0567,-3.0595,-3.0578,-3.0595,-3.179,-3.2511,-3.2511,-3.365,-3.4298,-3.4298,-3.4338,-3.4358,-3.4358,-3.4545,-3.4545,-3.4483,-3.5199,-3.5389,-3.5002,-3.5747,-3.5852,-3.55,-3.5914,-3.5832,-3.5521,-3.5894,-3.5811,-3.5418,-3.5418,-3.5418,-3.548,-3.5935,-3.6411,-3.6867,-2.0076,-2.1271,-2.2236,-2.1191,-2.387,-2.6321,-2.6883,-2.863,-2.9911,-3.0004,-3.0789,-3.1516,-3.1937,-3.2363,-3.2805,-3.3136,-3.3296,-3.3418,-3.3418,-3.2365,-3.113,-2.9705,-2.9639,-2.9031,-2.7769,-2.9931,-3.1009,-3.0853,-3.1274,-3.1,-3.0002,-2.9694,-2.8581,-2.6907,-2.7986,-2.8352,-2.8234,-2.9392,-3.0225,-3.0723,-3.0449,-3.0293,-3.027,-3.0792,-3.0997,-3.1079,-3.193,-3.2028,-3.1819,-3.2189,-3.2833,-3.3704,-3.5161,-3.5666,-3.5726,-3.5794,-3.5359,-3.4634,-3.3436,-3.377,-3.4247,-3.3595,-3.4512,-3.5665,-3.587,-3.5603,-3.4819,-3.3068,-3.1926,-3.0836,-2.9426,-2.8657,-2.8328,-2.8328,-2.8526,-2.8723,-2.8706,-2.9553,-3.0535,-3.1697,-3.2431,-3.3179,-3.399,-3.3701,-3.3379,-3.3146,-3.3398,-3.3481,-3.3228,-3.3481,-3.3607,-3.3607,-3.3941,-3.4182,-3.4182,-3.4485,-3.4744,-3.4946,-3.5196,-3.5356,-3.5513,-3.5654,-3.5865,-3.607,-3.5706,-3.5728,-3.5935,-3.5687,-3.55,-3.5418,-3.5418,-3.5418,-3.548,-3.5935,-3.6411,-3.6929,-2.2162,-2.3486,-2.464,-2.4363,-2.5924,-2.7556,-2.8552,-2.9494,-3.0218,-3.0588,-3.1413,-3.2065,-3.2277,-3.2782,-3.3184,-3.3398,-3.3418,-3.3179,-3.2649,-3.194,-3.071,-2.8775,-2.8493,-2.7793,-2.6344,-2.8753,-3.0219,-3.0717,-3.1015,-3.1134,-3.1091,-3.0396,-2.9118,-2.7276,-2.8027,-2.7761,-2.6906,-2.8745,-2.9665,-2.9982,-3.0141,-3.0078,-2.99,-3.0058,-3.0282,-3.0689,-3.1254,-3.1482,-3.1698,-3.2437,-3.3289,-3.4219,-3.5387,-3.6344,-3.6994,-3.7006,-3.6538,-3.5862,-3.5231,-3.4954,-3.4816,-3.4386,-3.4734,-3.5232,-3.5603,-3.5809,-3.5479,-3.4113,-3.3151,-3.2181,-3.09,-3.0012,-2.9378,-2.9248,-2.9882,-3.0343,-3.0062,-3.152,-3.2832,-3.3478,-3.4187,-3.4779,-3.5184,-3.508,-3.477,-3.4443,-3.4435,-3.4266,-3.3879,-3.393,-3.3985,-3.3985,-3.4205,-3.4375,-3.4375,-3.4805,-3.512,-3.523,-3.5428,-3.5494,-3.5471,-3.5796,-3.6017,-3.5942,-3.5867,-3.5788,-3.5769,-3.5769,-3.5625,-3.5418,-3.5418,-3.5418,-3.55,-3.6183,-3.6867,-3.7529,-2.4792,-2.5725,-2.6789,-2.7787,-2.802,-2.8601,-3.031,-3.0498,-3.0686,-3.1195,-3.198,-3.2435,-3.2378,-3.2976,-3.3418,-3.3418,-3.3223,-3.2758,-3.1844,-3.1391,-3.0237,-2.8186,-2.7589,-2.6763,-2.5608,-2.749,-2.9162,-3.0447,-3.0899,-3.1426,-3.2168,-3.103,-2.9599,-2.7969,-2.8037,-2.7114,-2.5643,-2.7921,-2.8745,-2.8646,-2.9313,-2.9336,-2.9048,-2.9014,-2.9311,-2.9876,-3.0507,-3.1105,-3.1746,-3.2452,-3.3388,-3.441,-3.5633,-3.6788,-3.7843,-3.8567,-3.793,-3.7014,-3.7352,-3.6387,-3.5343,-3.5743,-3.554,-3.5335,-3.5644,-3.5788,-3.5665,-3.5108,-3.3988,-3.3024,-3.2454,-3.1304,-3.0337,-3.003,-3.1194,-3.1819,-3.1175,-3.3462,-3.5071,-3.4655,-3.5405,-3.5888,-3.5748,-3.5787,-3.5618,-3.5187,-3.526,-3.511,-3.4664,-3.4752,-3.4823,-3.4823,-3.4851,-3.487,-3.487,-3.5273,-3.5508,-3.5508,-3.5803,-3.5739,-3.5383,-3.601,-3.6078,-3.5648,-3.5936,-3.5802,-3.5376,-3.5748,-3.5644,-3.5294,-3.5356,-3.5418,-3.5521,-3.637,-3.7322,-3.8171,-2.5741,-2.7081,-2.8104,-2.8044,-2.9172,-3.031,-3.0547,-3.1417,-3.1903,-3.1658,-3.2603,-3.314,-3.277,-3.3101,-3.3418,-3.3418,-3.2577,-3.1938,-3.1797,-2.9767,-2.8429,-2.8132,-2.6867,-2.6154,-2.5959,-2.5692,-2.6832,-2.9375,-3.1488,-3.2393,-3.2229,-3.2046,-3.0395,-2.7576,-2.7918,-2.7114,-2.5517,-2.5893,-2.6487,-2.7228,-2.7009,-2.6859,-2.7006,-2.8653,-2.928,-2.9774,-3.2871,-3.367,-3.3191,-3.2839,-3.3048,-3.3649,-3.4945,-3.6601,-3.8319,-3.9782,-3.9927,-3.9476,-3.8964,-3.7844,-3.6937,-3.7559,-3.7132,-3.6621,-3.6946,-3.6258,-3.5418,-3.5356,-3.4984,-3.459,-3.4465,-3.3839,-3.3335,-3.3272,-3.3209,-3.3355,-3.3792,-3.4912,-3.5885,-3.6398,-3.69,-3.7215,-3.7218,-3.6844,-3.6488,-3.617,-3.6167,-3.5973,-3.5654,-3.563,-3.5606,-3.5606,-3.5699,-3.5719,-3.5719,-3.5838,-3.5937,-3.5937,-3.5918,-3.5966,-3.5888,-3.5929,-3.5911,-3.5864,-3.5425,-3.5234,-3.5156,-3.5084,-3.5045,-3.4984,-3.5294,-3.5418,-3.548,-3.6018,-3.7053,-3.8129,-2.7558,-2.881,-2.9804,-2.9686,-3.0132,-3.0638,-3.1067,-3.1565,-3.1876,-3.1614,-3.2416,-3.291,-3.25,-3.284,-3.2797,-3.1958,-3.1338,-3.0474,-2.9406,-2.8201,-2.726,-2.6858,-2.6012,-2.5627,-2.5627,-2.593,-2.6626,-2.7675,-2.877,-3.002,-3.137,-3.0541,-2.893,-2.6687,-2.6867,-2.5977,-2.4414,-2.4487,-2.4667,-2.4952,-2.5246,-2.5403,-2.5534,-2.68,-2.8108,-2.9679,-3.2424,-3.3228,-3.291,-3.2563,-3.2928,-3.372,-3.4286,-3.5613,-3.7167,-3.804,-3.8824,-3.9419,-3.9307,-3.9093,-3.8981,-3.9273,-3.8709,-3.8186,-3.8328,-3.791,-3.7149,-3.5726,-3.5294,-3.5108,-3.4922,-3.4673,-3.4423,-3.4235,-3.4235,-3.4441,-3.5017,-3.5593,-3.6195,-3.6699,-3.7218,-3.7384,-3.7136,-3.7156,-3.7074,-3.6889,-3.7097,-3.7053,-3.6676,-3.6729,-3.6656,-3.6461,-3.6489,-3.6576,-3.6576,-3.6574,-3.6471,-3.6268,-3.6268,-3.62,-3.5996,-3.572,-3.5724,-3.5865,-3.5167,-3.4896,-3.5067,-3.473,-3.461,-3.4673,-3.4984,-3.5397,-3.5832,-3.6039,-3.6825,-3.7777]},{"header":{"parameterUnit":"m.s-1","parameterCategory":1,"la1":30.6,"la2":28.766,"lo1":-90.7593,"lo2":-88.6598,"dy":0.0162,"dx":0.0183,"nx":116,"ny":114,"refTime":"2024-03-04T18:00:00:Z","depth":0,"parameterNumber":3,"parameterNumberName":"V-component_of_WINDS"},"data":[0.0,0.0,0.0,0.0,0.0,0.0,0.0,0.0,0.0,0.0,0.0,0.0,0.0,0.0,0.0,0.0,0.0,0.0,0.0,0.0,0.0,0.0,0.0,0.0,0.0,0.0,0.0,0.0,0.0,0.0,0.0,0.0,0.0,0.0,0.0,0.0,0.0,0.0,0.0,0.0,0.0,0.0,0.0,0.0,0.0,0.0,0.0,0.0,0.0,0.0,0.0,0.0,0.0,0.0,0.0,0.0,0.0,0.0,0.0,0.0,0.0,0.0,0.0,0.0,0.0,0.0,0.0,0.0,0.0,0.0,0.0,0.0,0.0,0.0,0.0,0.0,0.0,0.0,0.0,0.0,0.0,0.0,0.0,0.0,0.0,0.0,0.0,0.0,0.0,0.0,0.0,0.0,0.0,0.0,0.0,0.0,0.0,0.0,0.0,0.0,0.0,0.0,0.0,0.0,0.0,0.0,0.0,0.0,0.0,0.0,0.0,0.0,0.0,0.0,0.0,0.0,0.0,0.0,0.0,0.0,0.0,0.0,0.0,0.0,0.0,0.0,0.0,0.0,0.0,0.0,0.0,0.0,0.0,0.0,0.0,0.0,0.0,0.0,0.0,0.0,0.0,0.0,0.0,0.0,0.0,0.0,0.0,0.0,0.0,0.0,0.0,0.0,0.0,0.0,0.0,0.0,0.0,0.0,0.0,0.0,0.0,0.0,0.0,0.0,0.0,0.0,0.0,0.0,0.0,0.0,0.0,0.0,0.0,0.0,0.0,0.0,0.0,0.0,0.0,0.0,0.0,0.0,0.0,0.0,0.0,0.0,0.0,0.0,0.0,0.0,0.0,0.0,0.0,0.0,0.0,0.0,0.0,0.0,0.0,0.0,0.0,0.0,0.0,0.0,0.0,0.0,0.0,0.0,0.0,0.0,0.0,0.0,0.0,0.0,0.0,0.0,0.0,0.0,0.0,0.0,0.0,0.0,0.0,0.0,0.0,0.0,0.0,0.0,0.0,0.0,0.0,0.0,0.0,0.0,0.0,0.0,0.0,0.0,0.0,0.0,0.0,0.0,0.0,0.0,0.0,0.0,0.0,0.0,0.0,0.0,0.0,0.0,0.0,0.0,0.0,0.0,0.0,0.0,0.0,0.0,0.0,0.0,0.0,0.0,0.0,0.0,0.0,0.0,0.0,0.0,0.0,0.0,0.0,0.0,0.0,0.0,0.0,0.0,0.0,0.0,0.0,0.0,0.0,0.0,0.0,0.0,0.0,0.0,0.0,0.0,0.0,0.0,0.0,0.0,0.0,0.0,0.0,0.0,0.0,0.0,0.0,0.0,0.0,0.0,0.0,0.0,0.0,0.0,0.0,0.0,0.0,0.0,0.0,0.0,0.0,0.0,0.0,0.0,0.0,0.0,0.0,0.0,0.0,0.0,0.0,0.0,0.0,0.0,0.0,0.0,0.0,0.0,0.0,0.0,0.0,0.0,0.0,0.0,0.0,0.0,0.0,0.0,0.0,0.0,0.0,0.0,0.0,0.0,0.0,0.0,0.0,0.0,0.0,0.0,0.0,0.0,0.0,0.0,0.0,0.0,0.0,0.0,0.0,0.0,0.0,0.0,0.0,0.0,0.0,0.0,0.0,0.0,0.0,0.0,0.0,0.0,0.0,0.0,0.0,0.0,0.0,0.0,0.0,0.0,0.0,0.0,0.0,0.0,0.0,0.0,0.0,0.0,0.0,0.0,0.0,0.0,0.0,0.0,0.0,0.0,0.0,0.0,0.0,0.0,0.0,0.0,0.0,0.0,0.0,0.0,0.0,0.0,0.0,0.0,0.0,0.0,0.0,0.0,0.0,0.0,0.0,0.0,0.0,0.0,0.0,0.0,0.0,0.0,0.0,0.0,0.0,0.0,0.0,0.0,0.0,0.0,0.0,0.0,0.0,0.0,0.0,0.0,0.0,0.0,0.0,0.0,0.0,0.0,0.0,0.0,0.0,0.0,0.0,0.0,0.0,0.0,0.0,0.0,0.0,0.0,0.0,0.0,0.0,0.0,0.0,0.0,0.0,0.0,0.0,0.0,0.0,0.0,0.0,0.0,0.0,0.0,0.0,0.0,0.0,0.0,0.0,0.0,0.0,0.0,0.0,0.0,0.0,0.0,0.0,0.0,0.0,0.0,0.0,0.0,0.0,0.0,0.0,0.0,0.0,0.0,0.0,0.0,0.0,0.0,0.0,0.0,0.0,0.0,0.0,0.0,0.0,0.0,0.0,0.0,0.0,0.0,0.0,0.0,0.0,0.0,0.0,0.0,0.0,0.0,0.0,0.0,0.0,0.0,0.0,0.0,0.0,0.0,0.0,0.0,0.0,0.0,0.0,0.0,0.0,0.0,0.0,0.0,0.0,0.0,0.0,0.0,0.0,0.0,0.0,0.0,0.0,0.0,0.0,0.0,0.0,0.0,0.0,0.0,0.0,0.0,0.0,0.0,0.0,0.0,0.0,0.0,0.0,0.0,0.0,0.0,0.0,0.0,0.0,0.0,0.0,0.0,0.0,0.0,0.0,0.0,0.0,0.0,0.0,0.0,0.0,0.0,0.0,0.0,0.0,0.0,0.0,0.0,0.0,0.0,0.0,0.0,0.0,0.0,0.0,0.0,0.0,0.0,0.0,0.0,0.0,0.0,0.0,0.0,0.0,0.0,0.0,0.0,0.0,0.0,0.0,0.0,0.0,0.0,0.0,0.0,0.0,0.0,0.0,0.0,0.0,0.0,0.0,0.0,0.0,0.0,0.0,0.0,0.0,0.0,0.0,0.0,0.0,0.0,0.0,0.0,0.0,0.0,0.0,0.0,0.0,0.0,0.0,0.0,0.0,0.0,0.0,0.0,0.0,0.0,0.0,0.0,0.0,0.0,0.0,0.0,0.0,0.0,0.0,0.0,0.0,0.0,0.0,0.0,0.0,0.0,0.0,0.0,0.0,0.0,0.0,0.0,0.0,0.0,0.0,0.0,0.0,0.0,0.0,0.0,0.0,0.0,0.0,0.0,0.0,0.0,0.0,0.0,0.0,0.0,0.0,0.0,0.0,0.0,0.0,0.0,0.0,0.0,0.0,0.0,0.0,0.0,0.0,0.0,0.0,0.0,0.0,0.0,0.0,0.0,0.0,0.0,0.0,0.0,0.0,0.0,0.0,0.0,0.0,0.0,0.0,0.0,0.0,0.0,0.0,0.0,0.0,0.0,0.0,0.0,0.0,0.0,0.0,0.0,0.0,0.0,0.0,0.0,0.0,0.0,0.0,0.0,0.0,0.0,0.0,0.0,0.0,0.0,0.0,0.0,0.0,0.0,0.0,0.0,0.0,0.0,0.0,0.0,0.0,0.0,0.0,0.0,0.0,0.0,0.0,0.0,0.0,0.0,0.0,0.0,0.0,0.0,0.0,0.0,0.0,0.0,0.0,0.0,0.0,0.0,0.0,0.0,0.0,0.0,0.0,0.0,0.0,0.0,0.0,0.0,0.0,0.0,0.0,0.0,0.0,0.0,0.0,0.0,0.0,0.0,0.0,0.0,0.0,0.0,0.0,0.0,0.0,0.0,0.0,0.0,0.0,0.0,0.0,0.0,0.0,0.0,0.0,0.0,0.0,0.0,0.0,0.0,0.0,0.0,0.0,0.0,0.0,0.0,0.0,0.0,0.0,0.0,0.0,0.0,0.0,0.0,0.0,0.0,0.0,0.0,0.0,0.0,0.0,0.0,0.0,0.0,0.0,0.0,0.0,0.0,0.0,0.0,0.0,0.0,0.0,0.0,0.0,0.0,0.0,0.0,0.0,0.0,0.0,0.0,0.0,0.0,0.0,0.0,0.0,0.0,0.0,0.0,0.0,0.0,0.0,0.0,0.0,0.0,0.0,0.0,0.0,0.0,0.0,0.0,0.0,0.0,0.0,0.0,0.0,0.0,0.0,0.0,0.0,0.0,0.0,0.0,0.0,0.0,0.0,0.0,0.0,0.0,0.0,0.0,0.0,0.0,0.0,0.0,0.0,0.0,0.0,0.0,0.0,0.0,0.0,0.0,0.0,0.0,0.0,0.0,0.0,0.0,0.0,0.0,0.0,0.0,0.0,0.0,0.0,0.0,0.0,0.0,0.0,0.0,0.0,0.0,0.0,0.0,0.0,0.0,0.0,0.0,0.0,0.0,0.0,0.0,0.0,0.0,0.0,0.0,0.0,0.0,0.0,0.0,0.0,0.0,0.0,0.0,0.0,0.0,0.0,0.0,0.0,0.0,0.0,0.0,0.0,0.0,0.0,0.0,0.0,0.0,0.0,0.0,0.0,0.0,0.0,0.0,0.0,0.0,0.0,0.0,0.0,0.0,0.0,0.0,0.0,0.0,0.0,0.0,0.0,0.0,0.0,0.0,0.0,0.0,0.0,0.0,0.0,0.0,0.0,0.0,0.0,0.0,0.0,0.0,0.0,0.0,0.0,0.0,0.0,0.0,0.0,0.0,0.0,0.0,0.0,0.0,0.0,0.0,0.0,0.0,0.0,0.0,0.0,0.0,0.0,0.0,0.0,0.0,0.0,0.0,0.0,0.0,0.0,0.0,0.0,0.0,0.0,0.0,0.0,0.0,0.0,0.0,0.0,0.0,0.0,0.0,0.0,0.0,0.0,0.0,0.0,0.0,0.0,0.0,0.0,0.0,0.0,0.0,0.0,0.0,0.0,0.0,0.0,0.0,0.0,0.0,0.0,0.0,0.0,0.0,0.0,0.0,0.0,0.0,0.0,0.0,0.0,0.0,0.0,0.0,0.0,0.0,0.0,0.0,0.0,0.0,0.0,0.0,0.0,0.0,0.0,0.0,0.0,0.0,0.0,0.0,0.0,0.0,0.0,0.0,0.0,0.0,0.0,0.0,0.0,0.0,0.0,0.0,0.0,0.0,0.0,0.0,0.0,0.0,0.0,0.0,0.0,0.0,0.0,0.0,0.0,0.0,0.0,0.0,0.0,0.0,0.0,0.0,0.0,0.0,0.0,0.0,0.0,0.0,0.0,0.0,0.0,0.0,0.0,0.0,0.0,0.0,0.0,0.0,0.0,0.0,0.0,0.0,0.0,0.0,0.0,0.0,0.0,0.0,0.0,0.0,0.0,0.0,0.0,0.0,0.0,0.0,0.0,0.0,0.0,0.0,0.0,0.0,0.0,0.0,0.0,0.0,0.0,0.0,0.0,0.0,0.0,0.0,0.0,0.0,0.0,0.0,0.0,0.0,0.0,0.0,0.0,0.0,0.0,0.0,0.0,0.0,0.0,0.0,0.0,0.0,0.0,0.0,0.0,0.0,0.0,0.0,0.0,0.0,0.0,0.0,0.0,0.0,0.0,0.0,0.0,0.0,0.0,0.0,0.0,0.0,0.0,0.0,0.0,0.0,0.0,0.0,0.0,0.0,0.0,0.0,0.0,0.0,0.0,0.0,0.0,0.0,0.0,0.0,0.0,0.0,0.0,0.0,0.0,0.0,0.0,0.0,0.0,0.0,0.0,0.0,0.0,0.0,0.0,0.0,0.0,0.0,0.0,0.0,0.0,0.0,0.0,0.0,0.0,0.0,0.0,0.0,0.0,0.0,0.0,0.0,0.0,0.0,0.0,0.0,0.0,0.0,0.0,0.0,0.0,0.0,0.0,0.0,0.0,0.0,0.0,0.0,0.0,0.0,0.0,0.0,0.0,0.0,0.0,0.0,0.0,0.0,0.0,0.0,0.0,0.0,0.0,0.0,0.0,0.0,0.0,0.0,0.0,0.0,0.0,0.0,0.0,0.0,0.0,0.0,0.0,0.0,0.0,0.0,0.0,0.0,0.0,0.0,0.0,0.0,0.0,0.0,0.0,0.0,0.0,0.0,0.0,0.0,0.0,0.0,0.0,0.0,0.0,0.0,0.0,0.0,0.0,0.0,0.0,0.0,0.0,0.0,0.0,0.0,0.0,0.0,0.0,0.0,0.0,0.0,0.0,0.0,0.0,0.0,0.0,0.0,0.0,0.0,0.0,0.0,0.0,0.0,0.0,0.0,0.0,0.0,0.0,0.0,0.0,0.0,0.0,0.0,0.0,0.0,6.4375,6.3356,0.0,0.0,0.0,0.0,0.0,0.0,0.0,0.0,0.0,0.0,0.0,0.0,0.0,0.0,0.0,0.0,0.0,0.0,0.0,0.0,0.0,0.0,0.0,0.0,0.0,0.0,5.4905,5.5615,5.6731,5.6765,0.0,0.0,0.0,0.0,5.6258,5.6934,5.7306,5.7306,5.7737,5.8562,5.9692,5.8544,5.717,5.5684,0.0,0.0,0.0,0.0,0.0,0.0,0.0,0.0,0.0,0.0,0.0,0.0,0.0,0.0,0.0,0.0,0.0,0.0,0.0,0.0,0.0,0.0,0.0,0.0,0.0,0.0,0.0,0.0,0.0,0.0,0.0,0.0,0.0,0.0,0.0,0.0,0.0,0.0,0.0,0.0,0.0,0.0,0.0,0.0,0.0,0.0,0.0,0.0,0.0,0.0,0.0,0.0,0.0,0.0,0.0,0.0,0.0,0.0,0.0,0.0,0.0,0.0,0.0,0.0,0.0,0.0,0.0,0.0,0.0,0.0,6.7037,6.4903,0.0,0.0,0.0,0.0,0.0,0.0,0.0,0.0,0.0,0.0,0.0,0.0,0.0,0.0,0.0,0.0,0.0,0.0,0.0,0.0,0.0,0.0,0.0,5.1545,5.2817,5.4669,5.5381,5.6091,5.698,5.7448,5.7476,5.7002,5.8287,5.8457,5.7205,5.866,5.9478,5.9667,6.0843,6.2061,6.3191,6.2062,6.0337,5.8167,5.8017,0.0,0.0,0.0,0.0,0.0,0.0,0.0,0.0,0.0,0.0,0.0,0.0,0.0,0.0,0.0,0.0,0.0,0.0,0.0,0.0,0.0,0.0,0.0,0.0,0.0,0.0,0.0,0.0,0.0,0.0,0.0,0.0,0.0,0.0,0.0,0.0,0.0,0.0,0.0,0.0,0.0,0.0,0.0,0.0,0.0,0.0,0.0,0.0,0.0,0.0,0.0,0.0,0.0,0.0,0.0,0.0,0.0,0.0,0.0,0.0,0.0,0.0,0.0,7.7997,7.823,7.9047,7.8387,7.7706,7.6793,7.16,6.8482,6.6972,6.647,0.0,0.0,0.0,0.0,0.0,0.0,0.0,0.0,0.0,0.0,0.0,0.0,0.0,0.0,0.0,0.0,0.0,0.0,0.0,0.0,0.0,5.2375,5.3601,5.5495,5.5689,5.6336,5.7735,5.7292,5.7171,5.7712,5.8558,5.893,5.8727,6.0216,6.1419,6.2193,6.4479,6.5358,6.4901,6.5459,6.4782,6.2965,5.8892,5.7782,5.8889,0.0,0.0,0.0,0.0,0.0,0.0,0.0,0.0,0.0,0.0,0.0,0.0,0.0,0.0,0.0,0.0,0.0,0.0,0.0,0.0,0.0,0.0,0.0,0.0,0.0,0.0,0.0,0.0,0.0,0.0,0.0,0.0,0.0,0.0,0.0,0.0,0.0,0.0,0.0,0.0,0.0,6.1252,6.2917,0.0,0.0,0.0,0.0,0.0,0.0,0.0,0.0,0.0,0.0,0.0,0.0,0.0,7.8927,7.8814,7.9698,8.028,8.0454,8.1208,8.2033,8.289,8.276,8.2646,8.2472,8.0772,0.0,7.2105,7.0609,0.0,0.0,0.0,0.0,0.0,0.0,0.0,0.0,0.0,0.0,0.0,0.0,0.0,0.0,0.0,0.0,0.0,0.0,0.0,0.0,0.0,5.3746,5.5244,5.6896,5.827,5.9125,5.9341,5.9855,5.9665,5.8599,5.973,6.0333,6.0283,6.2282,6.4491,6.6787,6.7923,6.8512,6.8633,6.8101,6.721,6.5972,6.2966,6.1234,6.0537,5.9345,0.0,0.0,0.0,0.0,0.0,0.0,0.0,0.0,0.0,0.0,0.0,0.0,0.0,0.0,0.0,0.0,0.0,0.0,0.0,0.0,0.0,0.0,0.0,0.0,0.0,0.0,0.0,0.0,0.0,0.0,0.0,0.0,0.0,0.0,0.0,0.0,0.0,0.0,0.0,6.1745,6.3926,6.3718,6.5924,6.7389,0.0,0.0,0.0,0.0,0.0,0.0,0.0,0.0,0.0,7.9502,8.2337,8.3868,8.3868,8.4748,8.5437,8.5934,8.6057,8.66,8.74,8.7421,8.7421,8.7383,8.6772,8.4462,8.0811,7.6114,7.3464,7.2142,0.0,0.0,0.0,0.0,7.0718,7.1113,0.0,0.0,0.0,0.0,0.0,0.0,0.0,0.0,0.0,0.0,0.0,0.0,5.3567,5.551,5.73,5.8819,6.0595,6.1503,6.1056,6.1756,6.145,5.979,6.1046,6.1883,6.2267,6.5088,6.7757,7.0292,7.0729,7.1198,7.1578,7.0183,6.8972,6.7944,6.6769,6.4861,6.2475,6.1227,6.0382,5.9722,0.0,0.0,0.0,0.0,0.0,0.0,0.0,0.0,0.0,0.0,0.0,0.0,0.0,0.0,0.0,0.0,0.0,0.0,0.0,0.0,0.0,0.0,0.0,0.0,0.0,0.0,0.0,0.0,0.0,0.0,0.0,0.0,0.0,0.0,0.0,0.0,0.0,6.4,6.6449,6.5168,6.8486,7.0441,0.0,0.0,0.0,0.0,0.0,0.0,7.8076,8.106,8.3161,8.4194,8.6708,8.8132,8.8363,8.9017,8.9748,9.0538,9.0242,9.0513,9.1353,9.1435,9.1254,9.0819,9.0566,8.9343,8.7057,8.1078,7.77,7.6084,7.4353,7.365,7.3764,7.4353,7.4923,7.5436,0.0,0.0,0.0,0.0,0.0,0.0,0.0,0.0,0.0,0.0,0.0,5.4755,5.5583,5.7724,5.9769,6.1376,6.1557,6.19,6.2637,6.1319,6.0822,6.1428,6.2241,6.3341,6.4895,6.8844,7.0951,7.1055,7.2705,7.3164,7.2422,7.1578,7.0367,6.8862,6.8752,6.7393,6.4971,6.2548,6.152,6.1337,5.9795,0.0,0.0,0.0,0.0,0.0,0.0,0.0,0.0,0.0,0.0,0.0,0.0,0.0,0.0,0.0,0.0,0.0,0.0,0.0,0.0,0.0,0.0,0.0,0.0,0.0,0.0,0.0,0.0,0.0,0.0,0.0,0.0,0.0,0.0,0.0,0.0,0.0,0.0,6.8667,7.2345,0.0,0.0,0.0,0.0,7.6064,7.776,7.968,8.1897,8.4484,8.6637,8.8346,8.9269,9.0171,9.1018,9.1056,9.1518,9.2364,9.2598,9.317,9.4048,9.4247,9.353,9.2013,9.2,9.0426,8.7653,8.4562,8.2276,8.0584,7.8854,7.8162,7.8162,7.8239,7.8277,7.8231,0.0,0.0,0.0,0.0,0.0,0.0,0.0,0.0,5.115,5.2176,5.3661,5.5073,5.6365,5.8651,6.0703,6.2282,6.3852,6.4466,6.3663,6.4066,6.3731,6.242,6.3574,6.5259,6.7438,7.0774,7.2589,7.2778,7.3406,7.356,7.323,7.1945,7.0734,6.9669,6.9669,6.8605,6.6659,6.4237,6.2879,6.2181,6.0065,5.9038,0.0,0.0,0.0,0.0,0.0,0.0,0.0,0.0,0.0,0.0,0.0,0.0,0.0,0.0,0.0,0.0,0.0,0.0,0.0,0.0,0.0,0.0,0.0,0.0,0.0,0.0,0.0,0.0,0.0,0.0,0.0,0.0,0.0,0.0,0.0,0.0,0.0,7.3653,7.7335,0.0,7.739,7.8139,7.9118,8.0114,8.182,8.3867,8.6286,8.8825,9.0748,9.1864,9.3287,9.4172,9.448,9.448,9.4427,9.438,9.409,9.3985,9.3963,9.4037,9.3737,9.3162,9.2442,9.1253,8.9634,8.6959,8.494,8.3439,8.2247,8.1785,8.1785,8.1785,8.2131,8.2538,0.0,0.0,0.0,0.0,0.0,0.0,0.0,0.0,5.2145,5.2951,5.4638,5.6403,5.7933,6.0252,6.2231,6.3548,6.5286,6.5742,6.4414,6.5078,6.5025,6.3925,6.5934,6.7945,6.977,7.2346,7.3665,7.3591,7.3668,7.356,7.3266,7.2202,7.1284,7.0513,7.077,6.9853,6.7981,6.6402,6.4934,6.3441,6.1276,6.0395,6.0138,0.0,0.0,0.0,0.0,0.0,0.0,0.0,0.0,0.0,0.0,0.0,0.0,0.0,0.0,0.0,0.0,0.0,0.0,0.0,0.0,0.0,0.0,0.0,0.0,0.0,0.0,0.0,0.0,0.0,0.0,0.0,0.0,0.0,0.0,7.2113,7.5731,7.7394,8.114,8.2901,8.1246,8.2631,8.3901,8.4401,8.6055,8.8017,9.0248,9.2249,9.3864,9.4941,9.5826,9.6442,9.6711,9.6442,9.6,9.5407,9.4855,9.4314,9.3798,9.3627,9.3206,9.2638,9.1884,9.0728,8.925,8.755,8.5887,8.4344,8.377,8.354,8.354,8.354,8.3995,8.4558,0.0,0.0,0.0,0.0,0.0,0.0,0.0,5.2123,5.3483,5.4348,5.6598,5.8707,6.0323,6.2605,6.4383,6.5228,6.5716,6.562,6.4815,6.4056,6.4354,6.5992,6.9266,7.1326,7.1878,7.3723,7.4262,7.3479,7.3619,7.3317,7.2553,7.2553,7.2112,7.1377,7.2186,7.1231,6.899,6.899,6.763,6.529,6.3539,6.2842,6.256,0.0,0.0,0.0,0.0,0.0,0.0,0.0,0.0,0.0,0.0,0.0,0.0,0.0,0.0,0.0,0.0,0.0,0.0,0.0,0.0,0.0,0.0,0.0,0.0,0.0,0.0,0.0,0.0,0.0,0.0,0.0,0.0,0.0,7.0135,7.4436,7.8054,7.9823,8.3708,8.5632,8.3978,8.6863,8.8825,8.8825,9.0364,9.2018,9.3633,9.4595,9.5788,9.7403,9.6749,9.6711,9.7442,9.6673,9.6,9.5407,9.4817,9.4276,9.3731,9.32,9.2022,9.0462,9.0424,8.8906,8.6422,8.6346,8.5185,8.3438,8.3422,8.3407,8.343,8.3468,8.3773,8.4175,0.0,0.0,0.0,0.0,0.0,0.0,4.9125,5.1173,5.2828,5.3611,5.6266,5.8707,6.0323,6.2094,6.3759,6.5191,6.5197,6.4879,6.4316,6.4424,6.5456,6.7715,7.065,7.2656,7.3581,7.5136,7.5582,7.4899,7.4376,7.4019,7.3794,7.3818,7.333,7.2557,7.3405,7.2754,7.0991,7.1006,7.0042,6.8284,6.5052,6.3723,6.3539,0.0,0.0,0.0,0.0,0.0,0.0,0.0,0.0,0.0,0.0,0.0,0.0,0.0,0.0,0.0,0.0,0.0,0.0,0.0,0.0,0.0,0.0,0.0,0.0,0.0,0.0,0.0,0.0,0.0,0.0,0.0,6.8678,7.1771,7.4075,7.7647,8.1362,8.4901,8.7979,8.9633,8.9171,9.1056,9.2056,9.1479,9.3018,9.4172,9.4595,9.6019,9.6749,9.6634,9.698,9.7019,9.6634,9.6403,9.6,9.5407,9.4272,9.3445,9.2897,9.1709,9.061,8.9607,8.9013,8.7954,8.6579,8.5454,8.4609,8.4152,8.4276,8.4176,8.4035,8.4625,8.4768,8.4498,0.0,0.0,0.0,0.0,0.0,0.0,4.8526,5.0535,5.2199,5.3242,5.5841,5.8223,5.9786,6.1371,6.2695,6.3686,6.3981,6.3867,6.3413,6.515,6.723,6.9608,7.194,7.3794,7.4999,7.5568,7.5685,7.5352,7.4649,7.4293,7.4293,7.4315,7.4013,7.3598,7.4051,7.3581,7.2298,7.2314,7.1444,6.9934,6.7701,6.6479,6.5755,6.3722,6.3354,6.372,6.3084,6.2893,6.2811,6.1939,0.0,0.0,0.0,0.0,0.0,0.0,0.0,0.0,0.0,0.0,0.0,0.0,0.0,0.0,0.0,0.0,0.0,0.0,0.0,0.0,0.0,0.0,0.0,0.0,7.1939,7.5207,7.7784,8.0439,8.3708,8.794,9.0402,9.1864,9.221,9.3787,9.4441,9.3595,9.4788,9.5518,9.5518,9.648,9.6788,9.6326,9.6749,9.6788,9.6288,9.5942,9.5345,9.4539,9.3389,9.2442,9.1687,9.0875,8.9867,8.8753,8.8307,8.723,8.5706,8.4778,8.4108,8.3714,0.0,0.0,0.0,0.0,8.3906,8.3892,0.0,0.0,0.0,0.0,0.0,0.0,4.7985,4.9694,5.1189,5.2628,5.5033,5.7141,5.8529,6.0078,6.1117,6.13,6.2118,6.2653,6.2774,6.6114,6.9152,7.1443,7.3212,7.4774,7.613,7.5616,7.5333,7.5333,7.4881,7.4636,7.4636,7.4712,7.4712,7.4636,7.4636,7.4145,7.3333,7.3144,7.2195,7.0793,7.0604,6.9762,6.8367,6.6224,6.6158,6.7051,6.6091,6.5252,6.4541,6.4394,0.0,0.0,0.0,0.0,0.0,0.0,0.0,0.0,0.0,0.0,0.0,0.0,0.0,0.0,0.0,0.0,0.0,0.0,0.0,0.0,0.0,0.0,0.0,0.0,7.5515,7.8631,8.117,8.2978,8.5478,8.944,9.1518,9.2941,9.3749,9.5326,9.598,9.5211,9.5865,9.6288,9.6288,9.6288,0.0,0.0,0.0,9.6249,9.6115,9.5365,9.4439,9.334,9.2392,9.1439,9.0477,9.0196,8.9236,8.7787,8.7712,8.6375,8.4257,8.4257,8.3695,8.2786,8.2724,8.2298,8.1705,8.1705,8.2186,8.2759,0.0,0.0,0.0,0.0,0.0,0.0,4.5159,4.6697,4.8208,4.9641,5.2369,5.4506,5.5402,5.6825,5.8253,5.9575,5.9643,6.1184,6.4821,6.7012,6.9437,7.2321,7.4488,7.6056,7.7015,7.694,7.6871,7.6871,7.6792,7.6706,7.6744,7.7358,7.7319,7.6706,7.6706,7.6245,7.5325,7.3967,7.2931,7.2124,7.0736,6.9778,6.911,6.87,6.8706,6.8941,6.9137,6.951,6.9596,6.7616,6.7212,6.7078,6.4171,6.2747,0.0,0.0,0.0,0.0,0.0,0.0,0.0,0.0,0.0,0.0,0.0,0.0,0.0,0.0,0.0,0.0,0.0,0.0,0.0,7.4784,7.813,8.1246,8.3824,8.5593,8.7478,8.9633,9.2018,9.3787,9.4672,9.5672,9.6249,9.6057,9.6211,9.6288,9.6288,9.6288,9.6251,9.6136,9.6251,9.5904,9.508,9.502,9.433,9.2983,9.1753,0.0,9.0097,8.833,8.7007,8.6041,8.5409,8.448,8.3403,8.3403,8.3356,8.3232,8.2948,8.3133,8.344,8.2518,8.2265,8.2304,0.0,0.0,0.0,0.0,0.0,0.0,4.3775,4.4621,4.5778,4.7607,4.9528,5.1123,5.224,5.3639,5.4984,5.621,5.7949,6.0811,6.5183,6.7562,7.044,7.4188,7.5426,7.6399,7.7284,7.6861,7.6861,7.7284,7.6861,7.6861,7.7284,7.7246,7.7015,7.663,7.663,7.6169,7.5284,7.4476,7.3437,7.2348,7.1505,7.0713,7.0078,6.9849,7.0187,7.0849,7.1098,7.1548,7.1782,7.0425,6.9873,6.9429,6.7454,6.6009,6.4771,0.0,0.0,0.0,0.0,0.0,0.0,0.0,0.0,0.0,0.0,0.0,0.0,0.0,0.0,6.7167,6.9244,0.0,7.4707,7.8515,8.0592,8.2593,8.5132,8.6978,8.8517,8.9748,9.2133,9.4018,9.4903,9.5788,9.6288,9.6288,9.6288,9.6288,9.6288,9.6232,9.6155,9.6098,9.6098,9.5656,9.4753,9.4427,9.3443,9.181,9.0722,8.9838,8.9056,8.7494,8.6375,8.5558,8.474,8.3923,8.321,8.3452,8.3592,8.3562,8.2841,8.2817,8.3072,8.2067,8.1708,8.1631,0.0,0.0,0.0,0.0,0.0,0.0,0.0,4.3071,4.3824,4.5596,4.6664,4.7631,4.8685,5.0152,5.1597,5.2821,5.6486,6.0545,6.4775,6.7806,7.1329,7.5562,7.6053,7.6515,7.7053,7.6361,7.6322,7.7053,7.6515,7.6592,7.7284,7.6626,7.6321,7.6283,7.6004,7.5451,7.4742,7.442,7.3391,7.1937,7.1783,7.1206,7.0371,6.9743,7.0639,7.2168,7.2014,7.208,7.2243,7.203,7.1264,7.0325,6.987,6.8819,6.7263,6.4779,6.487,0.0,0.0,0.0,0.0,0.0,0.0,0.0,0.0,6.382,6.4782,6.6513,6.8359,7.0706,7.4284,7.5515,7.74,8.1823,8.267,8.3632,8.6017,8.7709,8.8979,8.9825,9.2133,9.4018,9.4903,9.5788,9.6288,9.6288,9.6288,9.6288,9.6288,9.6155,9.6098,9.6078,9.5961,9.544,9.4403,9.385,9.2546,9.0487,8.9868,8.8974,8.7824,8.6969,8.6115,8.5298,8.4518,8.37,8.3016,8.3535,8.3517,8.3085,8.2364,8.1928,8.1743,8.109,8.0822,8.0822,0.0,0.0,0.0,0.0,0.0,0.0,0.0,0.0,4.2509,4.2758,4.4001,4.4674,4.4133,4.5905,4.8258,5.104,5.4821,5.9208,6.4233,6.7657,7.108,7.4678,7.6322,7.6823,7.6169,7.6053,7.6053,7.613,7.6823,7.7207,7.7299,7.7383,7.7438,7.7373,7.5982,7.5226,7.4857,7.3375,7.2093,7.0975,7.0283,6.9475,6.8577,6.7743,6.941,7.2091,7.1321,7.1063,7.1074,7.1077,7.0497,6.9788,6.9717,6.9064,6.7793,6.5269,6.4104,6.322,6.1184,6.0826,6.1376,6.2643,6.3027,6.3886,0.0,6.7782,6.8321,6.9975,7.2283,7.4399,7.563,7.8323,8.1054,8.3131,8.4093,8.5247,8.7017,8.8094,8.8979,8.9825,9.2133,9.4018,9.4903,9.5788,9.6288,9.6288,9.6288,9.6288,9.6288,9.6155,9.6058,9.592,9.592,9.5093,9.3381,9.3406,9.2155,8.9629,8.9541,8.8603,8.6932,8.6115,8.5298,8.448,8.3663,8.2883,8.2206,8.2971,8.2229,8.0656,8.127,8.0882,7.9971,7.9895,7.9858,7.992,0.0,0.0,0.0,0.0,0.0,0.0,0.0,0.0,0.0,4.1523,4.2227,4.2612,4.2723,4.4561,4.6667,4.88,5.2908,5.7369,6.2042,6.5879,6.9579,7.3101,7.4437,7.4938,7.4553,7.4553,7.4844,7.5426,7.5272,7.5794,7.6891,7.6458,7.6281,7.6242,7.5603,7.4364,7.2732,7.2035,7.0854,6.9436,6.909,6.8436,6.7552,6.6705,6.6974,6.7859,6.8475,6.9013,0.0,6.9436,6.9206,6.8936,6.8936,6.8359,6.7244,6.5205,6.5013,6.5166,6.3474,6.2627,6.2551,6.3743,6.4782,6.6167,6.859,6.9898,7.0937,7.2168,7.4822,7.7169,7.8054,7.9785,8.1631,8.3324,8.3901,8.4901,8.7094,8.7709,8.844,8.9748,9.1287,9.2787,9.4095,9.548,9.6288,9.6288,9.6288,9.6288,9.6288,9.6155,9.6058,9.592,9.5379,9.4453,9.3141,9.2769,9.137,8.9018,8.8759,8.7813,8.6311,8.5139,8.4231,8.3507,8.3299,8.2994,8.2697,8.3032,8.2433,8.1204,8.1055,8.0432,7.9592,7.9676,7.9708,7.973,0.0,0.0,0.0,0.0,0.0,0.0,0.0,0.0,0.0,0.0,4.0414,4.0927,4.1888,4.3454,4.5032,4.6539,5.0475,5.4568,5.8743,6.3124,6.7093,7.0489,7.2241,7.3053,7.2783,7.3014,7.3408,7.3949,7.333,7.3859,7.551,7.4944,7.4775,7.5009,7.4548,7.3207,7.1251,7.0719,6.9551,6.8013,6.7821,6.7205,6.6282,6.4974,6.4039,6.3591,6.5141,6.6128,6.6705,6.6936,6.7,6.709,6.7552,6.7282,6.6436,6.4743,6.4782,6.5128,6.4166,6.3628,6.3628,6.4974,6.6551,6.8321,7.0321,7.186,7.3206,7.4322,7.6669,7.8823,7.9939,8.0669,8.1631,8.3324,8.3593,8.4401,8.6709,8.6932,8.7379,8.8838,8.9568,9.0605,9.2314,9.4579,9.6057,9.6288,9.6288,9.6288,9.6288,9.6155,9.5943,9.5615,9.4898,9.3931,9.2814,9.2036,9.0623,8.8691,8.8101,8.7132,8.5844,8.4429,8.349,8.2934,8.3024,8.2891,8.2511,8.2771,8.1991,8.058,8.0208,7.9391,7.8535,7.8852,7.9265,7.9628,0.0,0.0,0.0,0.0,0.0,0.0,0.0,0.0,0.0,0.0,0.0,0.0,0.0,4.1862,4.2912,4.4446,4.7235,5.0466,5.426,5.9365,6.3588,6.6544,7.0244,7.1822,7.1014,7.1822,7.1943,7.1306,7.1306,7.1833,7.2818,7.2984,7.3509,7.4254,7.2626,7.1755,7.1368,6.9571,6.8133,6.7051,6.6282,6.5436,6.4397,6.1897,6.0687,6.0485,6.1799,6.2255,6.2397,6.3205,6.3462,6.3743,6.5436,6.5974,6.559,6.3858,6.2204,6.1166,6.1947,6.2743,6.3897,6.6397,6.8321,7.0283,7.2822,7.4053,7.513,7.6823,7.79,7.9015,8.0746,8.1093,8.1631,8.3324,8.3593,8.417,8.5901,8.5759,8.58,8.6679,8.6832,8.7502,8.9146,9.2795,9.5403,9.6249,9.6288,9.6288,9.6288,9.6155,9.5713,9.4869,9.4633,9.3705,9.2059,9.1114,9.0002,8.8691,8.7832,8.6786,8.5562,8.4148,8.331,8.2904,8.2934,8.2104,8.084,8.1694,8.0162,7.7338,7.8053,7.7347,7.6037,7.6882,7.8146,7.9456,0.0,0.0,0.0,0.0,0.0,0.0,0.0,0.0,0.0,0.0,0.0,0.0,0.0,0.0,0.0,0.0,4.4384,4.7137,5.0305,5.5087,5.8615,6.044,6.4229,6.6146,6.5879,6.6957,6.7494,6.7336,6.7666,6.8338,6.9403,7.0041,7.0497,7.077,7.0191,6.9169,6.7842,6.6678,6.5543,6.4512,6.3705,6.2708,6.1513,6.0097,5.8563,5.7263,0.0,5.8219,5.8796,5.9352,5.9892,6.0545,6.1375,6.205,6.2397,6.182,6.1627,6.182,6.2666,6.432,6.6436,6.8975,7.0937,7.2745,7.4707,7.5822,7.6245,7.5707,7.5784,7.5822,7.5284,7.6092,7.7246,7.8361,8.09,8.3324,8.5055,8.6146,8.6614,8.6345,8.6752,8.7558,8.8725,9.158,9.3903,9.5326,9.598,9.6288,9.6288,9.6251,9.579,9.483,9.4235,9.3005,9.1179,9.0296,8.9047,8.7426,8.6206,8.5204,8.4466,8.3722,8.3301,8.3127,8.2401,8.1526,8.0584,8.0402,7.9354,7.7932,7.8165,7.7608,7.6679,7.6976,7.7449,7.7997,0.0,0.0,0.0,0.0,0.0,0.0,0.0,0.0,0.0,0.0,0.0,0.0,0.0,0.0,0.0,0.0,0.0,4.3742,4.6158,5.0294,5.3277,5.4668,5.837,6.0219,5.99,6.1213,6.1989,6.2091,6.2403,6.337,6.5001,6.5545,6.6275,6.7115,6.676,6.607,6.5087,6.3892,6.3169,6.2682,6.1294,6.0428,5.9787,5.8342,5.6829,0.0,5.5136,5.5313,5.5765,5.661,5.7616,5.8495,5.8745,5.9506,6.0319,6.0319,6.1396,6.2781,6.3935,6.609,6.8629,7.1206,7.2899,7.4284,7.5668,7.6207,7.5976,7.4486,7.359,7.2831,7.1881,7.2208,7.3191,7.4846,7.79,8.0977,8.3593,8.4763,8.556,8.6251,8.6217,8.6832,8.8652,9.047,9.2367,9.4364,9.5634,9.6172,9.5865,9.5826,9.5405,9.4426,9.3274,9.1932,9.0417,8.9189,8.7828,8.6294,8.5414,8.4673,8.4193,8.3611,8.3056,8.2491,8.1446,8.0374,7.9249,7.8843,7.8128,7.7385,7.7385,7.6902,7.6233,7.653,7.627,7.6,0.0,0.0,0.0,0.0,0.0,0.0,0.0,0.0,0.0,0.0,0.0,0.0,0.0,0.0,0.0,0.0,0.0,0.0,4.1813,4.5091,4.772,4.9349,5.279,5.4308,5.3504,5.4921,5.5721,5.5772,5.5798,5.7093,5.9626,5.9693,6.0993,6.3184,6.232,6.2351,6.294,6.1195,6.0896,6.1407,5.908,5.861,5.8991,5.6522,5.533,5.4876,5.4056,5.3506,5.3465,5.5067,5.655,5.7628,5.7666,5.854,5.9588,5.9665,6.1473,6.382,6.559,6.7936,7.0475,7.2937,7.4168,7.4976,7.5707,7.5231,7.4317,7.3221,7.1366,6.9977,7.0345,6.9605,6.9926,7.2957,7.5053,7.7784,8.19,8.2232,8.32,8.6355,8.5262,8.5525,8.8829,8.9554,9.0929,9.3518,9.5288,9.5865,9.5018,9.498,9.4557,9.3595,9.1928,9.0567,8.9683,8.781,8.6394,8.5511,8.5511,8.5232,8.4643,8.3786,8.2556,8.1057,8.0181,7.8725,7.7068,7.703,7.652,7.5787,7.5787,7.5304,7.4747,7.5527,7.4784,7.3733,0.0,0.0,0.0,0.0,0.0,0.0,0.0,0.0,0.0,0.0,0.0,0.0,0.0,0.0,0.0,0.0,0.0,0.0,3.7751,4.0212,4.2361,4.4054,4.7169,4.9013,4.9314,5.07,5.1354,5.1341,5.1688,5.2186,5.2897,5.4105,5.4989,5.5628,5.6556,5.7041,5.7228,5.7174,5.7248,5.736,5.6664,5.6295,5.6089,5.478,5.4018,5.3674,5.3433,5.3293,5.3355,5.445,5.6293,5.8242,5.8818,5.9684,6.0704,6.1973,6.3705,6.5743,6.809,7.0591,7.2822,7.4091,7.5053,7.5399,7.4361,7.3653,7.245,6.968,6.7406,6.5638,6.4833,6.6506,6.903,7.2035,7.713,8.1747,8.4709,8.6663,8.7648,8.7264,8.7307,8.798,8.9532,9.0375,9.1582,9.3557,9.4711,9.5211,9.5018,9.498,9.4018,9.1902,9.1367,9.0101,8.7878,8.6677,8.5953,8.5628,8.5628,8.5226,8.4459,8.3823,8.2694,8.1104,7.9976,7.8315,7.6392,7.5944,7.5781,7.5787,7.5787,7.5676,7.5527,7.5713,7.4784,7.3584,0.0,0.0,0.0,0.0,0.0,0.0,0.0,0.0,0.0,0.0,0.0,0.0,0.0,0.0,0.0,0.0,0.0,0.0,0.0,3.6786,3.8259,3.9607,4.1916,4.3331,4.3731,4.4765,4.542,4.5762,4.6349,4.7187,4.8236,4.9465,5.0605,5.1661,5.2504,5.3122,5.3436,5.339,5.3536,0.0,0.0,5.3193,5.3285,5.3097,5.2867,5.2711,5.3057,5.3682,5.4447,5.5296,5.6668,5.8258,5.9619,6.0896,6.2243,6.3935,6.5936,6.8052,7.0206,7.2399,7.4245,7.5053,7.5361,7.4832,7.2609,7.1312,6.9518,6.591,6.3725,6.2258,6.1583,6.3791,6.693,7.0522,7.5861,8.0939,8.5016,8.7132,8.8594,8.9517,8.9947,9.0662,9.1946,9.2448,9.3293,9.4637,9.5269,9.5249,9.448,9.4441,9.3441,9.1287,9.0479,8.9021,8.6688,8.6136,8.5834,8.5742,8.5742,8.5302,8.4459,8.3371,8.1935,8.0179,7.876,7.7344,7.6036,7.5108,7.5494,7.6577,7.5633,7.549,7.575,7.5378,7.445,7.3473,0.0,0.0,0.0,0.0,0.0,0.0,0.0,0.0,0.0,0.0,0.0,0.0,0.0,0.0,0.0,0.0,0.0,0.0,0.0,0.0,3.516,3.6199,3.7441,3.8259,3.8482,3.8994,3.9623,4.0339,4.1096,4.2565,4.4542,4.5418,4.6905,4.8907,4.9225,4.971,5.023,4.9821,5.0014,5.048,4.9816,4.9938,5.0656,0.0,5.169,5.182,5.2726,5.4073,5.5605,5.663,5.7529,5.8538,6.0505,6.2358,6.4166,6.5897,6.8129,7.0398,7.2091,7.3668,7.5014,7.5668,7.5168,7.3697,7.0499,6.8553,6.62,6.216,6.0395,5.9568,5.9522,6.1393,6.4506,6.9194,7.3418,7.8239,8.4346,8.594,8.7863,9.171,9.2138,9.2813,9.4503,9.4657,9.5022,9.5886,9.604,9.5403,9.3787,9.348,9.2556,9.0748,8.9171,8.7598,8.6014,8.6014,8.594,8.5834,8.5719,8.522,8.4358,8.2633,8.0803,7.8826,7.7413,7.6522,7.6,7.4956,7.5787,7.7536,7.5645,7.5317,7.5701,7.4979,7.4171,7.3476,0.0,0.0,0.0,0.0,0.0,0.0,0.0,0.0,0.0,0.0,3.4168,3.3716,0.0,0.0,0.0,0.0,0.0,0.0,0.0,0.0,0.0,3.5289,3.5639,3.6474,3.7901,3.804,3.8157,3.8286,3.9034,3.9608,4.0061,4.1451,4.2364,4.2834,4.4687,4.5268,4.4878,4.656,4.6995,4.6688,4.7736,4.8247,4.8496,4.9731,0.0,0.0,5.1721,5.3062,5.4406,5.6342,5.8901,6.149,6.2538,6.4512,6.6782,6.8513,7.0321,7.2129,7.3822,7.5014,7.563,7.5091,7.4322,7.2544,6.8166,6.6079,6.3801,5.9271,5.7835,5.727,5.6986,5.9495,6.3766,7.0211,7.4188,7.8939,8.5983,8.7709,8.8786,9.0171,9.0962,9.2038,9.3731,9.3885,9.4269,9.5115,9.5211,9.4788,9.3749,9.2402,9.0556,8.8132,8.7094,8.6385,8.6115,8.6077,8.6026,8.5979,8.5249,8.4426,8.3542,8.1853,8.0158,7.8577,7.8269,7.75,7.6519,7.7017,7.7242,7.7268,7.69,7.6403,7.5846,7.5347,7.4642,7.3859,0.0,0.0,0.0,0.0,0.0,0.0,0.0,3.1074,3.1332,3.2594,3.343,3.3448,3.2452,3.3243,3.2952,0.0,0.0,0.0,0.0,0.0,0.0,0.0,3.4033,3.4958,3.5791,3.6353,3.66,3.66,0.0,3.8525,3.8938,4.0468,4.1407,4.1813,4.2895,4.32,4.2888,4.397,4.4231,4.4009,4.5451,4.6028,4.6242,0.0,0.0,0.0,5.0984,5.2153,5.3439,5.4903,5.7807,6.1291,6.3847,6.609,6.8205,7.036,7.1898,7.3129,7.4361,7.5361,7.5784,7.4938,7.3399,7.0849,6.5966,6.3314,6.0692,5.6482,5.5574,5.5634,5.5938,5.8708,6.2595,6.7496,7.1688,7.6463,8.2577,8.4939,8.6978,8.9594,9.1056,9.2364,9.3595,9.4095,9.4364,9.4326,9.3941,9.3518,9.3095,9.1056,8.9325,8.8132,8.6786,8.6094,8.6094,8.6094,8.6077,8.6026,8.5181,8.4105,8.2798,8.1568,7.9869,7.79,7.8323,7.8169,7.7588,7.7806,7.7988,7.8062,7.6717,7.6085,7.5776,7.468,7.4172,7.394,0.0,0.0,0.0,0.0,0.0,0.0,0.0,3.0884,3.1035,3.224,3.3178,3.3635,3.3479,3.4293,3.3856,0.0,0.0,0.0,0.0,0.0,0.0,0.0,0.0,0.0,3.3979,0.0,0.0,3.5718,3.7115,0.0,0.0,0.0,0.0,0.0,4.1982,4.1982,4.1813,4.1982,4.1948,0.0,0.0,4.3931,4.418,0.0,0.0,0.0,0.0,5.1089,5.2234,5.3291,5.5778,5.9117,6.2839,6.5843,6.8356,7.02,7.1895,7.3399,7.4207,7.5207,7.5745,7.4707,7.2472,6.9227,6.428,6.1076,5.8116,5.4667,5.4143,5.4509,5.5296,5.7742,6.08,6.4367,6.8033,7.2558,7.8654,8.1246,8.4132,8.8556,9.0479,9.1787,9.2787,9.3518,9.3633,9.2941,9.2133,9.1748,9.1941,8.971,8.8402,8.8402,8.6748,8.594,8.6094,8.6094,8.6017,8.5824,8.4824,8.3555,8.2016,8.0823,7.9169,7.7323,7.7977,7.8323,7.8462,7.8152,7.8362,7.8598,7.6251,7.5367,7.5208,7.3787,7.3452,7.3715,0.0,0.0,0.0,0.0,0.0,0.0,0.0,3.0658,3.1185,3.2792,3.3436,3.3699,3.3647,3.4082,3.352,0.0,0.0,0.0,0.0,0.0,0.0,0.0,0.0,0.0,0.0,0.0,0.0,3.6508,3.7352,0.0,0.0,0.0,0.0,0.0,0.0,4.0933,4.035,4.1001,0.0,0.0,0.0,0.0,0.0,0.0,0.0,0.0,0.0,4.9343,5.0344,5.2196,5.3531,5.483,5.7181,6.1987,6.6651,6.61,6.8973,7.2514,7.3399,7.4784,7.563,7.4014,7.1405,6.8112,6.3749,6.0223,5.7228,5.4898,5.4141,5.3999,5.4517,5.5465,5.7894,6.3246,6.4428,6.7929,7.7293,7.8823,8.0823,8.5863,8.7286,8.8517,9.0094,9.0325,9.0364,9.0287,8.9479,8.9363,9.0094,8.8479,8.7517,8.7517,8.5901,8.5363,8.6094,8.6094,8.5747,8.4978,8.3324,8.2054,8.1131,7.8746,7.7515,7.7284,7.7361,7.7823,7.8477,7.8446,7.8256,7.7831,7.6076,7.4695,7.3641,7.3078,7.286,7.295,0.0,0.0,0.0,0.0,0.0,0.0,3.1386,3.1035,3.1336,3.3319,3.3454,3.335,3.335,3.3685,3.3411,3.2146,0.0,0.0,0.0,0.0,0.0,0.0,0.0,0.0,0.0,0.0,3.506,3.725,3.7632,0.0,0.0,0.0,0.0,0.0,0.0,4.0595,4.0764,4.1068,0.0,0.0,0.0,0.0,0.0,0.0,0.0,0.0,0.0,0.0,4.7874,4.9524,5.0343,5.0694,5.0968,5.4054,5.8505,6.3131,6.6742,6.9644,7.1749,7.3373,7.4211,7.3028,6.9514,6.5597,6.2591,5.8933,5.5827,5.4705,5.4118,5.4031,5.4731,5.5113,5.6387,5.9622,6.0772,6.3514,7.0,7.1783,7.4899,8.1516,8.3093,8.5055,8.8825,8.9171,8.9171,8.9171,8.8863,8.8825,8.9171,8.7555,8.6632,8.6632,8.5517,8.5055,8.5363,8.5401,8.5209,8.4863,8.2631,8.1131,8.0246,7.87,7.7401,7.6502,7.7232,7.7705,7.8032,7.833,7.8046,7.7338,7.5918,7.4871,7.4076,7.2857,7.2913,7.3489,0.0,0.0,0.0,0.0,0.0,3.0231,3.1537,3.1235,3.1512,3.342,3.3553,3.3462,3.3338,3.3385,3.3237,3.2707,3.2886,0.0,0.0,0.0,0.0,0.0,0.0,0.0,0.0,0.0,3.4915,3.7654,3.7759,3.8577,0.0,0.0,4.0113,4.0113,0.0,0.0,0.0,0.0,0.0,0.0,0.0,0.0,0.0,0.0,0.0,0.0,0.0,0.0,0.0,0.0,0.0,4.7942,4.704,4.8383,5.1605,5.8331,6.2715,6.5965,6.8735,7.1102,7.2622,7.1996,6.8111,6.3955,6.2052,5.824,5.5041,5.4752,5.4398,5.4398,5.516,5.5262,5.576,5.7188,5.8371,6.0627,6.4897,6.6744,7.0129,7.6746,7.8092,8.0477,8.5555,8.7209,8.8017,8.8286,8.8055,8.8017,8.8286,8.6671,8.5978,8.6478,8.5209,8.4632,8.4901,8.4901,8.4632,8.4093,8.1823,8.0246,7.94,7.8223,7.6939,7.5699,7.6588,7.7036,7.7111,7.7252,7.6916,7.6123,7.4734,7.3959,7.3408,7.1999,7.2323,7.3413,0.0,0.0,0.0,0.0,0.0,0.0,3.0557,3.106,3.1788,3.2986,3.3911,3.4328,3.3953,3.3256,3.283,3.2804,3.3537,0.0,0.0,0.0,0.0,0.0,0.0,0.0,0.0,0.0,3.4243,3.7591,3.7729,3.8517,3.9907,4.0024,4.0113,4.0146,0.0,0.0,0.0,0.0,0.0,0.0,0.0,0.0,0.0,0.0,0.0,0.0,0.0,0.0,0.0,0.0,0.0,0.0,0.0,4.6471,4.7739,5.0758,5.612,6.1591,6.4092,6.7844,7.101,7.1029,6.7521,6.3743,6.2405,5.8499,5.5183,5.5123,5.5107,5.5212,5.561,5.5703,5.5972,5.6857,5.7742,5.9781,6.4012,6.5359,6.7513,7.1783,7.2283,7.4284,7.94,8.367,8.6478,8.7363,8.6594,8.6517,8.7363,8.5824,8.567,8.7325,8.4939,8.4016,8.4901,8.4901,8.4016,8.2324,8.0631,7.9361,7.8453,7.6784,7.5686,7.5109,7.5274,7.5494,7.5679,7.5005,7.4493,7.398,7.229,7.1369,7.0846,7.0029,7.0772,7.2098,0.0,0.0,0.0,0.0,0.0,0.0,0.0,3.1803,3.1901,3.3686,3.3238,3.3291,3.4593,3.3823,3.3376,3.3783,3.3348,0.0,0.0,0.0,0.0,0.0,0.0,0.0,0.0,0.0,3.515,3.8367,3.7904,3.8982,4.1449,4.0453,4.0535,4.1602,4.1305,4.1474,0.0,0.0,0.0,0.0,0.0,0.0,4.4615,0.0,0.0,0.0,0.0,0.0,0.0,0.0,0.0,0.0,0.0,0.0,0.0,4.7407,5.1937,5.7356,6.0716,6.281,6.4209,6.4784,6.2054,5.9155,5.8702,5.6142,5.4016,5.4554,5.4686,5.489,5.5577,5.5703,5.6165,5.7665,5.8127,5.9165,6.1666,6.3743,6.6782,7.1629,7.7323,8.1747,8.3901,8.5324,8.6209,8.6478,8.6247,8.6209,8.6517,8.5478,8.5132,8.567,8.4324,8.3708,8.4016,8.3401,8.2554,8.1477,7.9746,7.8477,7.763,7.6142,7.5348,7.513,7.4602,7.4689,7.5197,7.4196,7.3727,7.3504,7.2422,7.1554,7.0932,7.1292,7.1366,7.1366,0.0,0.0,0.0,0.0,0.0,0.0,0.0,3.249,3.2496,3.3816,3.3457,3.3629,3.4947,3.4215,3.3907,3.4617,3.374,0.0,0.0,0.0,0.0,0.0,0.0,0.0,3.3979,3.4272,3.5633,3.8218,3.8296,3.9503,4.1694,4.1016,4.1255,4.2286,4.2117,4.2286,0.0,0.0,0.0,0.0,0.0,0.0,4.5267,0.0,0.0,0.0,0.0,0.0,0.0,0.0,0.0,0.0,0.0,0.0,0.0,0.0,4.9135,5.3085,5.7026,5.9022,6.0211,6.132,5.939,5.7138,5.6821,5.5282,5.3973,5.4193,5.4605,5.5121,5.5599,5.5703,5.6049,5.7126,5.7857,5.8781,6.0127,6.3051,6.6744,7.1168,7.8092,8.267,8.317,8.4978,8.5978,8.567,8.567,8.5517,8.517,8.4362,8.3939,8.3939,8.3708,8.3439,8.3093,8.2554,8.1644,8.0339,7.8958,7.7763,7.6748,7.5568,7.4884,7.4626,7.4147,7.3899,0.0,7.3215,7.2555,7.1961,7.1441,7.092,7.0487,7.0735,7.1007,7.1227,0.0,0.0,0.0,0.0,0.0,0.0,0.0,3.3162,3.3486,3.3559,3.4306,3.4903,3.51,3.4512,3.4447,3.5308,0.0,0.0,0.0,0.0,0.0,0.0,0.0,0.0,3.4167,3.4779,3.5897,3.7494,3.8883,4.0089,4.1055,4.1734,4.2232,4.2557,4.32,4.3504,4.3538,4.427,4.4947,4.5494,4.5545,4.589,0.0,0.0,0.0,0.0,0.0,0.0,0.0,0.0,0.0,0.0,0.0,0.0,0.0,0.0,0.0,0.0,0.0,5.604,5.8156,5.9827,5.8698,5.7041,5.6332,5.5535,0.0,5.4026,5.4786,5.5605,5.5665,5.5703,5.5703,5.578,5.7203,5.8588,5.9473,6.3474,6.7552,7.086,7.5707,7.8707,7.8592,8.3054,8.5593,8.4863,8.4824,8.4439,8.3555,8.2747,8.2247,8.2131,8.2901,8.2939,8.2131,8.2038,8.0954,7.8919,7.8119,7.7113,7.5863,7.5026,7.4331,7.3821,7.3841,7.3142,7.1928,7.1984,7.1106,6.9707,6.9707,6.9707,6.9595,6.8927,6.9966,7.142,0.0,0.0,0.0,0.0,0.0,0.0,0.0,0.0,0.0,0.0,3.4545,3.4524,3.5317,3.5267,3.5452,0.0,0.0,0.0,0.0,0.0,0.0,0.0,0.0,0.0,3.5907,3.6056,3.6811,3.8153,3.9053,4.0547,4.259,4.2719,4.3537,4.4891,4.4485,4.4316,4.4338,4.4395,4.4846,4.5545,4.6014,4.6246,0.0,0.0,0.0,0.0,4.6977,4.7277,0.0,0.0,0.0,0.0,0.0,0.0,0.0,0.0,4.8159,4.8783,5.1099,0.0,5.2106,5.3977,5.4131,5.3811,0.0,5.3789,5.3867,5.4634,5.4524,5.4534,5.5506,5.5703,5.5934,5.6599,5.7588,5.8819,6.0281,6.6397,7.1745,7.4476,7.8707,8.09,7.9631,8.2324,8.4093,8.3901,8.3901,8.3516,8.2631,8.2401,8.1708,8.0439,8.0592,8.0592,8.04,7.9412,7.8359,7.72,7.6675,7.5926,7.497,7.4422,7.4101,7.3902,7.3006,7.2459,7.2046,7.0784,7.0066,6.9707,6.9707,6.9707,6.9744,7.0052,7.0112,6.9976,0.0,0.0,0.0,0.0,0.0,0.0,0.0,0.0,0.0,0.0,0.0,0.0,0.0,0.0,0.0,0.0,0.0,0.0,0.0,0.0,0.0,0.0,0.0,3.6118,3.6477,3.7045,3.7853,3.8871,3.9828,4.126,4.307,4.3323,4.4102,4.5162,4.4784,4.4615,4.4609,4.4517,4.5044,4.594,4.6246,0.0,0.0,0.0,0.0,0.0,4.7695,4.7818,0.0,4.8173,4.8306,4.8233,0.0,0.0,0.0,0.0,4.8306,4.8601,5.0082,5.0157,5.0269,5.2084,5.2582,5.2748,5.3322,5.3622,5.4001,5.4687,5.4724,5.4898,5.5566,5.6011,5.6445,5.6907,5.8357,6.0435,6.3281,6.759,7.1975,7.6092,7.9285,8.14,8.2093,8.3401,8.3862,8.3054,8.267,8.1747,8.0092,7.9631,7.8823,7.7515,7.7092,7.7669,7.9208,7.8331,7.7377,7.6313,7.5893,7.5321,7.4619,7.4022,7.3938,7.4213,7.2819,7.1961,7.1515,7.0252,6.9484,6.915,6.915,6.915,6.9187,6.9508,6.9543,6.9355,0.0,0.0,0.0,0.0,0.0,0.0,0.0,0.0,0.0,0.0,0.0,0.0,0.0,0.0,0.0,0.0,0.0,0.0,0.0,0.0,0.0,0.0,3.6686,3.6716,3.6926,3.7883,3.8841,3.9709,4.0816,4.204,4.3282,4.3988,4.456,4.4953,4.4953,4.4818,4.4615,4.4692,4.5399,4.6389,4.6507,0.0,0.0,0.0,0.0,0.0,0.0,0.0,0.0,4.8306,4.8306,4.8306,4.8306,0.0,0.0,0.0,0.0,0.0,4.9764,5.0311,5.0882,5.2088,5.2613,5.2972,5.3557,5.4131,5.4511,5.4511,5.5049,5.5549,5.5665,5.6406,5.706,5.7176,5.955,6.2935,6.7436,6.9052,7.1629,7.6707,7.9015,8.117,8.367,8.4055,8.3516,8.2016,8.1054,7.9515,7.7207,7.6284,7.5399,7.4553,7.386,7.4938,7.79,7.7437,7.6751,7.5787,7.5246,7.4798,7.4375,7.3733,7.377,7.4301,7.2704,7.1515,7.0635,6.9855,6.9038,6.8357,6.8468,6.8556,6.8667,6.8371,6.8726,6.9152,0.0,0.0,0.0,0.0,0.0,0.0,0.0,0.0,0.0,0.0,0.0,0.0,0.0,0.0,0.0,0.0,0.0,0.0,0.0,0.0,0.0,3.8093,3.7554,3.7793,3.896,3.8601,3.926,4.1085,4.1294,4.247,4.4538,4.5433,4.6094,4.6447,4.6447,4.5799,4.4643,4.5142,4.574,4.6436,4.7021,0.0,0.0,0.0,0.0,0.0,0.0,0.0,0.0,4.8306,4.8306,4.8306,4.8306,0.0,0.0,0.0,0.0,0.0,4.9764,5.1391,5.2536,5.1716,5.2627,5.3633,5.3344,5.3902,5.4511,5.4511,5.4587,5.4895,5.5549,5.6406,5.7253,5.7973,6.1435,6.6013,7.1706,7.4476,7.6284,7.7169,8.0015,8.1285,7.9631,8.0169,8.0477,8.0208,7.8746,7.74,7.6245,7.5361,7.4553,7.3707,7.3553,7.4091,7.5284,7.4481,7.4348,7.4895,7.4084,7.3662,7.3584,7.3473,7.3473,7.351,7.1812,7.0635,6.9818,6.9001,6.8208,6.7577,6.8246,6.8927,6.9385,6.8456,6.8613,6.9152,0.0,0.0,0.0,0.0,0.0,0.0,0.0,0.0,0.0,0.0,0.0,0.0,0.0,0.0,0.0,0.0,0.0,0.0,0.0,0.0,3.9975,3.9505,3.92,3.914,3.9373,3.9439,4.0457,4.2432,4.2432,4.3386,4.5232,4.553,4.5859,4.6177,4.5771,4.5258,4.4581,4.4436,4.5164,4.6342,0.0,0.0,0.0,0.0,0.0,0.0,0.0,0.0,0.0,0.0,4.8306,4.8306,4.8306,0.0,0.0,0.0,0.0,0.0,4.9513,5.0823,5.1977,5.2256,5.4288,5.6266,5.651,5.6874,5.7088,5.6626,5.6549,5.6511,5.6395,5.7857,6.0089,6.3243,6.5782,6.8475,7.1668,7.3514,7.5207,7.7092,7.9054,8.0323,8.0516,8.0092,7.9438,7.8515,7.6861,7.5322,7.4014,7.3553,7.2976,7.2129,7.2552,7.3206,7.4053,7.3608,7.3851,7.4705,7.3824,7.3632,7.4004,7.3595,7.3398,7.3261,7.118,6.9756,6.889,6.8087,6.7506,6.7136,6.7951,6.8297,6.8173,6.7148,6.7218,6.7726,0.0,0.0,0.0,0.0,0.0,0.0,0.0,0.0,0.0,0.0,0.0,0.0,0.0,0.0,0.0,0.0,0.0,0.0,0.0,4.1242,4.1744,4.1066,4.1218,4.094,4.0127,4.0685,4.1829,4.3529,4.3777,4.4591,4.5874,4.5859,4.5859,4.582,4.5346,4.4919,4.4581,4.3944,4.4742,4.6283,0.0,0.0,0.0,0.0,0.0,0.0,0.0,0.0,0.0,0.0,0.0,0.0,0.0,0.0,0.0,4.8306,4.8306,4.8458,4.9155,5.0335,5.168,5.3,5.5335,5.7712,5.9096,5.9477,5.9435,5.9242,5.9204,5.8858,5.778,5.9511,6.2704,6.759,6.9475,7.086,7.2437,7.3591,7.5322,7.813,7.8861,7.9785,8.1554,8.0015,7.8284,7.6784,7.4899,7.3245,7.1975,7.1706,7.1321,7.0629,7.1629,7.2563,7.3321,7.3381,7.3851,7.4705,7.3824,7.3621,7.4004,7.3398,7.3001,7.2704,7.0573,6.9039,6.8,6.7321,6.6877,6.6666,6.7319,6.7197,6.663,6.5928,6.5874,6.6256,0.0,0.0,0.0,0.0,0.0,0.0,0.0,0.0,0.0,0.0,0.0,0.0,0.0,0.0,0.0,0.0,0.0,0.0,0.0,4.2205,4.2973,4.2907,4.3545,4.3384,4.2209,4.2548,4.3223,4.4257,4.5239,4.6013,4.6624,4.751,4.7335,4.6386,4.6532,4.5872,4.4615,4.4547,4.5259,4.6318,4.5446,0.0,0.0,0.0,0.0,0.0,0.0,0.0,0.0,0.0,0.0,0.0,0.0,0.0,4.8306,4.8306,4.8306,4.8383,4.883,5.0928,5.3134,5.3639,5.4276,5.5577,5.8769,5.9511,5.9935,6.1512,6.1831,6.132,5.9627,6.0781,6.3397,6.7705,7.0437,7.3399,7.74,7.94,8.0823,8.1823,8.1323,8.0669,8.0054,7.7746,7.5899,7.4976,7.2591,7.1129,7.1014,7.0283,6.986,6.9783,7.136,7.2409,7.2843,7.3232,7.3851,7.4705,7.3824,7.3064,7.2395,7.2321,7.1849,7.1007,6.9978,6.863,6.716,6.7,6.647,6.578,6.5854,6.5779,6.5605,6.5531,6.5467,6.5485,0.0,0.0,0.0,0.0,0.0,0.0,0.0,0.0,0.0,0.0,0.0,0.0,0.0,0.0,0.0,0.0,0.0,0.0,0.0,4.2315,4.3265,4.3679,4.3999,4.4328,4.4752,4.4934,4.5818,4.748,4.8306,4.8668,4.8546,4.8486,4.7768,4.6642,4.63,4.5534,4.4581,4.4079,4.4616,4.576,4.4882,4.5523,0.0,0.0,0.0,0.0,0.0,0.0,0.0,0.0,4.8306,4.8306,4.8306,4.8306,4.8306,4.8306,4.8306,4.8383,4.8796,5.0434,5.2261,5.3195,5.3931,5.5715,6.0674,6.268,6.3358,6.2935,6.4089,6.4512,6.2281,6.4128,6.6705,6.8859,7.2206,7.5322,7.7438,7.8746,7.9592,7.99,7.9208,7.84,7.7515,7.563,7.386,7.2437,7.0975,6.983,6.8991,6.8918,6.8925,6.8946,7.0286,7.1216,7.1691,7.259,7.2946,7.2795,7.3192,7.2938,7.2081,7.2081,7.1287,6.985,6.8985,6.7973,6.6837,6.6787,6.6231,6.5419,6.4942,6.5002,6.5268,6.4303,6.4216,6.4677,0.0,0.0,0.0,0.0,0.0,0.0,0.0,0.0,0.0,0.0,0.0,0.0,0.0,0.0,0.0,0.0,0.0,0.0,4.1388,4.2788,4.4007,4.4918,4.518,4.5995,4.7398,4.7693,4.8229,4.9064,4.9987,5.0129,4.9551,4.8915,4.8166,4.7337,4.6431,4.5771,4.5258,4.4451,4.466,4.5416,4.4515,4.512,0.0,0.0,0.0,0.0,0.0,0.0,0.0,0.0,4.8306,4.8306,4.8306,4.8306,4.8306,4.8306,4.8489,4.8787,4.9065,5.0208,5.165,5.304,5.4091,5.6214,6.174,6.4216,6.5358,6.5615,6.6231,6.6205,6.4436,6.582,6.7667,6.9052,7.2822,7.5784,7.6399,7.7438,7.8015,7.7746,7.6863,7.5987,7.5269,7.3543,7.1871,7.0427,6.9337,6.8286,6.7273,6.75,6.7789,6.8053,6.9406,7.0342,7.0776,7.1858,7.1937,7.1027,7.1777,7.1672,7.0817,7.0557,6.9739,6.8502,6.7675,6.6934,6.6316,6.6007,6.5342,6.453,6.4533,6.4533,6.4383,6.3345,6.3247,6.3796,0.0,0.0,0.0,0.0,0.0,0.0,0.0,0.0,0.0,0.0,0.0,0.0,0.0,0.0,0.0,0.0,0.0,0.0,4.2199,4.3707,4.5229,4.6718,4.7466,4.8548,5.0067,5.0845,5.0258,4.8354,4.9731,5.0013,4.9277,4.8833,4.8592,4.8561,4.7337,4.6786,4.6718,4.6007,4.5616,4.5399,4.4621,4.554,4.7204,0.0,0.0,0.0,0.0,0.0,0.0,0.0,4.8306,4.8306,4.8306,4.8306,4.8306,4.8306,4.8893,4.961,4.961,5.0435,5.1711,5.3367,5.4718,5.6852,6.1515,6.3314,6.5306,6.986,6.8191,6.5897,6.5897,6.5205,6.5436,6.7975,7.1898,7.4668,7.4668,7.6169,7.6938,7.6053,7.4817,7.3893,7.351,7.1544,6.9938,6.9113,6.7531,6.6418,6.6023,6.6005,6.6329,6.7144,6.8849,6.9906,7.0233,7.114,7.0929,6.967,6.9533,6.9075,6.826,6.7481,6.7013,6.6851,6.5888,6.5506,6.5469,6.4497,6.3613,6.2964,6.464,6.4273,6.278,6.278,6.278,6.289,0.0,0.0,0.0,0.0,0.0,0.0,0.0,0.0,0.0,0.0,0.0,0.0,0.0,0.0,0.0,0.0,0.0,0.0,4.1214,4.1303,4.2649,4.5737,4.6101,4.7182,4.9289,5.0574,5.1159,5.1126,5.1525,5.1092,4.9859,4.9554,4.8928,4.8077,4.7531,4.682,4.6007,4.5805,4.5405,4.4872,4.5079,4.5202,4.5305,0.0,0.0,0.0,0.0,0.0,0.0,0.0,0.0,0.0,4.8306,4.8306,4.8306,4.8306,4.8489,4.882,4.9427,5.0664,5.2114,5.3516,5.5473,5.7844,6.0988,6.2796,6.5031,6.9187,6.7846,6.5897,6.5897,6.6128,6.6436,6.659,6.9667,7.2245,7.286,7.3899,7.4284,7.3437,7.2249,7.121,7.0478,6.9065,6.7815,6.6978,6.6484,6.5778,6.4802,6.4972,6.52,6.5496,6.6278,6.6913,6.7365,6.8148,6.8068,6.7048,6.7,6.7099,6.7296,6.6973,6.6736,6.6607,6.6334,6.6198,6.6088,6.4666,6.4273,6.4494,6.3833,6.3613,6.3649,6.3025,6.278,6.289,0.0,0.0,0.0,0.0,0.0,0.0,0.0,0.0,0.0,0.0,3.2889,3.4129,0.0,0.0,0.0,0.0,0.0,0.0,0.0,4.0543,4.1689,4.4821,4.5303,4.6731,4.939,5.0304,5.098,5.142,5.1995,5.1555,5.0101,5.0259,4.989,4.9224,4.9055,4.8193,4.6879,4.6578,4.5674,4.4528,4.4857,4.4932,4.4893,0.0,0.0,0.0,0.0,0.0,0.0,0.0,0.0,0.0,4.8306,4.8306,4.8379,4.871,4.9157,4.9806,5.097,5.2381,5.3907,5.5694,5.749,5.942,6.1755,6.3978,6.6365,6.9113,6.7936,6.6359,6.6359,6.6383,6.6354,6.62,6.8286,7.0057,7.0407,7.1189,7.1419,7.0537,6.9687,6.8938,6.8422,6.7275,6.6352,6.5823,6.5464,6.4896,6.4,6.4172,6.4425,6.4791,6.5023,6.5434,6.6091,6.6229,6.5973,6.5345,6.462,6.4659,6.5336,6.5262,6.5503,6.6035,6.6035,6.5668,6.4971,6.4347,6.4163,6.4237,6.3576,6.3429,6.3503,6.2989,6.278,6.2879,0.0,0.0,3.3596,3.1846,0.0,0.0,0.0,0.0,0.0,0.0,3.1257,3.184,0.0,0.0,0.0,0.0,0.0,0.0,0.0,0.0,4.166,4.3894,4.5017,4.6904,4.9805,4.9938,4.997,4.9999,5.142,5.1386,4.9999,5.0715,5.1086,5.1083,5.1086,5.0191,4.8695,4.7935,4.6417,4.4506,4.4441,4.4836,4.5399,4.5115,0.0,0.0,0.0,0.0,0.0,0.0,0.0,0.0,4.8159,4.8196,4.8379,4.9243,5.0324,5.1617,5.331,5.4658,5.6182,5.8887,6.032,6.1557,6.347,6.6054,6.8304,6.9113,6.8089,6.7051,6.7024,6.6021,6.5482,6.63,6.7466,6.8139,6.7719,6.8378,6.8607,6.7728,6.7283,6.7032,6.7031,6.595,6.5236,6.524,6.4582,6.3984,6.3624,6.3602,6.3936,6.4656,6.4693,6.5028,6.5733,6.4897,6.4382,6.421,6.2519,6.2082,6.2867,6.2867,6.3713,6.5191,6.5191,6.4347,6.2989,6.3686,6.3503,6.2879,6.3686,6.3503,6.278,6.278,6.278,6.278,0.0,0.0,3.4949,3.4249,0.0,0.0,0.0,0.0,0.0,0.0,0.0,0.0,0.0,0.0,0.0,0.0,0.0,0.0,0.0,0.0,4.0182,4.2962,4.5011,4.6708,4.8133,4.8696,4.9091,4.9255,5.0135,5.0101,4.9255,4.9759,5.0126,5.034,5.0126,4.9626,4.8873,4.8166,4.7224,4.6215,4.5644,4.5172,4.4715,4.3929,4.4027,0.0,0.0,0.0,0.0,0.0,0.0,0.0,4.7149,4.7369,4.7516,4.8343,4.9247,5.0433,5.2436,5.3605,5.52,5.9079,6.1869,6.3991,6.5082,6.5761,6.6155,6.6162,6.6483,6.659,6.6298,6.5479,6.4896,6.5086,6.5907,6.6496,6.6377,6.7134,6.7362,6.647,6.6012,6.5534,6.4932,6.4337,6.3981,6.3981,6.3832,6.3691,6.3602,6.3602,6.3653,6.3862,6.3839,6.3594,6.3057,6.2849,6.229,6.1439,6.1061,6.1224,6.19,6.19,6.2793,6.4347,6.4347,6.4127,6.3759,6.3282,6.2989,6.2817,6.3025,6.2989,6.278,6.278,6.278,6.278,0.0,0.0,0.0,0.0,0.0,0.0,0.0,0.0,0.0,0.0,0.0,0.0,0.0,3.3388,0.0,0.0,3.5447,3.6883,3.7738,3.7973,3.9529,4.2643,4.4548,4.5992,4.6934,4.7767,4.8233,4.8321,4.9169,4.956,4.956,5.0157,5.0693,5.1151,5.1028,5.036,4.9323,4.8622,4.7655,4.6619,4.6252,4.5689,4.5077,4.4466,4.4014,4.3699,4.3796,0.0,0.0,0.0,0.0,0.0,0.0,0.0,4.6764,4.7939,4.879,4.9915,5.2758,5.4568,5.6657,6.0845,6.3115,6.4492,6.4927,6.4954,6.4837,6.4557,6.5272,6.5808,6.5452,6.4821,6.4407,6.4464,6.431,6.4269,6.4483,6.4898,6.4992,6.4521,6.4627,6.4458,6.3786,6.3542,6.3419,6.3419,6.3094,6.2917,6.2917,6.2628,6.2636,6.3007,6.2569,6.2487,6.2752,6.186,6.1338,6.1161,6.0341,6.0307,6.108,6.2254,6.3062,6.3503,6.3906,6.387,6.3429,6.2989,6.278,6.278,6.278,6.278,6.278,6.278,6.278,6.278,0.0,0.0,0.0,0.0,0.0,0.0,0.0,0.0,0.0,0.0,0.0,0.0,0.0,3.2599,3.3459,0.0,0.0,0.0,3.7204,3.7825,3.9392,4.2138,4.3734,4.5005,4.5925,4.6728,4.7273,4.7572,4.8353,4.9299,5.0304,5.0913,5.1589,5.23,5.2164,5.1329,4.9988,4.9094,4.8067,4.691,4.6777,4.6388,4.5828,4.5432,4.4483,4.3419,4.3628,4.3883,4.4144,4.4582,0.0,0.0,0.0,0.0,4.5993,4.7462,4.8365,4.9582,5.2811,5.5677,5.8623,6.2439,6.3704,6.4029,6.4179,6.4197,6.4079,6.3755,6.4369,6.4841,6.4519,6.4134,6.3883,6.4025,6.2969,6.2317,6.2674,6.2623,6.2565,6.265,6.3264,6.3519,6.3242,6.3194,6.3134,6.301,6.2475,6.21,6.1989,6.1448,6.1418,6.2086,6.1367,6.1596,6.2891,6.1389,6.0867,6.1334,6.0026,5.9832,6.0676,6.2879,6.3466,6.2842,6.3576,6.3392,6.2622,6.2743,6.2707,6.2622,6.2743,6.278,6.278,6.278,6.278,6.278,0.0,0.0,0.0,0.0,0.0,0.0,0.0,0.0,0.0,0.0,3.2768,3.2529,3.2673,3.3014,3.2971,3.2348,3.3912,3.4979,3.5102,0.0,0.0,4.0159,4.2346,4.3966,4.4999,4.5116,4.5957,4.7572,4.7737,4.8925,5.1082,5.1151,5.1589,5.2266,5.1657,5.122,5.0921,4.954,4.8863,4.8596,4.7956,4.7275,4.651,4.5207,4.4468,4.4067,4.3468,4.3948,4.4859,4.4919,4.4926,0.0,0.0,0.0,4.5039,4.5957,4.7261,4.8735,5.0345,5.4413,5.8845,6.1478,6.2635,6.3332,6.4029,6.4138,6.4016,6.3771,6.3825,6.3867,6.3482,6.3359,6.3312,6.3336,6.2623,6.2045,6.2137,6.1507,6.1359,6.204,6.2188,6.2512,6.3158,6.3194,6.2899,6.2197,6.2073,6.1726,6.1001,6.0913,6.0899,6.101,6.0876,6.0845,6.0974,6.0729,6.0231,5.9538,6.0015,6.0676,6.1484,6.2511,6.2915,6.278,6.289,6.2511,6.1814,6.2511,6.2401,6.1814,6.2548,6.278,6.278,6.278,6.278,6.278,0.0,0.0,0.0,0.0,0.0,0.0,0.0,0.0,0.0,0.0,0.0,3.4053,3.3529,3.3766,3.3511,3.2307,3.3182,3.4079,3.4677,3.7898,3.9794,3.9794,4.2031,4.3527,4.3966,4.451,4.5452,4.6799,4.734,4.8628,5.0574,5.0574,5.1454,5.2909,5.1758,5.1185,5.1083,4.9627,4.9018,4.8984,4.8646,4.7774,4.6634,4.6486,4.5546,4.4367,4.488,4.4858,4.4716,4.538,4.5285,4.4907,4.5169,0.0,0.0,0.0,4.5736,4.7059,5.047,5.3849,5.7192,6.0501,6.1789,6.2413,6.3208,6.3385,6.3354,6.3228,6.3422,6.3535,6.3242,6.3123,6.2951,6.2604,6.1818,6.1094,6.072,6.0351,6.0217,6.0517,6.0923,6.1342,6.1579,6.1616,6.1469,6.1137,6.0766,6.037,6.0038,5.9663,5.9649,6.0092,5.9641,5.9711,6.0501,5.9966,5.9711,5.9749,6.0628,6.1006,6.097,6.1777,6.2365,6.2743,6.2328,6.1924,6.1594,6.152,6.1263,6.1006,6.1814,6.2144,6.2181,6.2658,6.278,6.278,0.0,0.0,0.0,0.0,0.0,0.0,0.0,0.0,0.0,0.0,0.0,3.5421,3.4499,0.0,0.0,0.0,3.2817,3.3607,3.4861,3.7982,3.9881,4.0025,4.2119,4.329,4.329,4.4043,4.5005,4.6208,4.6902,4.8233,5.0101,5.0101,5.1116,5.2875,5.1725,5.1286,5.1386,4.9898,4.9289,4.9255,4.8883,4.7845,4.6608,4.7132,4.6089,4.4536,4.5829,4.5673,4.5041,4.6141,4.598,4.5285,4.4933,4.4654,0.0,0.0,0.0,4.568,5.0139,5.2454,5.4509,5.8495,5.9909,6.0701,6.2132,6.2462,6.2498,6.2743,6.2938,6.2988,6.2956,6.2862,6.258,6.1883,6.0886,5.9996,5.93,5.919,5.9167,5.9076,5.9752,6.0281,6.0382,6.0419,6.0309,6.0126,5.9632,5.9274,5.9053,5.8555,5.8563,5.9108,5.8465,5.8704,5.998,5.9334,5.942,6.0188,6.0738,6.0786,6.0419,6.1006,6.163,6.2181,6.1557,6.119,6.097,6.0566,6.0272,6.0162,6.097,6.13,6.1374,6.2218,6.2511,6.2548,0.0,0.0,0.0,0.0,0.0,0.0,0.0,0.0,0.0,0.0,0.0,3.658,3.614,3.5251,3.4262,3.3147,3.3068,3.3803,3.5458,3.8206,4.0054,4.07,4.2395,0.0,4.329,4.3369,4.4289,4.6208,4.6244,4.7599,5.0101,5.0101,5.0541,5.132,5.1251,5.1589,5.2164,5.0676,5.0033,4.9898,4.8545,4.7496,4.6718,4.6075,4.5297,4.4688,4.5461,4.6075,4.6603,4.7357,4.7044,4.6189,4.5409,4.4564,4.3704,0.0,0.0,0.0,4.7811,4.9189,5.0822,5.4693,5.6296,5.7664,6.0762,6.1457,6.1739,6.2633,6.2206,6.18,6.2182,6.2294,6.2057,6.1181,6.0061,5.8988,5.8203,5.8093,5.8093,5.8093,5.8767,5.9575,6.0346,6.0419,6.0089,5.9294,5.9245,5.8877,5.813,5.8056,5.7973,5.7894,5.7834,5.8165,5.8884,5.8945,5.942,6.0188,5.9614,5.9698,6.0419,6.0456,6.0493,6.0529,6.0493,6.0052,5.9368,6.0126,5.9942,5.9331,6.0162,6.0456,6.0566,6.1374,6.1667,6.1777,0.0,0.0,0.0,0.0,0.0,0.0,0.0,0.0,0.0,0.0,0.0,0.0,0.0,3.6905,3.6279,3.5197,3.5075,3.552,3.6566,3.8625,4.0123,4.0758,4.2425,4.329,4.329,4.3927,4.4893,4.6208,4.6799,4.7902,4.939,4.939,4.9796,5.0507,5.1014,5.1082,5.0845,5.0304,4.983,4.9357,4.8815,4.7808,4.6705,4.7534,4.6937,4.5879,4.7214,4.7496,4.735,4.8042,4.7815,4.7107,4.6233,4.5384,4.4442,4.308,4.3044,4.3886,4.6064,4.7295,4.8818,5.2233,5.4481,5.6383,5.8578,6.0052,6.1116,6.1652,6.1563,6.1381,6.1203,6.1103,6.0905,6.0305,5.9655,5.8914,5.8107,5.7997,5.7997,5.7997,5.8253,5.8547,5.8841,5.8841,5.8707,5.832,5.839,5.822,5.7763,5.7834,5.7834,5.7691,5.7655,5.7729,5.7898,5.8457,5.8919,5.9174,5.9554,5.9615,5.9529,5.9529,5.926,5.8841,5.8841,5.8988,5.9184,5.8857,5.8577,5.8393,5.9199,5.9529,5.9676,6.1092,6.1594,6.1704,0.0,0.0,0.0,0.0,0.0,3.7494,3.8571,3.8931,3.932,3.9978,0.0,0.0,0.0,0.0,3.7595,3.629,3.6526,3.7041,3.7686,3.9369,4.0627,4.1309,4.2584,4.329,4.329,4.3753,4.475,4.6208,4.6606,4.7571,4.8984,4.8748,4.9018,4.9729,5.0236,5.0473,5.0439,5.0202,4.983,4.9323,4.8849,4.8112,4.7413,4.8281,4.8051,4.7362,4.8433,4.8467,4.8057,4.8443,4.7996,4.7105,4.6317,4.5176,4.399,4.3022,4.2597,4.2733,4.4266,4.5366,4.6757,4.9793,5.1971,5.3983,5.641,5.8249,5.9638,6.0272,6.0577,6.0577,6.0262,5.9779,5.9415,5.9264,5.8915,5.837,5.7564,5.7697,5.7771,5.7514,5.7697,5.7881,5.7881,5.7624,5.7454,5.7324,5.7394,5.7408,5.7206,5.7533,5.7655,5.7534,5.7486,5.7412,5.7313,5.7908,5.8187,5.8224,5.8883,5.8945,5.8543,5.8543,5.8299,5.7881,5.7881,5.8197,5.8697,5.8053,5.7786,5.7776,5.8324,5.8567,5.8798,6.0506,6.1166,6.1337,0.0,3.7978,3.8252,3.7623,3.8012,3.8737,3.9391,4.0014,4.0673,4.137,0.0,0.0,0.0,0.0,0.0,3.6464,3.7281,3.8169,3.8813,4.0436,4.1692,4.2351,4.294,4.326,4.326,4.274,4.3683,4.6138,4.5571,4.6552,4.8954,4.8244,4.8277,4.8984,4.8984,4.9763,5.105,5.0371,5.0101,4.9965,4.8545,4.8376,4.8917,4.824,4.8379,4.8987,4.8832,4.8834,4.8803,4.858,4.7577,4.6267,4.5614,4.3905,4.2274,4.277,4.2404,4.1966,0.0,0.0,0.0,4.7355,4.8733,5.0357,5.4177,5.6095,5.7324,5.847,5.9084,5.939,5.9382,5.839,5.7726,5.8113,5.7854,5.7328,5.6538,5.7109,5.7328,5.6502,5.7109,5.7583,5.7583,5.6877,5.6403,5.6343,5.6403,5.6403,5.6379,5.7145,5.751,5.7351,5.7264,5.7188,5.7116,5.7277,5.7351,5.7315,5.7474,5.7546,5.7546,5.7583,5.7583,5.7583,5.7583,5.7655,5.781,5.781,5.7703,5.7583,5.7583,5.7691,5.803,5.9603,6.0298,6.0652,3.9118,3.921,3.9473,3.9942,4.0164,4.0668,4.1897,4.1658,4.1597,0.0,0.0,0.0,4.0707,4.0224,3.9756,3.9287,3.9512,3.975,3.9928,4.0845,4.1474,4.1692,4.2321,4.2641,4.2641,4.3617,4.4476,4.519,4.633,4.7276,4.7998,4.79,4.8007,4.8176,4.8176,4.8413,4.8852,4.9729,5.0101,5.0067,4.9661,4.9289,4.9052,4.9357,4.9227,4.8832,4.8801,4.914,4.9478,4.8748,4.8404,4.795,4.6157,4.4806,4.3773,4.3266,4.2973,4.294,4.3474,0.0,0.0,0.0,0.0,0.0,5.1368,5.3363,5.5118,5.6622,5.6963,5.7396,5.847,5.7933,5.7338,5.7449,5.7559,5.751,5.7291,5.7473,5.751,5.7291,5.7473,5.7364,5.6804,5.6549,5.6137,5.5436,5.6004,5.6308,5.6116,5.6878,5.7035,5.6429,5.6924,5.6645,5.5558,5.6115,5.6115,5.5607,5.6164,5.6491,5.6624,5.7182,5.7486,5.7583,5.7583,5.7559,5.751,5.751,5.7486,5.7437,5.7437,5.7825,5.853,5.965,6.0505,6.1274,3.9701,3.9949,4.0464,4.1662,4.1885,4.2334,4.3744,4.3495,4.3434,0.0,0.0,0.0,4.188,4.0965,4.0544,4.0916,4.0679,4.0832,4.1503,4.215,4.2674,4.2988,4.3257,4.3388,4.3388,4.367,4.412,4.4812,4.5635,4.6411,4.7144,4.693,4.7063,4.7428,4.7749,4.803,4.8407,4.9539,4.9903,4.9627,4.9627,4.9763,4.9965,5.0405,5.0409,5.0178,4.9845,4.9981,5.0151,4.882,4.8346,4.806,4.6443,4.5346,4.4495,4.3955,4.334,0.0,0.0,0.0,4.4026,4.5441,0.0,0.0,4.9314,5.1213,5.3043,5.4391,5.5031,5.5675,5.6757,5.6573,5.6355,5.6645,5.683,5.7073,5.7376,5.7412,5.7412,5.7412,5.7146,5.6746,5.6273,5.5655,5.5171,5.4967,5.5171,5.5474,5.5981,5.6754,5.6971,5.65,5.6971,5.6754,5.5884,5.6283,5.6283,5.5848,5.6283,5.655,5.6624,5.7096,5.7363,5.7412,5.7412,5.7388,5.7313,5.7313,5.7313,5.7313,5.7313,5.7629,5.8224,5.9488,6.0281,6.0966,0.0,4.0678,4.1604,4.3234,4.3493,4.3977,4.5396,4.5456,4.5612,0.0,4.5515,4.4257,4.2831,4.1483,4.1001,4.1763,4.1348,4.1669,4.3006,4.3807,4.4479,4.5058,4.4944,4.4837,4.4837,4.3518,4.351,4.4962,4.4455,4.5037,4.6618,4.589,4.606,4.695,4.7464,4.8142,4.8952,4.9686,4.9634,4.9107,4.9117,4.9932,5.1116,5.1183,5.1623,5.2064,5.1224,5.0923,5.0755,4.8889,4.7922,4.7412,4.6672,4.5744,4.4897,4.4857,4.3842,0.0,0.0,0.0,0.0,4.5046,4.573,0.0,4.7787,4.9409,5.0868,5.1833,5.2886,5.3799,5.4301,5.446,5.475,5.539,5.5692,5.6199,5.708,5.7188,5.7188,5.7188,5.6464,5.5957,5.5884,5.4544,5.3965,5.4581,5.4146,5.4508,5.6029,5.679,5.7152,5.708,5.7152,5.7116,5.6935,5.7043,5.7043,5.6935,5.7043,5.708,5.708,5.7152,5.7188,5.7188,5.7188,5.7188,5.7188,5.7188,5.7188,5.7188,5.7188,5.7336,5.769,5.9241,5.99,6.0354,4.3325,4.346,4.4007,4.576,4.6069,4.6572,4.8046,4.7108,4.6716,4.8061,4.6199,4.4675,4.4363,4.3088,4.233,4.2509,4.306,4.3351,4.3103,4.4289,4.4802,4.4419,4.4854,4.5132,4.5132,4.5334,4.5619,4.5957,4.6532,4.7043,4.7375,4.6815,4.6941,4.7665,4.7199,4.77,4.8952,4.9686,4.9919,4.9786,4.9872,5.0067,5.0371,5.098,5.1286,5.1319,5.0543,5.0646,5.0918,4.9243,4.8511,4.818,4.7567,4.7099,4.6794,4.649,4.6055,4.5727,4.6016,4.5665,4.5391,4.6152,4.5984,0.0,4.659,4.7147,4.7809,4.8973,4.9435,4.9983,5.1049,5.1821,5.2294,5.2462,5.3971,5.568,5.7032,5.7188,5.7188,5.7188,5.6464,5.5776,5.516,5.4255,5.3494,5.3023,5.4037,5.5341,5.6862,5.7116,5.6899,5.6247,5.6862,5.6609,5.5377,5.5921,5.5921,5.5377,5.5957,5.621,5.6247,5.6899,5.7188,5.7188,5.7188,5.7188,5.7188,5.7188,5.7188,5.7188,5.7188,5.7612,5.8326,5.9279,6.0145,6.0965,4.4216,4.4327,4.4914,4.6982,0.0,4.7868,4.9323,4.8541,4.8155,4.9258,4.7527,4.6028,4.5561,4.4224,4.3579,4.3992,0.0,0.0,4.4902,4.5594,4.6155,4.655,4.6486,4.6382,4.6382,4.6293,4.6208,4.6208,4.6304,4.6582,4.7045,4.6402,4.6364,4.6819,4.7534,4.8036,4.8459,4.9928,5.0335,5.0011,5.0047,5.0066,5.0135,5.0507,5.0642,5.0608,5.0236,5.0069,4.994,4.9508,4.9041,4.8576,4.8174,4.7804,4.7466,4.7248,4.6877,4.6544,4.6756,4.6515,4.623,4.6157,4.6129,0.0,0.0,4.6141,4.6605,4.7191,4.7331,4.7558,4.8259,4.923,5.0095,5.0493,5.2368,5.3948,5.4348,5.6031,5.7043,5.6645,5.5921,5.5305,5.4943,5.382,5.2915,5.2516,5.4689,5.6066,5.6066,5.679,5.7007,5.6609,5.6971,5.6826,5.6066,5.6391,5.6391,5.6066,5.6428,5.6609,5.6609,5.7007,5.7188,5.7188,5.7188,5.7188,5.7188,5.7188,5.7188,5.7188,5.7188,5.7442,5.7913,5.8709,5.9559,6.0435,4.452,4.4731,4.5448,4.7548,0.0,0.0,0.0,0.0,4.9464,5.0192,4.9072,4.7803,4.6768,4.5499,4.5016,4.5763,0.0,0.0,4.706,4.709,4.753,4.8748,4.819,4.7802,4.7669,4.7073,4.673,4.673,4.6146,4.6256,4.6975,4.6247,4.6054,4.6409,4.8026,4.8564,4.8348,5.0295,5.0786,5.0269,5.0237,5.0095,4.9898,5.0033,5.0101,5.0101,5.0101,4.9565,4.8933,4.9508,4.9274,4.8769,4.861,4.8207,4.7765,4.7827,4.7423,4.6982,4.7162,4.7124,4.6853,4.6278,4.6293,4.6259,0.0,0.0,0.0,4.5839,4.5796,4.5787,4.5846,4.6849,4.7885,4.8409,5.0266,5.1384,5.0714,5.3592,5.5602,5.5209,5.4858,5.4617,5.446,5.3025,5.2304,5.269,5.4853,5.5713,5.4716,5.614,5.6974,5.6974,5.7112,5.7188,5.7188,5.7188,5.7188,5.7188,5.7188,5.7188,5.7188,5.7188,5.7188,5.7188,5.7188,5.7188,5.7188,5.7188,5.7188,5.7188,5.7188,5.7188,5.7333,5.8275,5.9035,5.9786,4.5419,4.5963,4.6609,4.7717,0.0,0.0,0.0,0.0,5.0215,5.091,5.0626,4.9842,4.8464,4.7536,4.7089,4.7342,4.6182,4.6393,4.8612,4.8139,4.7868,4.8007,4.8554,4.8526,4.7885,4.8399,4.8671,4.8671,4.8604,4.8601,4.8695,4.7953,4.798,4.8612,4.8311,4.8757,4.9819,5.0832,5.1272,5.1226,5.1158,5.0356,4.9187,4.983,5.0101,5.0101,5.0101,4.9627,4.8956,4.8933,4.8868,4.8769,4.8769,4.8608,4.8444,4.8759,4.8692,4.8596,4.8686,4.8274,4.7736,4.7669,4.6709,4.5784,4.5682,0.0,4.4524,4.4524,0.0,4.4258,4.4281,0.0,0.0,4.4817,4.6661,4.789,4.7098,4.9093,5.1016,5.1972,5.3139,5.3554,5.2944,5.1562,5.1522,5.344,5.2783,5.2769,5.3783,5.5327,5.6158,5.6158,5.6845,5.7188,5.7188,5.7188,5.7188,5.7188,5.7188,5.7188,5.7188,5.7188,5.7188,5.7188,5.7188,5.7188,5.7188,5.7188,5.7188,5.7188,5.7188,5.7188,5.7369,5.8891,5.9542,5.9859,4.5568,4.6219,4.6938,4.7744,0.0,0.0,0.0,0.0,5.1243,5.1131,5.1395,5.1067,4.9566,4.9576,4.9176,4.7879,4.7285,4.7394,4.8308,4.8041,0.0,4.8545,4.8849,4.8849,4.8545,4.8849,4.9018,4.9018,4.8578,4.8578,4.8984,4.8274,4.8308,4.8984,4.8741,4.9222,5.033,5.1555,5.1575,5.0896,5.1836,5.0893,4.9018,4.9416,4.952,4.9458,4.9458,4.9255,4.9018,4.8956,4.8925,4.8894,4.8801,4.8435,4.8104,4.8697,4.8529,4.8228,4.8821,4.9086,4.8984,4.8108,4.7767,4.7394,4.6515,4.5699,4.5002,4.4558,0.0,0.0,0.0,0.0,0.0,0.0,4.6101,4.7106,4.5882,4.7632,4.9276,4.9793,5.1119,5.1934,5.191,5.2173,5.2353,5.2312,5.2221,5.2462,5.3002,5.3637,5.4635,5.5948,5.592,5.6289,5.7188,5.7188,5.7188,5.7188,5.6855,5.6845,5.7188,5.6855,5.6881,5.7224,5.7695,5.7913,5.7949,5.8383,5.826,5.781,5.7887,5.7623,5.7261,5.7949,5.8818,5.9687,4.5539,4.6287,4.6955,4.753,4.8929,0.0,0.0,5.1837,5.2022,5.1714,5.2334,5.2329,5.1041,5.1423,5.122,4.9781,4.911,4.891,4.9291,4.9179,4.9022,4.8954,4.9388,4.9331,4.8714,4.8917,4.9018,4.9018,4.8655,4.8775,4.9286,4.8915,4.8949,4.9286,4.9521,4.9894,5.0416,5.2129,5.2269,5.142,5.2584,5.1696,4.9653,4.9277,4.9077,4.9018,4.9018,4.8883,4.8714,4.8714,4.8714,4.8649,4.8354,4.7989,4.7787,4.8124,4.7989,4.7821,4.8514,4.9255,4.9526,4.8477,4.8477,4.8409,4.7361,4.6549,4.5838,4.5297,4.4722,0.0,0.0,0.0,4.4613,4.4199,0.0,4.5815,4.4316,4.5835,4.7238,4.7618,4.8921,5.0125,5.085,5.1395,5.1367,5.0558,5.0863,5.1158,5.1245,5.1928,5.3043,5.4717,5.4851,5.5455,5.6572,5.6814,5.6959,5.6959,5.6339,5.6284,5.6688,5.647,5.6542,5.6958,5.7756,5.8052,5.806,5.8633,5.8506,5.7886,5.7969,5.7522,5.6931,5.7614,5.8601,5.9651,4.5503,4.6184,0.0,4.6819,4.8586,5.0472,5.185,5.2025,5.2281,5.3014,5.3712,5.3904,5.3255,5.3084,5.3375,5.4141,5.2099,5.1384,5.2748,5.2345,5.1099,4.8901,5.0357,5.0199,4.797,4.8646,4.9018,4.9018,4.9698,5.0011,4.9976,5.0654,5.06,5.0004,5.085,5.0743,5.0159,5.2573,5.3587,5.3611,5.3647,5.2758,5.1269,4.9622,4.8984,4.9018,4.9018,4.8545,4.7939,4.7939,4.7939,4.7804,4.709,4.7361,4.777,4.7056,4.7361,4.7906,4.7906,4.8477,4.9018,4.8984,4.8477,4.7906,4.7872,4.7293,4.6752,4.6718,4.6718,4.6481,4.5737,4.563,4.5156,4.3667,4.3498,0.0,0.0,4.261,4.3973,4.5164,4.6671,4.8186,4.959,4.7785,4.7058,4.838,4.775,4.7528,4.8132,5.0244,5.1466,5.1566,5.3752,5.4892,5.4955,5.5856,5.6339,5.6311,5.5722,5.5461,5.5461,5.6169,5.6395,5.6278,5.7017,5.7206,5.7048,5.7048,5.7048,5.7048,5.7048,5.6593,5.6248,5.8636,5.9579,5.9832,4.6829,4.7576,4.7954,4.7439,4.8705,5.0307,5.1828,5.2254,5.2949,5.4459,5.5543,5.6014,5.5548,5.6348,5.6446,5.5241,5.4352,5.3901,5.3844,5.3274,5.231,5.0906,5.1575,5.1088,4.9272,4.9502,4.9432,4.9018,4.926,4.9346,4.9346,4.961,4.9855,5.0059,5.0326,5.0843,5.172,5.3493,5.3949,5.3439,5.3431,5.2866,5.1869,5.0328,4.9729,4.9661,4.9187,4.8849,4.8646,4.8646,4.8646,4.8578,4.8342,4.8105,4.7939,4.8206,4.8105,4.8007,4.8511,4.9526,5.0236,4.9255,4.956,4.9833,4.8849,4.8071,4.753,4.753,4.7158,4.6718,4.6481,4.6413,4.6109,0.0,4.4925,4.4587,0.0,4.3876,4.434,4.473,4.5987,4.723,4.8147,4.7763,4.7608,4.8111,4.7299,4.7275,4.8497,4.833,4.9182,5.1303,5.2042,5.2994,5.4281,5.5091,5.5572,5.5722,5.5039,5.5227,5.6109,5.5803,5.6122,5.6959,5.7596,5.7848,5.7851,5.837,5.8235,5.7654,5.7751,5.7265,5.6608,5.7539,5.7977,5.8432,4.7925,4.8588,4.8946,4.854,4.9388,5.0633,5.2187,5.2648,5.3427,5.5184,5.6309,5.7101,5.734,5.8231,5.8304,5.714,5.6708,5.6146,5.5454,5.5027,5.4029,5.236,5.3007,5.2536,5.0661,5.0704,5.0534,5.011,4.986,4.9722,4.9722,4.9722,4.985,5.0089,5.0823,5.159,5.245,5.4438,5.4935,5.4411,5.4465,5.3948,5.2952,5.172,5.0776,4.9994,4.9308,4.888,4.8612,4.8612,4.8612,4.8578,4.8308,4.8071,4.7939,4.8173,4.8071,4.8041,4.8815,4.9898,5.0642,4.9965,5.0507,5.0879,4.9661,4.9018,4.8751,4.8925,4.8213,4.7703,4.8121,4.7406,4.6621,0.0,0.0,4.5128,0.0,4.435,4.4282,4.4581,4.5346,4.5974,4.6334,4.6582,4.6733,4.6808,4.6482,4.6781,4.7901,4.7342,4.8066,5.0386,5.0947,5.193,5.3428,5.4595,5.5069,5.4948,5.4603,5.4783,5.534,5.5035,5.5312,5.6056,5.6712,5.709,5.7295,5.7843,5.7842,5.7566,5.7637,5.7158,5.6474,5.7177,5.777,5.8472,4.8714,4.9284,4.9852,5.0089,5.0593,5.1402,5.292,5.3209,5.3775,5.5263,5.6223,5.7274,5.8713,5.8783,5.907,5.9797,5.9004,5.8181,5.7545,5.7424,5.6138,5.3272,5.4625,5.4384,5.2072,5.211,5.2129,5.2102,5.1423,5.1086,5.1034,5.1034,5.0662,5.0096,5.2279,5.2824,5.2342,5.5317,5.651,5.6418,5.6613,5.5839,5.4469,5.3725,5.2114,5.0137,4.9466,4.8697,4.797,4.7939,4.797,4.7834,4.7124,4.7394,4.7834,4.7124,4.7428,4.8173,4.8883,4.9627,5.0371,5.1048,5.1251,5.1082,5.0304,5.0135,5.0308,5.0856,4.9976,4.9468,5.0525,4.8668,4.6895,0.0,0.0,4.4615,4.4615,4.3944,4.3741,4.4513,4.4615,4.4497,4.4321,4.4298,4.4432,4.4688,4.5353,4.5955,4.6389,4.7144,4.7968,4.8726,5.0387,5.1647,5.2359,5.4184,5.4758,5.4072,5.4397,5.4092,5.328,5.3986,5.4112,5.3789,5.4522,5.5107,5.5549,5.5615,5.6051,5.6647,5.668,5.6282,5.5842,5.7466,5.8718,5.9706,5.0232,5.1323,5.2297,5.236,5.1514,5.1151,5.2139,5.3272,5.4519,5.5935,5.7862,5.9146,5.9387,6.0429,6.0946,6.061,5.976,5.9216,5.9051,5.8028,5.6744,5.5291,5.5825,5.5288,5.3504,5.3044,5.2594,5.2102,5.1423,5.0823,5.0279,5.0279,0.0,5.0096,5.1794,5.263,5.2927,5.5402,5.6368,5.6249,5.6443,5.5958,5.5112,5.4627,5.4019,5.311,5.0676,4.9384,4.8866,4.8744,4.8775,4.8833,4.8541,4.8606,4.8833,4.8508,4.8951,4.956,4.9763,5.0744,5.1657,5.1319,5.1623,5.1826,5.1116,5.0913,5.1083,5.1794,5.1561,5.1225,5.1089,5.0416,4.9169,4.7068,4.5505,4.4615,4.4615,4.4445,4.4378,4.4581,4.4468,4.4412,4.4497,4.4687,4.473,4.4721,4.4889,4.5426,4.6356,4.6191,4.665,4.7935,4.9188,5.0153,5.076,5.2436,5.3347,5.3416,5.3653,5.3855,5.402,5.4082,5.4238,5.4556,5.5136,5.5161,5.4854,5.5984,5.6216,5.5951,5.6481,5.6581,5.6425,5.6281,5.7103,5.8218,5.1316,5.2637,5.3739,5.3739,5.3219,5.2846,5.2956,5.3904,5.5042,5.6241,5.801,5.9154,5.9169,6.0221,6.0892,6.081,5.976,5.9243,5.9657,5.8196,5.6926,5.6128,5.6527,5.6163,5.4907,5.4614,5.4132,5.3447,5.2472,5.1612,5.0894,0.0,0.0,0.0,5.2057,5.286,5.3167,5.5015,5.5775,5.5751,5.5858,5.5683,0.0,5.5222,5.4953,5.4447,5.2643,5.1256,5.0145,4.9718,4.9466,4.932,4.9229,4.926,4.929,4.9138,4.9562,5.0192,5.05,5.1407,5.2215,5.223,5.2536,5.2638,5.186,5.1691,5.1861,5.2539,5.2303,5.2169,5.2673,5.1497,4.9542,4.6756,4.5872,4.5359,4.4682,4.4857,4.4959,4.4649,4.4497,4.4468,4.4615,4.4553,4.4597,4.4779,4.4782,4.532,4.6486,4.6519,4.7276,4.9021,4.9702,5.0659,5.1933,5.2682,5.3231,5.3545,5.3752,5.3854,5.3818,5.3714,5.3774,5.3997,5.4512,5.4704,5.4704,5.579,5.6183,5.6117,5.6514,5.6641,5.6531,5.5985,5.6435,5.7271,5.227,5.3518,5.4509,5.4436,5.4972,5.5153,5.4332,5.4806,5.5505,5.6173,5.7363,5.8226,5.8319,5.9009,5.9753,6.0421,5.9216,5.8761,5.9553,5.8072,5.6949,5.6346,5.6901,5.6862,5.6174,5.6188,5.5825,5.506,5.3857,5.2834,0.0,0.0,0.0,0.0,5.2689,5.3339,5.3471,5.452,5.5,5.5007,5.5007,5.5149,5.5395,5.5507,5.5368,5.5051,5.4821,5.3388,5.1422,5.0704,5.0028,4.953,4.959,4.9688,4.9722,4.953,4.9952,5.0662,5.1284,5.1912,5.2571,5.3274,5.355,5.3381,5.2502,5.2367,5.2605,5.3246,5.2876,5.2907,5.4467,5.2134,4.9104,4.6524,4.6524,4.6456,4.5274,4.5578,4.5679,4.5066,4.4897,0.0,4.475,4.4365,4.4307,4.4764,4.4827,4.5369,4.6609,4.7275,4.8594,5.07,5.0996,5.2017,5.3893,5.3838,5.393,5.4008,5.4219,5.3987,5.3313,5.3212,5.3076,5.2937,5.3597,5.4192,5.4722,5.5539,5.616,5.6624,5.6624,5.6509,5.6348,5.6211,5.6362,5.6685,5.3849,5.473,5.517,5.4509,5.4972,5.5139,5.4411,5.5606,5.63,5.5584,5.7065,5.7804,5.6806,5.8005,5.8843,5.8802,5.8565,5.8456,5.8627,5.7757,5.7177,5.7057,5.7141,5.7116,5.6971,5.6479,5.5595,5.4403,5.4143,5.3061,0.0,5.1716,5.191,0.0,5.2882,5.3892,5.4818,5.4953,5.4626,5.4031,5.4031,5.4524,5.5235,5.5259,5.5789,5.6433,5.5757,5.3842,5.1633,5.1353,5.0564,4.9737,5.0074,5.0682,5.1235,5.0873,5.1657,5.2692,5.2796,5.3334,5.3748,5.3425,5.3785,5.3901,5.2601,5.2807,5.3518,5.4228,5.4596,5.476,5.4663,5.2539,5.0217,4.8467,4.7667,4.7407,4.7776,4.7407,4.7099,4.7087,4.6458,4.5853,4.5539,4.4754,4.4246,4.4236,4.4322,4.4871,4.5912,4.6772,4.81,5.001,5.1119,5.1908,5.2485,5.3908,5.4398,5.3975,5.4359,5.4361,5.4087,5.3481,5.3076,5.297,5.4274,5.4575,5.4307,5.6211,5.6709,5.6308,5.6308,5.6158,5.6037,5.6443,5.6408,5.6146,5.484,5.5317,5.5632,5.5642,5.5535,5.5313,5.4919,5.5525,5.5585,5.4331,5.5464,5.5911,5.4688,5.6127,5.7362,5.7756,5.7726,5.7872,5.8383,5.7659,5.7188,5.7188,5.7188,5.7188,5.7188,5.6562,5.5564,5.4189,5.3835,5.2985,5.1618,5.197,5.2312,5.268,5.2999,5.3467,5.4062,5.3822,5.3535,5.3208,5.3644,5.4322,5.5132,5.5281,5.5952,5.6685,5.608,5.4311,5.2284,5.1836,5.1318,5.0828,5.0634,5.1068,5.1564,5.1305,5.2197,5.3307,5.3207,5.3969,5.4712,5.447,5.4395,5.4224,5.3693,5.3511,5.3619,5.4059,5.4497,5.4626,5.3989,5.2873,5.1444,4.9702,4.9068,4.8769,4.8769,4.8769,4.8531,4.7852,4.7386,4.6776,4.5776,4.5307,4.4956,4.4783,4.4471,4.4989,4.656,4.7296,4.8763,5.1074,5.205,5.3099,5.4331,5.456,5.4822,5.5113,5.4554,5.4358,5.4428,5.4091,5.3854,5.3852,5.5226,5.5626,5.5391,5.6724,5.7089,5.6754,5.6754,5.6679,5.6634,5.6663,5.6564,5.6336,5.5625,5.5933,5.6277,5.6912,5.6561,5.6009,5.5531,5.5359,5.4812,5.3504,5.3922,5.3964,5.3001,5.4391,5.5764,5.6595,5.6833,5.7299,5.8042,5.75,5.7163,5.7188,5.7188,5.7188,5.7188,5.6608,5.5606,5.418,5.3501,5.2821,5.2065,5.209,5.2486,5.3146,5.306,5.3068,5.3149,5.2935,5.2954,5.3126,5.3626,5.4303,5.5051,5.5163,5.5643,5.6248,5.5851,5.4588,5.3037,5.2329,5.1878,5.1555,5.127,5.1518,5.1915,5.1725,5.2666,5.3773,5.3654,5.4678,5.5793,5.5688,5.5383,5.5122,5.4953,5.4425,5.4011,5.4106,5.4493,5.46,5.3819,5.3697,5.3063,5.1063,5.0699,5.0469,4.9905,5.0042,4.9803,4.8686,4.8281,4.7571,4.6283,4.5843,4.5689,4.5845,4.5067,4.535,4.7312,4.7957,4.9427,5.2078,5.293,5.4113,5.5793,5.5322,5.5451,5.6218,5.5118,5.476,5.504,5.4905,5.4837,5.4905,5.6046,5.6651,5.6816,5.7073,5.7204,5.7204,5.7204,5.7167,5.7126,5.692,5.6796,5.6641,5.6223,5.7078,5.7632,5.7683,5.8123,5.7825,5.5873,5.5524,5.5166,5.4228,5.3544,5.3101,5.2842,5.354,5.4283,5.4874,5.6116,5.6891,5.7118,5.7046,5.7061,5.7188,5.7188,5.7188,5.7188,5.6608,5.5545,5.401,5.3444,5.2772,5.1909,5.2039,5.2427,5.3039,5.3017,5.3273,5.3704,5.3681,5.4083,5.4629,5.4072,5.4366,5.5027,5.4514,5.4554,5.4861,5.4865,5.4419,5.3768,5.298,5.182,5.0904,5.2015,5.2661,5.3026,5.2876,5.3863,5.5033,5.5036,5.6188,5.7229,5.6625,5.703,5.7234,5.5986,5.5581,5.5495,5.5524,5.6094,5.6288,5.5432,5.5699,5.5358,5.3097,5.264,5.2527,5.2538,5.143,5.0659,5.0688,4.9476,4.8363,4.777,4.633,4.5972,4.7292,4.6081,4.5921,4.7312,4.8084,4.9424,5.1523,5.2919,5.3748,5.3947,5.6003,5.675,5.6218,5.6448,5.656,5.6562,5.5919,5.5615,5.5649,5.6425,5.7135,5.771,5.7101,5.6829,5.6829,5.6829,5.672,5.6642,5.7278,5.7176,5.668,5.7691,5.8203,5.8419,5.8412,5.8248,5.7697,5.6313,5.5742,5.5145,5.4329,5.3545,5.2896,5.2385,5.3546,5.4499,5.4793,5.5968,5.676,5.6855,5.6933,5.701,5.7061,5.7138,5.7188,5.7188,5.6221,5.5213,5.4116,5.2701,5.182,5.1486,5.1423,5.2164,5.3604,5.3914,5.4226,5.4493,5.4048,5.4029,5.4287,5.4134,5.4211,5.4415,5.4764,5.4944,5.4983,5.5159,5.482,5.4351,5.4585,5.3911,5.2929,5.2511,5.3007,5.3684,5.3644,5.436,5.5322,5.5796,5.7109,5.8239,5.8014,5.8274,5.8529,5.807,5.7155,5.6454,5.6574,5.6664,5.6506,5.5766,5.5702,5.5391,5.4156,5.3501,5.3122,5.3281,5.2741,5.2067,5.1223,5.0582,4.9601,4.8041,4.7706,4.7548,4.7594,4.6159,4.6099,4.7948,4.8656,4.9826,5.1629,5.3425,5.4625,5.5202,5.6583,5.723,5.704,5.6749,5.6691,5.6799,5.6494,5.6596,5.7036,5.734,5.7611,5.7881,5.7577,5.7442,5.7442,5.7442,5.7405,5.7367,5.7524,5.7364,5.7025,5.8591,5.8749,5.874,5.8741,5.8307,5.7697,5.6932,5.6173,5.5516,5.4936,5.4289,5.3415,5.235,5.3547,5.4568,5.4815,5.5928,5.668,5.6865,5.6907,5.6959,5.7036,5.7138,5.7188,5.7188,5.6166,5.5347,5.4754,5.2926,5.2031,5.1987,5.1621,5.2221,5.3602,5.3989,5.4348,5.464,5.4145,5.4063,5.4347,5.4256,5.4002,5.3714,5.4209,5.4417,5.4448,5.469,5.4688,5.4723,5.5373,5.5341,5.4775,5.3566,5.357,5.3989,5.4036,5.458,5.5366,5.5946,5.7607,5.92,5.9151,5.9496,5.9859,6.001,5.8943,5.7908,5.781,5.7402,5.6912,5.6367,5.6123,5.5919,5.5507,5.4778,5.4212,5.4121,5.372,5.2842,5.1354,5.095,5.0207,4.8683,4.8818,4.8858,4.8664,4.7301,4.7278,4.9053,4.9525,5.046,5.2168,5.3805,5.5074,5.5956,5.6895,5.7476,5.7588,5.7156,5.6993,5.7137,5.7137,5.7408,5.7881,5.7881,5.7881,5.7881,5.7881,5.7881,5.7881,5.7881,5.7881,5.7881,5.7662,5.7476,5.7289,5.8467,5.8587,5.8611,5.8573,5.8602,5.8372,5.7715,5.6956,5.6495,5.6495,5.5829,5.4695,5.3011,5.3477,5.4125,5.4669,5.5883,5.6733,5.6959,5.6891,5.6907,5.7188,5.7188,5.7188,5.7188,5.6582,5.6193,5.5984,5.4754,5.4022,5.3777,5.3089,5.2711,5.2631,5.2631,5.3114,5.3911,5.3911,5.4484,5.5337,5.4637,5.3845,5.2938,5.2365,5.2431,5.2816,5.2848,5.3739,5.4887,5.4922,5.5343,5.5816,5.5473,5.4704,5.392,5.4076,5.4665,5.531,5.531,5.7695,6.0164,6.004,6.0774,6.1594,6.1594,6.0946,6.0138,5.9344,5.8524,5.7904,5.7607,5.7583,5.7531,5.7476,5.6905,5.6248,5.5657,5.4192,5.2708,5.1354,5.0381,4.991,5.0067,4.9299,4.947,5.105,5.0184,4.9889,5.0626,5.066,5.143,5.3111,5.3919,5.4658,5.5398,5.6881,5.7588,5.7588,5.7808,5.7881,5.7881,5.7881,5.7881,5.7881,5.7881,5.7881,5.7881,5.7881,5.7881,5.7881,5.7881,5.7881,5.7881,5.7662,5.7476,5.7289,5.9149,5.9269,5.9082,5.8582,5.9358,5.9663,5.8357,5.8067,5.7803,5.727,5.6152,5.5367,5.5203,5.5326,5.546,5.5652,5.634,5.6786,5.6855,5.6881,5.6959,5.7061,5.7138,5.7188,5.7188,5.6608,5.6284,5.6193,5.4847,5.3823,5.306,5.3301,5.3385,5.3315,5.3752,5.4226,5.4685,5.4229,5.4306,5.4637,5.3428,5.2633,5.2199,5.2013,5.2152,5.2585,5.3702,5.4663,5.5462,5.6023,5.6704,5.7243,5.6616,5.5474,5.4409,5.4581,5.4477,5.4592,5.5803,5.728,5.875,5.9743,6.0761,6.1617,6.2167,6.13,6.0015,5.8657,5.818,5.795,5.7786,5.7655,5.7436,5.6904,5.6558,5.5982,5.4925,5.4209,5.3341,5.2096,5.1595,5.1225,5.0881,5.1051,5.1154,5.1089,5.1226,5.1429,5.1797,5.2068,5.2806,5.4091,5.5235,5.601,5.6354,5.7335,5.7808,5.7808,5.7881,5.7881,5.7881,5.7881,5.7881,5.7881,5.7881,5.7881,5.7881,5.7881,5.7881,5.7881,5.7881,5.7808,5.7698,5.7625,5.7402,5.7101,5.9108,5.9144,5.8999,5.8492,5.8999,5.9216,5.8492,5.824,5.7954,5.7451,5.6624,5.6229,5.6582,5.6555,5.6501,5.6501,5.6724,5.6803,5.6617,5.6855,5.6907,5.675,5.7036,5.7188,5.7188,5.6819,5.6635,5.6635,5.5439,5.4449,5.3601,5.3663,5.3528,5.3213,5.3615,5.3975,5.4264,5.3813,5.3643,5.353,5.2601,5.1563,5.0558,5.057,5.0769,5.1227,5.2437,5.3689,5.4879,5.5925,5.6588,5.704,5.6842,5.5942,5.4987,5.5234,5.4813,5.4522,5.5701,5.6773,5.7864,5.8885,6.0253,6.1467,6.1942,6.114,5.9871,5.8589,5.8077,5.781,5.7655,5.7559,5.7472,5.7241,5.6931,5.6425,5.5699,5.5178,5.4422,5.3172,5.3151,5.3151,5.2829,5.2985,5.3031,5.2764,5.3139,5.3546,5.395,5.3617,5.4127,5.5724,5.6816,5.7569,5.8016,5.8427,5.8528,5.828,5.8027,5.7881,5.7881,5.7881,5.7881,5.7881,5.7881,5.7881,5.7881,5.7881,5.7845,5.7772,5.7772,5.7662,5.7476,5.7402,5.7214,5.6987,5.8456,5.8311,5.8347,5.8383,5.784,5.7623,5.8456,5.7876,5.7369,5.7369,5.7261,5.7188,5.7188,5.7163,5.7138,5.7138,5.701,5.675,5.6284,5.6671,5.6661,5.6257,5.6829,5.7138,5.7138,5.7163,5.7188,5.7213,5.6403,5.5702,5.5064,5.4102,5.3247,5.2589,5.248,5.2622,5.2903,5.2836,5.2639,5.2267,5.2033,5.0589,4.8483,4.829,4.8509,4.9002,4.9629,5.1282,5.341,5.476,5.5382,5.5704,5.6398,5.6167,5.5683,5.5894,5.5417,5.487,5.5104,5.6143,5.7227,5.7529,5.9384,6.1142,6.112,6.0573,5.9844,5.8969,5.8203,5.7632,5.7449,5.7388,5.7592,5.8228,5.7765,5.741,5.741,5.6717,5.5744,5.4524,5.4893,5.5348,5.5531,5.5057,5.4931,5.5519,5.5623,5.5968,5.6662,5.532,5.5561,5.7906,5.8561,5.9225,5.9998,5.9998,5.9644,5.8909,5.8244,5.7881,5.7881,5.7881,5.7881,5.7881,5.7881,5.7881,5.7881,5.7881,5.7772,5.7588,5.7588,5.7476,5.7252,5.7063,5.6987,5.6949,5.7514,5.7478,5.7695,5.8311,5.8746,5.9325,6.0122,5.9542,5.9035,5.9035,5.7949,5.7188,5.7188,5.6767,5.6501,5.6501,5.6474,5.6229,5.5665,5.5722,5.5751,5.5636,5.6201,5.6501,5.6501,5.6984,5.7239,5.7338,5.6678,5.5991,5.5208,5.4388,5.3549,5.2834,5.2624,5.2764,5.3076,5.2369,5.2068,5.2067,5.0889,4.9585,4.829,4.7693,4.774,4.8199,4.8923,5.0583,5.2593,5.4129,5.5381,5.6363,5.6541,5.6904,5.707,5.6096,5.4936,5.4119,5.4804,5.4853,5.5053,5.6315,5.851,6.0341,6.0289,6.061,6.05,5.9114,5.8677,5.83,5.7521,5.7388,5.7411,5.7467,5.7351,5.7081,5.6652,5.6276,5.5998,5.5953,5.6014,5.6335,5.7078,5.7026,5.6549,5.5534,5.6019,5.6409,5.6523,5.7317,5.8265,5.9459,5.9622,5.9823,5.9998,5.9998,5.9644,5.8909,5.8244,5.7881,5.7881,5.7881,5.7881,5.7881,5.7881,5.7808,5.7662,5.7662,5.7551,5.7364,5.7364,5.7252,5.7063,5.7025,5.6911,5.6757,5.6447,5.6608,5.7162,5.834,5.8842,5.9512,6.0897,6.0121,5.9393,5.9418,5.8324,5.7461,5.7213,5.6338,5.5695,5.5355,5.5681,5.5601,5.4978,5.5219,5.5108,5.446,5.5014,5.5178,5.4851,5.5508,5.6081,5.6572,5.6572,5.6055,5.5009,5.4451,5.3609,5.2537,5.2332,5.237,5.2531,5.1928,5.1588,5.1376,5.0437,4.8942,4.726,4.6766,4.647,4.647,4.7517,4.9057,5.0824,5.2601,5.3966,5.4966,5.5303,5.5754,5.6032,5.531,5.4612,5.4123,5.4324,5.4059,5.4247,5.6307,5.8072,5.9409,5.9817,6.0475,6.055,5.8951,5.8623,5.8369,5.7459,5.7289,5.7264,5.7213,5.7239,5.7163,5.6767,5.6975,5.7227,5.7354,5.7947,5.8588,5.9073,5.8875,5.8373,5.7517,5.7517,5.7671,5.7901,5.8685,5.9503,6.0344,6.0441,6.0441,6.0379,5.9774,5.9314,5.8909,5.8244,5.7881,5.7881,5.7881,5.7845,5.7772,5.7772,5.7662,5.7476,5.7476,5.7327,5.7176,5.7176,5.7025,5.6872,5.6872,5.6796,5.6746,5.5519,5.5837,5.6664,5.8231,5.8547,5.9241,6.1227,6.0248,5.9318,5.9365,5.8464,5.7618,5.7112,5.5946,5.495,5.4291,5.4774,5.4783,5.3986,5.4448,5.4231,5.3056,5.3565,5.3596,5.2993,5.3787,5.464,5.5482,5.6122,5.5858,5.4741,5.4319,5.34,5.2135,5.1833,5.1693,5.1719,5.1657,5.1213,5.0526,5.0345,4.8661,4.6167,4.5884,4.5407,4.5046,4.6094,4.7432,4.899,5.0916,5.2029,5.2744,5.3566,5.3971,5.4114,5.4024,5.4147,5.4229,5.3748,5.3647,5.4191,5.6576,5.7706,5.852,5.9543,6.0228,6.0267,5.9035,5.8565,5.8202,5.7514,5.7261,5.7152,5.7069,5.7216,5.7302,5.7094,5.7905,5.8584,5.8565,5.9905,6.0846,6.0991,6.0544,6.016,6.0017,5.9488,5.9266,5.9532,5.9615,5.9916,6.0534,6.0651,6.0681,6.0564,5.9414,5.8806,5.8806,5.8137,5.7808,5.7808,5.7808,5.7698,5.7551,5.7551,5.7439,5.7252,5.7252,5.7139,5.6949,5.6949,5.6834,5.668,5.668,5.668,5.6812,5.5519,5.549,5.597,5.7433,5.8574,5.9739,6.1263,6.0713,6.0126,6.0149,5.8482,5.7112,5.6501,5.5816,5.5103,5.4437,5.4102,5.3302,5.1785,5.1779,5.1745,5.1547,5.2169,5.2463,5.2325,5.3701,5.4529,5.4839,5.508,5.5069,5.4826,5.3521,5.2665,5.2267,5.1494,5.1189,5.1312,5.1597,5.0934,4.9781,5.0159,4.8866,4.6677,4.5996,4.5987,4.6334,4.5908,4.7009,4.8944,5.0422,5.1055,5.1457,5.2754,5.3309,5.3311,5.2695,5.3039,5.3566,5.347,5.3554,5.4116,5.586,5.6926,5.7952,5.9455,5.9797,5.9905,6.0339,5.9361,5.8347,5.8239,5.7659,5.6996,5.6442,5.6828,5.7046,5.643,5.7554,5.8699,5.9325,6.0231,6.11,6.1725,6.1742,6.1343,6.0547,6.1015,6.0741,5.9395,5.9967,6.0047,5.9377,5.9541,5.9639,5.9606,5.8806,5.839,5.839,5.7704,5.7402,5.7402,5.7402,5.7364,5.7364,5.7364,5.7252,5.7063,5.7063,5.6911,5.6757,5.6757,5.6719,5.668,5.668,5.668,5.6812,5.5039,5.5396,5.6106,5.6857,5.8412,6.0034,6.13,6.0871,6.0381,6.0296,5.8445,5.6876,5.6366,5.519,5.4296,5.3991,5.3181,5.235,5.1573,5.1879,5.1817,5.1251,5.0841,5.057,5.0475,5.1966,5.3013,5.3593,5.4478,5.4676,5.4235,5.354,5.2667,5.1691,5.1289,5.1108,5.1107,5.1473,5.123,5.0672,5.0697,4.9625,4.7935,4.6709,4.6451,4.6661,4.6191,4.6863,4.807,4.9124,4.9677,5.015,5.0808,5.0923,5.0762,5.0809,5.1739,5.2792,5.3265,5.3434,5.3844,5.5562,5.6645,5.7619,5.8796,5.9757,6.032,6.0187,5.9579,5.9072,5.9072,5.8021,5.725,5.7372,5.7325,5.718,5.6792,5.8123,5.9258,5.9542,6.0675,6.158,6.1942,6.1978,6.1597,6.0666,6.0954,6.059,5.9244,5.9124,5.8861,5.8425,5.8599,5.8564,5.8283,5.7925,5.7744,5.7777,5.7443,5.7289,5.7289,5.7289,5.7252,5.7139,5.7139,5.7025,5.6834,5.6834,5.6796,5.668,5.668,5.668,5.668,5.668,5.668,5.6846,5.51,5.5672,5.6361,5.6464,5.8313,6.0037,6.0884,6.0638,6.0186,5.9711,5.7956,5.6482,5.5778,5.4653,5.384,5.3721,5.2863,5.2335,5.2304,5.2709,5.2479,5.138,5.0021,4.9028,4.8496,5.0154,5.1351,5.2096,5.3788,5.4362,5.3913,5.3743,5.2893,5.1407,5.1238,5.1017,5.0837,5.1541,5.1687,5.1466,5.1576,5.0689,4.9226,4.7818,4.7309,4.7389,4.688,4.7098,4.7671,4.8145,4.8683,4.9131,4.9117,4.8889,4.8755,4.9323,5.0601,5.2056,5.306,5.3383,5.3878,5.5638,5.6482,5.7158,5.8229,5.9213,5.9838,5.9627,5.947,5.9398,5.9579,5.8601,5.7913,5.8399,5.8159,5.7822,5.7565,5.8957,5.9973,5.9905,6.1109,6.1978,6.1978,6.195,6.1642,6.0891,6.0799,6.0246,5.9089,5.8477,5.7947,5.7557,5.7668,5.7591,5.7176,5.7176,5.7176,5.7176,5.7176,5.7176,5.7176,5.7176,5.7063,5.6911,5.6911,5.6834,5.668,5.668,5.668,5.668,5.668,5.668,5.668,5.668,5.668,5.6879,5.6475,5.6415,5.6505,5.6517,5.8228,5.9627,5.9632,5.9832,5.942,5.7909,5.6714,5.5475,5.4126,5.4465,5.4575,5.4008,5.4006,5.3971,5.3842,5.3516,5.286,5.1825,5.0183,4.8564,4.7028,4.9089,5.0292,5.056,5.2739,5.4076,5.4582,5.3921,5.3065,5.2114,5.1425,5.075,5.0292,5.2032,5.211,5.1188,5.2712,5.2104,5.0191,4.9194,4.9224,4.9576,4.8034,4.7958,4.8458,4.8334,4.8486,4.8644,4.8591,4.8652,4.8808,4.8923,4.9939,5.1394,5.2745,5.3634,5.4529,5.6211,5.6194,5.6269,5.8092,5.7523,5.7226,5.9194,5.8999,5.8709,5.947,5.9506,5.9243,5.8682,5.9041,5.9232,5.8598,5.9766,6.0738,6.0738,6.1471,6.1978,6.1978,6.1868,6.1728,6.1544,6.1336,6.0555,5.9009,5.8874,5.8214,5.6834,5.6796,5.6796,5.6719,5.6719,5.6719,5.6719,5.6719,5.6719,5.6719,5.6719,5.6719,5.6719,5.6719,5.6719,5.668,5.668,5.668,5.668,5.668,5.668,5.668,5.668,5.668,5.6812,5.6593,5.6786,5.6984,5.6697,5.7788,5.8689,5.8551,5.8372,5.8017,5.7326,5.6084,5.5089,5.4535,5.4441,5.4333,5.4013,5.4588,5.4862,5.4698,5.4968,5.3913,5.1153,5.0259,4.9525,4.8854,5.0117,5.1059,5.1597,5.3302,5.4267,5.452,5.4639,5.3808,5.2209,5.2417,5.1847,5.0877,5.241,5.2775,5.2404,5.2885,5.253,5.162,5.0281,5.0176,5.0532,4.9387,4.8817,4.8604,4.8504,4.8538,4.8512,4.803,4.7986,4.8124,4.8228,4.9365,5.0777,5.2053,5.3193,5.4268,5.5369,5.5961,5.6648,5.7871,5.8269,5.8792,6.0088,6.0122,6.0122,6.0955,6.0267,5.9651,5.9921,5.975,5.9506,5.9232,6.0148,6.081,6.081,6.1507,6.1978,6.1978,6.1868,6.1548,6.0904,6.1128,6.0352,5.8287,5.7761,5.726,5.6719,5.668,5.668,5.668,5.668,5.668,5.668,5.668,5.668,5.668,5.668,5.668,5.668,5.668,5.668,5.668,5.668,5.668,5.668,5.668,5.668,5.668,5.668,5.668,5.6812,5.7402,5.7703,5.785,5.7315,5.7833,5.8202,5.7726,5.7338,5.6885,5.6275,5.5369,5.4699,5.4456,5.4532,5.4552,5.4454,5.5172,5.5584,5.5449,5.5894,5.4669,5.1363,5.0992,5.0518,4.978,5.0714,5.1458,5.1934,5.3406,5.433,5.4734,5.5159,5.446,5.2855,5.3346,5.2719,5.1283,5.2606,5.3062,5.291,5.3099,5.3042,5.2662,5.1534,5.1306,5.1438,5.0615,4.9915,4.9318,4.9075,4.9157,4.9202,4.8247,4.7884,4.779,4.7645,4.8873,5.0486,5.1468,5.2873,5.424,5.4847,5.5638,5.6487,5.7294,5.8276,5.9179,5.9873,6.0431,6.0991,6.1507,6.0955,6.0557,6.11,6.0738,6.0375,6.0375,6.0846,6.1181,6.1181,6.1652,6.1978,6.1978,6.1868,6.1512,6.0832,6.1092,6.0352,5.8183,5.7214,5.668,5.668,5.668,5.668,5.668,5.668,5.668,5.668,5.668,5.668,5.668,5.668,5.668,5.668,5.668,5.668,5.668,5.668,5.668,5.668,5.668,5.668,5.668,5.668,5.6846,5.7111,5.9094,5.93,5.9191,5.8529,5.8575,5.8324,5.7275,5.6807,5.6029,5.4419,5.4378,5.4218,5.3494,5.4611,5.5407,5.5407,5.5926,5.6201,5.6201,5.6098,5.504,5.2731,5.2629,5.151,4.9105,5.0469,5.1216,5.1216,5.274,5.4141,5.5402,5.5402,5.501,5.4237,5.4237,5.3112,5.1317,5.2698,5.2912,5.24,5.3603,5.3748,5.3179,5.2972,5.2764,5.2518,5.1696,5.129,5.0989,5.0112,5.0384,5.0838,4.9382,4.848,4.7836,4.7212,4.8632,5.0491,5.105,5.2837,5.458,5.4924,5.516,5.5544,5.634,5.6983,5.7588,5.819,5.9614,6.0783,6.0783,6.1435,6.1978,6.1978,6.1978,6.1978,6.1978,6.1978,6.1978,6.1978,6.1978,6.1978,6.1978,6.184,6.17,6.1623,6.1386,6.0564,5.9011,5.752,5.668,5.668,5.668,5.668,5.668,5.668,5.668,5.668,5.668,5.668,5.668,5.668,5.668,5.668,5.668,5.668,5.668,5.668,5.668,5.668,5.668,5.668,5.668,5.668,5.7144,5.7806,5.8399,5.8368,5.8354,5.8498,5.7691,5.692,5.6608,5.5725,5.4946,5.4464,5.4322,5.4441,5.4785,5.5034,5.5347,5.5792,5.6439,5.7016,5.7384,5.7347,5.7014,5.6303,5.5312,5.4421,5.3703,5.3612,5.3582,5.3582,5.3951,5.4824,5.6169,5.6644,5.6766,5.6553,5.6024,5.4983,5.3518,5.3471,5.3345,5.3145,5.3516,5.3484,5.3179,5.3144,5.2972,5.2764,5.252,5.199,5.141,5.1155,5.0855,5.0396,4.8978,4.7745,4.7052,4.8426,4.9335,5.0213,5.1924,5.3415,5.4411,5.4109,5.4927,5.6078,5.6932,5.735,5.8048,5.9663,6.0386,6.092,6.1534,6.1833,6.1978,6.1978,6.1978,6.1978,6.1978,6.1978,6.184,6.1372,6.1315,6.1104,6.0656,6.0406,6.0317,6.0286,5.9611,5.908,5.8563,5.7665,5.7139,5.7139,5.7139,5.7139,5.7139,5.6987,5.6834,5.668,5.6834,5.6834,5.668,5.668,5.668,5.668,5.668,5.668,5.668,5.668,5.668,5.668,5.668,5.668,5.668,5.668,5.7144,5.7806,5.8098,5.8157,5.8135,5.8215,5.7292,5.6394,5.6027,5.5104,5.4598,5.4908,5.4783,5.4962,5.575,5.5859,5.603,5.6403,5.7046,5.7552,5.7884,5.7881,5.8004,5.822,5.7432,5.6713,5.6133,5.5381,5.4905,5.46,5.453,5.5049,5.6125,5.6788,5.732,5.7639,5.7193,5.6047,5.4491,5.4124,5.3585,5.3044,5.3382,5.3247,5.2842,5.2842,5.2539,5.2135,5.2135,5.1926,5.1704,5.1704,5.1132,5.0225,4.8789,4.758,4.7009,4.8679,4.9411,5.0142,5.2016,5.369,5.4712,5.4114,5.5044,5.6251,5.6849,5.7345,5.8109,5.9474,6.0242,6.0891,6.1487,6.184,6.1978,6.1978,6.1776,6.1692,6.195,6.1551,6.1104,6.0891,6.0651,6.0313,5.9803,5.9641,5.9576,5.9578,5.8875,5.8422,5.8422,5.7701,5.7289,5.7289,5.7289,5.7289,5.7289,5.7553,5.7439,5.6949,5.7287,5.7248,5.6834,5.7017,5.6978,5.6713,5.7011,5.6945,5.6713,5.7011,5.6945,5.668,5.668,5.668,5.6713,5.7011,5.7574,5.827,5.801,5.8301,5.8317,5.7771,5.717,5.6446,5.5543,5.4934,5.4807,5.5497,5.5506,5.5718,5.6472,5.6849,5.7082,5.715,5.7618,5.7881,5.7881,5.7954,5.8281,5.8977,5.9011,5.8388,5.7105,5.6304,5.5584,5.4872,5.4668,5.494,5.56,5.623,5.7017,5.7912,5.782,5.6706,5.4793,5.4735,5.3822,5.2469,5.3145,5.2942,5.23,5.2166,5.1628,5.0892,5.0826,5.1229,5.1764,5.1831,5.1247,5.0257,4.8755,4.7795,4.7384,4.8229,4.9111,5.0103,5.1592,5.3584,5.5149,5.4675,5.5353,5.6205,5.633,5.7001,5.7712,5.8179,5.9441,6.0585,6.0831,6.1401,6.184,6.184,6.1315,6.1104,6.1692,6.0782,6.0199,6.0534,6.0104,5.9652,5.9349,5.9246,5.9211,5.9246,5.8702,5.8351,5.8351,5.7701,5.7364,5.7364,5.7431,5.7465,5.7465,5.8354,5.8354,5.739,5.8007,5.7891,5.7258,5.7625,5.7514,5.6951,5.7475,5.7342,5.6846,5.7442,5.7309,5.668,5.668,5.668,5.6779,5.7508,5.827,5.8999,5.7287,5.7271,5.7364,5.7634,5.6577,5.5652,5.5426,5.5293,5.5233,5.5405,5.5688,5.6132,5.6882,5.691,5.7107,5.7683,5.7816,5.7881,5.7881,5.8388,5.9011,5.9741,5.9774,5.9854,6.0063,5.827,5.726,5.7122,5.5417,5.5213,5.6426,5.6589,5.7639,5.9384,5.8839,5.7969,5.6939,5.5865,5.4527,5.3213,5.2739,5.2469,5.2166,5.0995,5.0458,5.0224,4.9641,5.0274,5.142,5.2018,5.129,4.9969,4.8955,4.7762,4.6983,4.8153,4.8667,4.9234,5.1365,5.3008,5.4278,5.4822,5.5771,5.6525,5.6441,5.6564,5.6958,5.7857,5.8495,5.9077,5.9835,6.0251,6.0406,6.0406,6.0313,6.0219,6.0184,6.0426,6.0417,5.9771,6.0043,5.9857,5.8724,5.8079,5.7814,5.7993,5.7848,5.7845,5.7991,5.7845,5.7772,5.7772,5.8346,5.8612,5.8612,5.943,5.9279,5.816,5.9012,5.9281,5.8958,5.8325,5.8241,5.8574,5.7421,5.7177,5.7508,5.7111,5.6812,5.668,5.668,5.668,5.6779,5.7508,5.827,5.9098,5.6806,5.6526,5.6331,5.6366,5.5752,5.5269,5.5289,5.5324,5.5511,5.5754,5.6235,5.6675,5.7049,5.7211,5.7476,5.7848,5.7881,5.8199,5.89,5.9288,6.0109,6.1534,6.1278,6.1341,6.2062,5.9945,5.8517,5.7771,5.6678,5.6167,5.6235,5.657,5.7457,5.8828,5.8431,5.8038,5.7535,5.6112,5.4922,5.3813,5.2736,5.2097,5.1658,5.0524,4.9659,4.8994,4.859,4.9417,5.0851,5.191,5.1507,5.0375,4.961,4.823,4.7138,4.8119,4.8377,4.8686,5.0199,5.2188,5.3869,5.4237,5.5587,5.6796,5.6564,5.648,5.6641,5.7338,5.7855,5.8355,5.9044,5.9543,5.9902,5.9966,5.9609,5.9551,6.013,5.9909,5.9691,5.9779,5.9512,5.8896,5.7697,5.7668,5.7582,5.7323,5.7737,5.7883,5.7658,5.8036,5.8275,5.8275,5.9096,5.9539,5.9539,6.0283,6.0372,5.9809,6.0146,6.0107,5.9621,5.9427,5.9064,5.8652,5.8102,5.7692,5.7243,5.7243,5.7011,5.668,5.668,5.668,5.6812,5.7906,5.8999,6.0059,5.6179,5.5801,5.5385,5.4978,5.4992,5.5088,5.5105,5.5447,5.5789,5.6133,5.6813,5.7184,5.7082,5.755,5.7881,5.7881,5.8128,5.8795,6.0047,6.0462,6.1483,6.3306,6.2886,6.286,6.3382,6.1563,5.9791,5.8178,5.7807,5.6987,5.5716,5.6269,5.6859,5.7504,5.7645,5.7653,5.7425,5.6309,5.5365,5.4447,5.3156,5.225,5.1605,5.0636,4.9513,4.8396,4.8001,4.8824,5.0314,5.1808,5.1908,5.1377,5.0537,4.9264,4.8111,4.8485,4.844,4.8457,4.9231,5.1487,5.3524,5.3493,5.5121,5.6685,5.6492,5.6447,5.6525,5.6872,5.7413,5.7927,5.8249,5.8875,5.9379,5.9578,5.8977,5.8909,6.0046,5.9295,5.895,5.9873,5.9069,5.8135,5.7348,5.783,5.7981,5.742,5.8107,5.8289,5.7691,5.8413,5.8824,5.8824,5.976,6.0245,6.0245,6.1095,6.1501,6.1501,6.1239,6.0824,6.0218,6.0528,5.9895,5.8603,5.8931,5.828,5.7028,5.7487,5.7321,5.6757,5.6719,5.668,5.6846,5.8204,5.9728,6.1086,5.4889,5.4764,5.4861,5.4892,5.5009,5.5105,5.5108,5.6099,5.6677,5.6098,5.7043,5.7546,5.6902,5.7478,5.7881,5.7881,5.9074,5.9909,6.0117,6.1885,6.3111,6.3372,6.3876,6.4129,6.4251,6.339,6.1895,5.973,5.7844,5.6533,5.5681,5.5786,5.6126,5.6696,5.7399,5.7653,5.7481,5.7313,5.648,5.5214,5.432,5.3871,5.3579,5.1691,5.0843,5.042,4.8505,4.8762,5.0265,5.1795,5.2633,5.2946,5.2053,5.1431,5.085,5.0013,4.9196,4.8857,5.0209,5.1495,5.2629,5.3145,5.4535,5.5723,5.5555,5.61,5.668,5.6719,5.6949,5.7143,5.7218,5.7591,5.7884,5.792,5.7957,5.7918,5.78,5.8681,5.9282,5.9106,5.9484,5.9702,5.9562,5.9105,5.882,5.8879,5.9019,5.9137,5.9193,5.9298,5.9404,5.9404,6.0303,6.079,6.079,6.1761,6.2245,6.2245,6.2212,6.2139,6.2003,6.1301,6.0813,6.0432,5.9103,5.8351,5.8079,5.7392,5.7049,5.6949,5.6757,5.668,5.6779,5.7641,5.9297,6.102,5.4525,5.4184,5.4045,5.411,5.4221,5.443,5.4771,5.5791,5.6198,5.5314,5.643,5.7002,5.6292,5.7313,5.8415,5.9322,5.9564,6.0623,6.2705,6.3341,6.4219,6.5445,6.5408,6.5266,6.5266,6.4178,6.2918,6.1437,5.998,5.8444,5.6885,5.7289,5.7552,5.7723,5.8113,5.8174,5.8043,5.8394,5.7936,5.6877,5.5719,5.5261,5.5071,5.3026,5.1768,5.1019,5.053,5.0801,5.1658,5.353,5.4131,5.3964,5.356,5.2922,5.2227,5.1643,5.0712,5.0002,5.0537,5.1293,5.1965,5.2235,5.3524,5.4662,5.4611,5.4902,5.5466,5.6486,5.6757,5.6872,5.6987,5.7139,5.7289,5.7402,5.7402,5.7461,5.7706,5.8225,5.8634,5.8873,5.9562,5.9827,5.9429,5.9463,5.933,5.8892,5.9223,5.9297,5.898,5.9498,5.9818,5.9938,6.0878,6.1327,6.1327,6.1782,6.207,6.2189,6.2189,6.2229,6.2347,6.1559,6.1104,6.0886,5.9257,5.8509,5.8361,5.7515,5.7176,5.7139,5.6949,5.7061,5.7342,5.7674,5.8933,6.0456]}]]